[[{"header":{"parameterUnit":"m.s-1","parameterCategory":1,"la1":30.6,"la2":28.766,"lo1":-90.7593,"lo2":-88.6598,"dy":0.0162,"dx":0.0183,"nx":116,"ny":114,"refTime":"2024-02-17T06:00:00:Z","depth":0,"parameterNumber":2,"parameterNumberName":"U-component_of_WINDS"},"data":[0.0,0.0,0.0,0.0,0.0,0.0,0.0,0.0,0.0,0.0,0.0,0.0,0.0,0.0,0.0,0.0,0.0,0.0,0.0,0.0,0.0,0.0,0.0,0.0,0.0,0.0,0.0,0.0,0.0,0.0,0.0,0.0,0.0,0.0,0.0,0.0,0.0,0.0,0.0,0.0,0.0,0.0,0.0,0.0,0.0,0.0,0.0,0.0,0.0,0.0,0.0,0.0,0.0,0.0,0.0,0.0,0.0,0.0,0.0,0.0,0.0,0.0,0.0,0.0,0.0,0.0,0.0,0.0,0.0,0.0,0.0,0.0,0.0,0.0,0.0,0.0,0.0,0.0,0.0,0.0,0.0,0.0,0.0,0.0,0.0,0.0,0.0,0.0,0.0,0.0,0.0,0.0,0.0,0.0,0.0,0.0,0.0,0.0,0.0,0.0,0.0,0.0,0.0,0.0,0.0,0.0,0.0,0.0,0.0,0.0,0.0,0.0,0.0,0.0,0.0,0.0,0.0,0.0,0.0,0.0,0.0,0.0,0.0,0.0,0.0,0.0,0.0,0.0,0.0,0.0,0.0,0.0,0.0,0.0,0.0,0.0,0.0,0.0,0.0,0.0,0.0,0.0,0.0,0.0,0.0,0.0,0.0,0.0,0.0,0.0,0.0,0.0,0.0,0.0,0.0,0.0,0.0,0.0,0.0,0.0,0.0,0.0,0.0,0.0,0.0,0.0,0.0,0.0,0.0,0.0,0.0,0.0,0.0,0.0,0.0,0.0,0.0,0.0,0.0,0.0,0.0,0.0,0.0,0.0,0.0,0.0,0.0,0.0,0.0,0.0,0.0,0.0,0.0,0.0,0.0,0.0,0.0,0.0,0.0,0.0,0.0,0.0,0.0,0.0,0.0,0.0,0.0,0.0,0.0,0.0,0.0,0.0,0.0,0.0,0.0,0.0,0.0,0.0,0.0,0.0,0.0,0.0,0.0,0.0,0.0,0.0,0.0,0.0,0.0,0.0,0.0,0.0,0.0,0.0,0.0,0.0,0.0,0.0,0.0,0.0,0.0,0.0,0.0,0.0,0.0,0.0,0.0,0.0,0.0,0.0,0.0,0.0,0.0,0.0,0.0,0.0,0.0,0.0,0.0,0.0,0.0,0.0,0.0,0.0,0.0,0.0,0.0,0.0,0.0,0.0,0.0,0.0,0.0,0.0,0.0,0.0,0.0,0.0,0.0,0.0,0.0,0.0,0.0,0.0,0.0,0.0,0.0,0.0,0.0,0.0,0.0,0.0,0.0,0.0,0.0,0.0,0.0,0.0,0.0,0.0,0.0,0.0,0.0,0.0,0.0,0.0,0.0,0.0,0.0,0.0,0.0,0.0,0.0,0.0,0.0,0.0,0.0,0.0,0.0,0.0,0.0,0.0,0.0,0.0,0.0,0.0,0.0,0.0,0.0,0.0,0.0,0.0,0.0,0.0,0.0,0.0,0.0,0.0,0.0,0.0,0.0,0.0,0.0,0.0,0.0,0.0,0.0,0.0,0.0,0.0,0.0,0.0,0.0,0.0,0.0,0.0,0.0,0.0,0.0,0.0,0.0,0.0,0.0,0.0,0.0,0.0,0.0,0.0,0.0,0.0,0.0,0.0,0.0,0.0,0.0,0.0,0.0,0.0,0.0,0.0,0.0,0.0,0.0,0.0,0.0,0.0,0.0,0.0,0.0,0.0,0.0,0.0,0.0,0.0,0.0,0.0,0.0,0.0,0.0,0.0,0.0,0.0,0.0,0.0,0.0,0.0,0.0,0.0,0.0,0.0,0.0,0.0,0.0,0.0,0.0,0.0,0.0,0.0,0.0,0.0,0.0,0.0,0.0,0.0,0.0,0.0,0.0,0.0,0.0,0.0,0.0,0.0,0.0,0.0,0.0,0.0,0.0,0.0,0.0,0.0,0.0,0.0,0.0,0.0,0.0,0.0,0.0,0.0,0.0,0.0,0.0,0.0,0.0,0.0,0.0,0.0,0.0,0.0,0.0,0.0,0.0,0.0,0.0,0.0,0.0,0.0,0.0,0.0,0.0,0.0,0.0,0.0,0.0,0.0,0.0,0.0,0.0,0.0,0.0,0.0,0.0,0.0,0.0,0.0,0.0,0.0,0.0,0.0,0.0,0.0,0.0,0.0,0.0,0.0,0.0,0.0,0.0,0.0,0.0,0.0,0.0,0.0,0.0,0.0,0.0,0.0,0.0,0.0,0.0,0.0,0.0,0.0,0.0,0.0,0.0,0.0,0.0,0.0,0.0,0.0,0.0,0.0,0.0,0.0,0.0,0.0,0.0,0.0,0.0,0.0,0.0,0.0,0.0,0.0,0.0,0.0,0.0,0.0,0.0,0.0,0.0,0.0,0.0,0.0,0.0,0.0,0.0,0.0,0.0,0.0,0.0,0.0,0.0,0.0,0.0,0.0,0.0,0.0,0.0,0.0,0.0,0.0,0.0,0.0,0.0,0.0,0.0,0.0,0.0,0.0,0.0,0.0,0.0,0.0,0.0,0.0,0.0,0.0,0.0,0.0,0.0,0.0,0.0,0.0,0.0,0.0,0.0,0.0,0.0,0.0,0.0,0.0,0.0,0.0,0.0,0.0,0.0,0.0,0.0,0.0,0.0,0.0,0.0,0.0,0.0,0.0,0.0,0.0,0.0,0.0,0.0,0.0,0.0,0.0,0.0,0.0,0.0,0.0,0.0,0.0,0.0,0.0,0.0,0.0,0.0,0.0,0.0,0.0,0.0,0.0,0.0,0.0,0.0,0.0,0.0,0.0,0.0,0.0,0.0,0.0,0.0,0.0,0.0,0.0,0.0,0.0,0.0,0.0,0.0,0.0,0.0,0.0,0.0,0.0,0.0,0.0,0.0,0.0,0.0,0.0,0.0,0.0,0.0,0.0,0.0,0.0,0.0,0.0,0.0,0.0,0.0,0.0,0.0,0.0,0.0,0.0,0.0,0.0,0.0,0.0,0.0,0.0,0.0,0.0,0.0,0.0,0.0,0.0,0.0,0.0,0.0,0.0,0.0,0.0,0.0,0.0,0.0,0.0,0.0,0.0,0.0,0.0,0.0,0.0,0.0,0.0,0.0,0.0,0.0,0.0,0.0,0.0,0.0,0.0,0.0,0.0,0.0,0.0,0.0,0.0,0.0,0.0,0.0,0.0,0.0,0.0,0.0,0.0,0.0,0.0,0.0,0.0,0.0,0.0,0.0,0.0,0.0,0.0,0.0,0.0,0.0,0.0,0.0,0.0,0.0,0.0,0.0,0.0,0.0,0.0,0.0,0.0,0.0,0.0,0.0,0.0,0.0,0.0,0.0,0.0,0.0,0.0,0.0,0.0,0.0,0.0,0.0,0.0,0.0,0.0,0.0,0.0,0.0,0.0,0.0,0.0,0.0,0.0,0.0,0.0,0.0,0.0,0.0,0.0,0.0,0.0,0.0,0.0,0.0,0.0,0.0,0.0,0.0,0.0,0.0,0.0,0.0,0.0,0.0,0.0,0.0,0.0,0.0,0.0,0.0,0.0,0.0,0.0,0.0,0.0,0.0,0.0,0.0,0.0,0.0,0.0,0.0,0.0,0.0,0.0,0.0,0.0,0.0,0.0,0.0,0.0,0.0,0.0,0.0,0.0,0.0,0.0,0.0,0.0,0.0,0.0,0.0,0.0,0.0,0.0,0.0,0.0,0.0,0.0,0.0,0.0,0.0,0.0,0.0,0.0,0.0,0.0,0.0,0.0,0.0,0.0,0.0,0.0,0.0,0.0,0.0,0.0,0.0,0.0,0.0,0.0,0.0,0.0,0.0,0.0,0.0,0.0,0.0,0.0,0.0,0.0,0.0,0.0,0.0,0.0,0.0,0.0,0.0,0.0,0.0,0.0,0.0,0.0,0.0,0.0,0.0,0.0,0.0,0.0,0.0,0.0,0.0,0.0,0.0,0.0,0.0,0.0,0.0,0.0,0.0,0.0,0.0,0.0,0.0,0.0,0.0,0.0,0.0,0.0,0.0,0.0,0.0,0.0,0.0,0.0,0.0,0.0,0.0,0.0,0.0,0.0,0.0,0.0,0.0,0.0,0.0,0.0,0.0,0.0,0.0,0.0,0.0,0.0,0.0,0.0,0.0,0.0,0.0,0.0,0.0,0.0,0.0,0.0,0.0,0.0,0.0,0.0,0.0,0.0,0.0,0.0,0.0,0.0,0.0,0.0,0.0,0.0,0.0,0.0,0.0,0.0,0.0,0.0,0.0,0.0,0.0,0.0,0.0,0.0,0.0,0.0,0.0,0.0,0.0,0.0,0.0,0.0,0.0,0.0,0.0,0.0,0.0,0.0,0.0,0.0,0.0,0.0,0.0,0.0,0.0,0.0,0.0,0.0,0.0,0.0,0.0,0.0,0.0,0.0,0.0,0.0,0.0,0.0,0.0,0.0,0.0,0.0,0.0,0.0,0.0,0.0,0.0,0.0,0.0,0.0,0.0,0.0,0.0,0.0,0.0,0.0,0.0,0.0,0.0,0.0,0.0,0.0,0.0,0.0,0.0,0.0,0.0,0.0,0.0,0.0,0.0,0.0,0.0,0.0,0.0,0.0,0.0,0.0,0.0,0.0,0.0,0.0,0.0,0.0,0.0,0.0,0.0,0.0,0.0,0.0,0.0,0.0,0.0,0.0,0.0,0.0,0.0,0.0,0.0,0.0,0.0,0.0,0.0,0.0,0.0,0.0,0.0,0.0,0.0,0.0,0.0,0.0,0.0,0.0,0.0,0.0,0.0,0.0,0.0,0.0,0.0,0.0,0.0,0.0,0.0,0.0,0.0,0.0,0.0,0.0,0.0,0.0,0.0,0.0,0.0,0.0,0.0,0.0,0.0,0.0,0.0,0.0,0.0,0.0,0.0,0.0,0.0,0.0,0.0,0.0,0.0,0.0,0.0,0.0,0.0,0.0,0.0,0.0,0.0,0.0,0.0,0.0,0.0,0.0,0.0,0.0,0.0,0.0,0.0,0.0,0.0,0.0,0.0,0.0,0.0,0.0,0.0,0.0,0.0,0.0,0.0,0.0,0.0,0.0,0.0,0.0,0.0,0.0,0.0,0.0,0.0,0.0,0.0,0.0,0.0,0.0,0.0,0.0,0.0,0.0,0.0,0.0,0.0,0.0,0.0,0.0,0.0,0.0,0.0,0.0,0.0,0.0,0.0,0.0,0.0,0.0,0.0,0.0,0.0,0.0,0.0,0.0,0.0,0.0,0.0,0.0,0.0,0.0,0.0,0.0,0.0,0.0,0.0,0.0,0.0,0.0,0.0,0.0,0.0,0.0,0.0,0.0,0.0,0.0,0.0,0.0,0.0,0.0,0.0,0.0,0.0,0.0,0.0,0.0,0.0,0.0,0.0,0.0,0.0,0.0,0.0,0.0,0.0,0.0,0.0,0.0,0.0,0.0,0.0,0.0,0.0,0.0,0.0,0.0,0.0,0.0,0.0,0.0,0.0,0.0,0.0,0.0,0.0,0.0,0.0,0.0,0.0,0.0,0.0,0.0,0.0,0.0,0.0,0.0,0.0,0.0,0.0,0.0,0.0,0.0,0.0,0.0,0.0,0.0,0.0,0.0,0.0,0.0,0.0,0.0,0.0,0.0,0.0,0.0,0.0,0.0,0.0,0.0,0.0,0.0,0.0,0.0,0.0,0.0,0.0,0.0,0.0,0.0,0.0,0.0,0.0,0.0,0.0,0.0,0.0,0.0,0.0,0.0,0.0,0.0,0.0,0.0,0.0,0.0,0.0,0.0,0.0,0.0,0.0,0.0,0.0,0.0,0.0,0.0,0.0,0.0,0.0,0.0,0.0,0.0,0.0,0.0,0.0,0.0,0.0,0.0,0.0,0.0,0.0,0.0,0.0,0.0,0.0,0.0,0.0,0.0,0.0,0.0,0.0,0.0,0.0,0.0,0.0,0.0,0.0,0.0,0.0,0.0,0.0,0.0,0.0,0.0,0.0,0.0,0.0,0.0,0.0,0.0,0.0,0.0,0.0,0.0,0.0,0.0,0.0,0.0,0.0,0.0,0.0,0.0,-4.0296,-4.0317,0.0,0.0,0.0,0.0,0.0,0.0,0.0,0.0,0.0,0.0,0.0,0.0,0.0,0.0,0.0,0.0,0.0,0.0,0.0,0.0,0.0,0.0,0.0,0.0,0.0,0.0,-3.4776,-3.4776,-3.4776,-3.4983,-3.5107,-3.5107,-3.5314,-3.5418,-3.5418,-3.5418,-3.5418,-3.5418,-3.5418,-3.5418,-3.5418,-3.5418,-3.5418,-3.5418,0.0,0.0,0.0,0.0,0.0,0.0,0.0,0.0,0.0,0.0,0.0,0.0,0.0,0.0,0.0,0.0,0.0,0.0,0.0,0.0,0.0,0.0,0.0,0.0,0.0,0.0,0.0,0.0,0.0,0.0,0.0,0.0,0.0,0.0,0.0,0.0,0.0,0.0,0.0,0.0,0.0,0.0,0.0,0.0,0.0,0.0,0.0,0.0,0.0,0.0,0.0,0.0,0.0,0.0,0.0,0.0,0.0,0.0,0.0,0.0,0.0,0.0,0.0,0.0,0.0,0.0,0.0,0.0,0.0,0.0,-4.106,-4.0791,0.0,0.0,0.0,0.0,0.0,0.0,0.0,0.0,0.0,0.0,0.0,0.0,0.0,0.0,0.0,0.0,0.0,0.0,0.0,0.0,0.0,0.0,0.0,0.0,-3.4546,-3.4152,-3.4132,-3.4132,-3.4132,-3.4484,-3.4691,-3.4691,-3.4983,-3.5231,-3.5314,-3.5314,-3.5335,-3.5418,-3.5418,-3.5418,-3.5418,-3.5418,-3.5418,0.0,0.0,0.0,0.0,0.0,0.0,0.0,0.0,0.0,0.0,0.0,0.0,0.0,0.0,0.0,0.0,0.0,0.0,0.0,0.0,0.0,0.0,0.0,0.0,0.0,0.0,0.0,0.0,0.0,0.0,0.0,0.0,0.0,0.0,0.0,0.0,0.0,0.0,0.0,0.0,0.0,0.0,0.0,0.0,0.0,0.0,0.0,0.0,0.0,0.0,0.0,0.0,0.0,0.0,0.0,0.0,0.0,0.0,0.0,0.0,0.0,0.0,0.0,0.0,0.0,-3.8587,-3.9217,-4.0601,-4.0305,-4.0718,-4.1762,-4.185,-4.1352,-4.0578,-4.1113,0.0,0.0,0.0,0.0,0.0,0.0,0.0,0.0,0.0,0.0,0.0,0.0,0.0,0.0,0.0,0.0,0.0,0.0,0.0,0.0,0.0,-3.4463,-3.4194,-3.4132,-3.4132,-3.4132,-3.4132,-3.4194,-3.4155,-3.4214,-3.4217,-3.4424,-3.4899,-3.492,-3.5045,-3.5418,-3.5418,-3.5418,-3.5418,-3.5418,0.0,0.0,0.0,0.0,0.0,0.0,0.0,0.0,0.0,0.0,0.0,0.0,0.0,0.0,0.0,0.0,0.0,0.0,0.0,0.0,0.0,0.0,0.0,0.0,0.0,0.0,0.0,0.0,0.0,0.0,0.0,0.0,0.0,0.0,0.0,0.0,0.0,0.0,0.0,0.0,0.0,0.0,0.0,0.0,0.0,0.0,-3.8191,-3.8191,0.0,0.0,0.0,0.0,0.0,0.0,0.0,0.0,0.0,0.0,0.0,0.0,0.0,-3.8482,-3.8191,-3.8769,-3.9078,-3.9165,-3.9502,-4.0137,-4.0977,-4.1036,-4.1374,-4.1895,-4.2284,0.0,-4.208,-4.1671,0.0,0.0,0.0,0.0,0.0,0.0,0.0,0.0,0.0,0.0,0.0,0.0,0.0,0.0,0.0,0.0,0.0,0.0,0.0,0.0,0.0,-3.4256,-3.3865,-3.3368,-3.3534,-3.3575,-3.3327,-3.3534,-3.3738,-3.3738,-3.3986,-3.4214,-3.4422,-3.4422,-3.459,-3.5045,-3.5293,-3.5418,-3.5418,0.0,0.0,0.0,0.0,0.0,0.0,0.0,0.0,0.0,0.0,0.0,0.0,0.0,0.0,0.0,0.0,0.0,0.0,0.0,0.0,0.0,0.0,0.0,0.0,0.0,0.0,0.0,0.0,0.0,0.0,0.0,0.0,0.0,0.0,0.0,0.0,0.0,0.0,0.0,0.0,0.0,0.0,0.0,0.0,0.0,0.0,-3.8191,-3.8191,-3.8191,-3.8191,-3.8191,0.0,0.0,0.0,0.0,0.0,0.0,0.0,0.0,0.0,-3.8191,-3.8304,-3.837,-3.8191,-3.8503,-3.8961,-3.9614,-3.9626,-4.0277,-4.1491,-4.1628,-4.1743,-4.193,-4.2144,-4.2382,-4.2488,-4.2003,-4.1594,-4.1381,0.0,0.0,0.0,0.0,-4.1048,-4.1296,0.0,0.0,0.0,0.0,0.0,0.0,0.0,0.0,0.0,0.0,0.0,0.0,-3.4339,-3.409,-3.3617,-3.2954,-3.3099,-3.3078,-3.269,-3.3037,-3.3203,-3.3203,-3.3534,-3.3782,-3.3945,-3.4069,-3.4297,-3.465,-3.5024,-3.5252,0.0,0.0,0.0,0.0,0.0,0.0,0.0,0.0,0.0,0.0,0.0,0.0,0.0,0.0,0.0,0.0,0.0,0.0,0.0,0.0,0.0,0.0,0.0,0.0,0.0,0.0,0.0,0.0,0.0,0.0,0.0,0.0,0.0,0.0,0.0,0.0,0.0,0.0,0.0,0.0,0.0,0.0,0.0,0.0,0.0,0.0,0.0,-3.8191,-3.8191,-3.8191,-3.8191,-3.8191,0.0,0.0,0.0,0.0,0.0,0.0,-3.8191,-3.8191,-3.8191,-3.8191,-3.8304,-3.8304,-3.8304,-3.8562,-3.9126,-4.0067,-3.9964,-4.0635,-4.2029,-4.1882,-4.1909,-4.2159,-4.2018,-4.2089,-4.23,-4.1877,-4.1523,-4.1167,-4.0954,-4.0944,-4.1048,-4.1048,-4.1338,-4.1752,0.0,0.0,0.0,0.0,0.0,0.0,0.0,0.0,0.0,0.0,0.0,-3.4816,-3.4795,-3.3986,-3.3389,-3.3348,-3.2996,-3.2747,-3.2669,-3.269,-3.2768,-3.2768,-3.2789,-3.2996,-3.341,-3.3844,-3.4132,-3.4173,0.0,0.0,0.0,0.0,0.0,0.0,0.0,0.0,0.0,0.0,0.0,0.0,0.0,0.0,0.0,0.0,0.0,0.0,0.0,0.0,0.0,0.0,0.0,0.0,0.0,0.0,0.0,0.0,0.0,0.0,0.0,0.0,0.0,0.0,0.0,0.0,0.0,0.0,0.0,0.0,0.0,0.0,0.0,0.0,0.0,0.0,0.0,0.0,0.0,0.0,0.0,-3.8191,-3.8191,0.0,0.0,0.0,0.0,-3.8191,-3.8191,-3.8191,-3.8191,-3.8191,-3.8191,-3.8191,-3.8503,-3.8681,-3.8681,-3.939,-4.0046,-4.0468,-4.0942,-4.1598,-4.2373,-4.1805,-4.1877,-4.2559,-4.2159,-4.1806,-4.1544,-4.1096,-4.1381,-4.1877,-4.1167,-4.1151,-4.1524,-4.1524,-4.1814,-4.2364,0.0,0.0,0.0,0.0,0.0,0.0,0.0,0.0,-3.5418,-3.5418,-3.5045,-3.4816,-3.4816,-3.4526,-3.409,-3.343,-3.3513,-3.3348,-3.2711,-3.2669,-3.2669,-3.2669,-3.2669,-3.2809,-3.2954,-3.3389,-3.3617,-3.3617,0.0,0.0,0.0,0.0,0.0,0.0,0.0,0.0,0.0,0.0,0.0,0.0,0.0,0.0,0.0,0.0,0.0,0.0,0.0,0.0,0.0,0.0,0.0,0.0,0.0,0.0,0.0,0.0,0.0,0.0,0.0,0.0,0.0,0.0,0.0,0.0,0.0,0.0,0.0,0.0,0.0,0.0,0.0,0.0,0.0,0.0,0.0,0.0,0.0,0.0,0.0,-3.8191,-3.8191,0.0,-3.8191,-3.8191,-3.8191,-3.8191,-3.8191,-3.8191,-3.8191,-3.8191,-3.8191,-3.8191,-3.8304,-3.8516,-3.8719,-3.929,-4.0074,-4.1011,-4.1443,-4.1834,-4.2113,-4.2446,-4.2321,-4.1898,-4.1947,-4.2089,-4.2159,-4.1239,-4.1025,-4.1331,-4.1357,-4.1421,-4.1607,-4.197,-4.229,-4.2704,0.0,0.0,0.0,0.0,0.0,0.0,0.0,0.0,-3.5418,-3.5418,-3.5169,-3.4983,-3.4983,-3.492,-3.4505,-3.3679,-3.38,-3.3513,-3.2731,-3.2669,-3.2669,-3.2669,-3.2669,-3.2669,-3.2669,-3.3016,-3.3161,0.0,0.0,0.0,0.0,0.0,0.0,0.0,0.0,0.0,0.0,0.0,0.0,0.0,0.0,0.0,-3.5418,0.0,0.0,0.0,0.0,0.0,0.0,0.0,0.0,0.0,0.0,0.0,0.0,0.0,0.0,0.0,0.0,0.0,0.0,0.0,0.0,0.0,0.0,0.0,0.0,0.0,0.0,0.0,0.0,0.0,0.0,0.0,0.0,0.0,0.0,-3.8191,-3.8191,-3.8191,-3.8191,-3.8191,-3.8191,-3.8191,-3.8191,-3.8191,-3.8191,-3.8191,-3.8191,-3.8191,-3.8258,-3.837,-3.8237,-3.8532,-3.9171,-3.9474,-4.0209,-4.1295,-4.1903,-4.214,-4.2229,-4.2721,-4.2532,-4.1686,-4.2018,-4.2229,-4.218,-4.1691,-4.1397,-4.1295,-4.1514,-4.1752,-4.2062,-4.2373,-4.2766,-4.3159,0.0,0.0,0.0,0.0,0.0,0.0,0.0,-3.5418,-3.5418,-3.5418,-3.5418,-3.5418,-3.5418,-3.5045,-3.465,-3.4194,-3.3658,-3.3223,-3.2731,-3.2747,-3.2669,-3.2669,-3.2669,-3.2669,-3.2669,-3.2669,0.0,0.0,0.0,0.0,0.0,0.0,0.0,0.0,0.0,0.0,0.0,0.0,0.0,0.0,0.0,0.0,-3.5418,0.0,0.0,0.0,0.0,0.0,0.0,0.0,0.0,0.0,0.0,0.0,0.0,0.0,0.0,0.0,0.0,0.0,0.0,0.0,0.0,0.0,0.0,0.0,0.0,0.0,0.0,0.0,0.0,0.0,0.0,0.0,0.0,0.0,-3.8191,-3.8191,-3.8191,-3.8191,-3.8191,-3.8191,-3.8191,-3.8191,-3.8191,-3.8191,-3.8191,-3.8191,-3.8191,-3.8191,-3.837,-3.8681,-3.8391,-3.8754,-3.9887,-4.0061,-4.0525,-4.1337,-4.2204,-4.2651,-4.2559,-4.2651,-4.237,-4.2018,-4.2441,-4.218,-4.1607,-4.2407,-4.2454,-4.2114,-4.1752,-4.2145,-4.2911,-4.2932,-4.3221,-4.3615,0.0,0.0,0.0,0.0,0.0,0.0,0.0,-3.5418,-3.5418,-3.5418,-3.5418,-3.5418,-3.5418,-3.5314,-3.5066,-3.4671,-3.4194,-3.3679,-3.3223,-3.2913,-3.2669,-3.2669,0.0,0.0,-3.2669,0.0,0.0,0.0,0.0,0.0,0.0,0.0,0.0,0.0,0.0,0.0,0.0,0.0,0.0,0.0,0.0,0.0,-3.5418,0.0,0.0,0.0,0.0,0.0,0.0,0.0,0.0,0.0,0.0,0.0,0.0,0.0,0.0,0.0,0.0,0.0,0.0,0.0,0.0,0.0,0.0,0.0,0.0,0.0,0.0,0.0,0.0,0.0,0.0,0.0,-3.8191,-3.8191,-3.8191,-3.8191,-3.8191,-3.8191,-3.8191,-3.8191,-3.8191,-3.8191,-3.8191,-3.8191,-3.8191,-3.8191,-3.8191,-3.8191,-3.8258,-3.8304,-3.8569,-3.8963,-3.9625,-4.0477,-4.1289,-4.1826,-4.2678,-4.2743,-4.2159,-4.2743,-4.2673,-4.2018,-4.2441,-4.2704,-4.2764,-4.239,-4.2616,-4.3057,-4.2687,-4.2704,-4.2952,-4.3304,-4.3511,-4.3615,0.0,0.0,0.0,0.0,0.0,0.0,0.0,-3.5418,-3.5418,-3.5418,-3.5418,-3.5418,-3.5418,-3.5418,-3.5252,-3.4857,-3.4401,-3.3865,-3.341,-3.2975,0.0,0.0,0.0,0.0,0.0,0.0,0.0,0.0,0.0,0.0,0.0,0.0,0.0,0.0,0.0,0.0,0.0,0.0,0.0,0.0,0.0,0.0,-3.5418,-3.5418,-3.5418,-3.5418,-3.5418,-3.5418,-3.5418,-3.5418,0.0,0.0,0.0,0.0,0.0,0.0,0.0,0.0,0.0,0.0,0.0,0.0,0.0,0.0,0.0,0.0,0.0,0.0,0.0,0.0,0.0,0.0,0.0,0.0,-3.8191,-3.8191,-3.8191,-3.8191,-3.8191,-3.8191,-3.8191,-3.8191,-3.8191,-3.8191,-3.8191,-3.8191,-3.8191,-3.8191,-3.8191,-3.8191,-3.8341,-3.8729,-3.8776,-3.9301,-4.0222,-4.0959,-4.148,-4.1806,-4.2743,-4.2813,-4.2018,-4.2813,-4.2883,-4.23,-4.2704,-4.2963,-4.3028,-4.2783,-4.3026,-4.3434,0.0,0.0,0.0,0.0,-4.3615,-4.3615,0.0,0.0,0.0,0.0,0.0,0.0,0.0,-3.5418,-3.5418,-3.5418,-3.5418,-3.5418,-3.5418,-3.5418,-3.5273,-3.492,-3.4422,-3.3865,-3.341,0.0,0.0,0.0,0.0,0.0,0.0,0.0,0.0,0.0,0.0,0.0,0.0,0.0,0.0,0.0,0.0,0.0,0.0,0.0,0.0,0.0,0.0,0.0,-3.5418,-3.5418,-3.5418,-3.5418,-3.5418,-3.5418,-3.5418,-3.5418,0.0,0.0,0.0,0.0,0.0,0.0,0.0,0.0,0.0,0.0,0.0,0.0,0.0,0.0,0.0,0.0,0.0,0.0,0.0,0.0,0.0,0.0,0.0,0.0,-3.8191,-3.8191,-3.8191,-3.8191,-3.8191,-3.8191,-3.8191,-3.8191,-3.8191,-3.8191,-3.8191,-3.8191,-3.8191,-3.8191,-3.8191,-3.8233,0.0,0.0,0.0,-3.9646,-4.1225,-4.1358,-4.1474,-4.1544,-4.2603,-4.2743,-4.2018,-4.2813,-4.2905,-4.2526,-4.3098,-4.3143,-4.2882,-4.3321,-4.3476,-4.3518,-4.3144,-4.3242,-4.3615,-4.3615,-4.3615,-4.3615,0.0,0.0,0.0,0.0,0.0,0.0,0.0,-3.5418,-3.5418,-3.5418,-3.5418,-3.5418,-3.5418,-3.5418,-3.5376,-3.5293,-3.4548,-3.3865,0.0,0.0,0.0,0.0,0.0,0.0,0.0,0.0,0.0,0.0,0.0,0.0,0.0,0.0,0.0,0.0,0.0,0.0,0.0,0.0,0.0,0.0,0.0,0.0,-3.5418,-3.5418,-3.5418,-3.5418,-3.5418,-3.5418,-3.5418,-3.5418,-3.5418,-3.5418,-3.5418,0.0,0.0,0.0,0.0,0.0,0.0,0.0,0.0,0.0,0.0,0.0,0.0,0.0,0.0,0.0,0.0,0.0,0.0,0.0,0.0,-3.8191,-3.8191,-3.8191,-3.8191,-3.8191,-3.8191,-3.8191,-3.8191,-3.8191,-3.8191,-3.8191,-3.8191,-3.8191,-3.8191,-3.8191,-3.8191,-3.8523,-3.8885,-3.9374,-3.9744,-4.0222,-4.092,-4.1559,-4.1841,-4.1877,-4.2441,0.0,-4.2018,-4.2511,-4.2514,-4.2234,-4.2964,-4.3507,-4.3795,-4.3594,-4.3515,-4.3546,-4.347,-4.3532,-4.3615,-4.3615,-4.3615,-4.3615,0.0,0.0,0.0,0.0,0.0,0.0,0.0,-3.5418,-3.5418,-3.5418,-3.5418,-3.5418,-3.5418,-3.5418,-3.5418,-3.5418,-3.4797,0.0,0.0,0.0,0.0,0.0,0.0,0.0,0.0,0.0,0.0,0.0,0.0,0.0,0.0,0.0,0.0,0.0,0.0,0.0,0.0,0.0,0.0,0.0,0.0,0.0,-3.5418,-3.5418,-3.5418,-3.5418,-3.5418,-3.5418,-3.5418,-3.5418,-3.5418,-3.5418,-3.5418,-3.5418,-3.5418,0.0,0.0,0.0,0.0,0.0,0.0,0.0,0.0,0.0,0.0,0.0,0.0,0.0,0.0,-3.8191,-3.8191,0.0,-3.8191,-3.8191,-3.8191,-3.8191,-3.8191,-3.8191,-3.8191,-3.8191,-3.8191,-3.8191,-3.8191,-3.8191,-3.8191,-3.8191,-3.837,-3.8474,-3.8502,-3.9067,-3.9469,-3.9792,-4.025,-4.0794,-4.1397,-4.182,-4.2089,-4.23,-4.2721,-4.2651,-4.23,-4.2959,-4.3126,-4.3028,-4.3738,-4.4065,-4.4071,-4.3706,-4.3559,-4.3615,-4.3843,-4.3767,-4.3615,-4.3615,-4.3615,-4.3615,0.0,0.0,0.0,0.0,0.0,0.0,0.0,-3.5418,-3.5418,-3.5418,-3.5418,-3.5418,-3.5418,-3.5418,-3.5376,-3.5293,0.0,0.0,0.0,0.0,0.0,0.0,0.0,0.0,0.0,0.0,0.0,0.0,0.0,0.0,0.0,0.0,0.0,0.0,0.0,0.0,0.0,0.0,0.0,0.0,0.0,0.0,-3.5418,-3.5418,-3.5418,-3.5418,-3.5418,-3.5418,-3.5418,-3.5418,-3.5418,-3.5418,-3.5418,-3.5418,-3.5418,-3.5418,-3.5418,0.0,0.0,0.0,0.0,0.0,0.0,0.0,0.0,-3.7715,-3.8088,-3.8171,-3.8191,-3.8191,-3.8191,-3.8191,-3.8191,-3.8191,-3.8191,-3.8191,-3.8191,-3.8191,-3.8191,-3.8191,-3.8237,-3.8237,-3.8191,-3.8237,-3.8304,-3.8304,-3.8566,-3.8796,-3.9036,-3.9698,-4.0209,-4.041,-4.0794,-4.1355,-4.2018,-4.2018,-4.2272,-4.271,-4.3013,-4.2986,-4.2791,-4.3534,-4.3916,-4.3831,-4.4552,-4.4496,-4.3996,-4.3924,-4.3767,-4.3615,-4.3995,-4.3919,-4.3615,-4.3691,-4.3691,-4.3615,0.0,0.0,0.0,0.0,0.0,0.0,0.0,0.0,-3.5418,-3.5418,-3.5418,-3.5418,-3.5418,-3.5418,-3.5273,0.0,0.0,0.0,0.0,0.0,0.0,0.0,0.0,0.0,0.0,0.0,0.0,0.0,0.0,0.0,0.0,0.0,0.0,0.0,0.0,0.0,0.0,0.0,0.0,0.0,0.0,0.0,-3.5418,-3.5418,-3.5418,-3.5418,-3.5418,-3.5418,-3.5418,-3.5418,-3.5418,-3.5418,-3.5418,-3.5418,-3.5418,-3.5418,0.0,-3.5418,-3.5418,-3.5418,-3.5438,-3.548,-3.5852,-3.6308,0.0,-3.7239,-3.7695,-3.8088,-3.8191,-3.8191,-3.8191,-3.8191,-3.8191,-3.8191,-3.8191,-3.8191,-3.8191,-3.8191,-3.8191,-3.8191,-3.8437,-3.857,-3.8258,-3.8503,-3.8615,-3.8615,-3.8724,-3.9062,-3.971,-4.0378,-4.0863,-4.1156,-4.165,-4.1884,-4.2018,-4.2018,-4.2443,-4.3206,-4.2942,-4.2941,-4.3346,-4.3751,-4.3863,-4.3605,-4.4806,-4.4666,-4.3684,-4.4407,-4.4201,-4.3615,-4.3615,-4.3615,-4.3615,-4.3974,-4.3919,-4.3615,0.0,0.0,0.0,0.0,0.0,0.0,0.0,0.0,0.0,0.0,-3.5418,-3.5418,-3.5418,-3.5418,-3.5252,0.0,0.0,0.0,0.0,0.0,0.0,0.0,0.0,0.0,0.0,0.0,0.0,0.0,0.0,0.0,0.0,0.0,0.0,0.0,0.0,0.0,0.0,0.0,0.0,0.0,0.0,0.0,-3.5418,-3.5418,-3.5418,-3.5418,-3.5418,-3.5418,0.0,0.0,-3.5418,-3.5418,-3.5418,-3.5418,-3.5418,-3.5418,-3.5418,0.0,-3.5418,-3.5541,-3.5665,-3.5418,-3.5894,-3.6498,-3.6765,-3.7156,-3.7632,-3.8088,-3.8191,-3.8191,-3.8191,-3.8191,-3.8191,-3.8191,-3.8191,-3.8191,-3.8191,-3.8191,-3.8237,-3.8503,-3.8615,-3.8549,-3.8237,-3.8503,-3.8786,-3.9059,-3.9134,-3.9626,-4.0631,-4.0965,-4.1304,-4.1699,-4.17,-4.1947,-4.237,-4.2366,-4.2814,-4.3649,-4.3501,-4.3665,-4.4098,-4.4306,-4.4599,-4.4955,-4.502,-4.473,-4.4277,-4.4125,-4.3919,-4.3615,-4.3843,-4.3843,-4.3615,-4.3767,-4.3767,-4.3615,0.0,0.0,0.0,0.0,0.0,0.0,0.0,0.0,0.0,0.0,-3.5418,-3.5418,-3.5418,-3.5418,0.0,0.0,0.0,0.0,0.0,0.0,0.0,0.0,0.0,0.0,0.0,0.0,0.0,0.0,0.0,0.0,0.0,0.0,0.0,0.0,0.0,0.0,0.0,0.0,0.0,0.0,0.0,0.0,-3.5418,-3.5418,-3.5418,-3.5418,-3.5418,-3.5418,0.0,0.0,-3.5418,-3.5418,-3.5418,-3.5418,-3.5418,-3.5418,-3.5418,-3.5418,-3.5418,-3.5603,-3.5726,-3.5603,-3.5936,-3.6394,-3.6979,-3.7182,-3.7532,-3.8312,-3.8325,-3.8258,-3.8304,-3.8237,-3.8191,-3.8191,-3.8191,-3.8191,-3.8191,-3.8191,-3.8304,-3.8549,-3.8615,-3.8549,-3.8237,-3.8674,-3.9151,-3.9488,-3.9761,-4.0319,-4.1273,-4.1561,-4.1726,-4.1877,-4.2096,-4.2302,-4.2493,-4.2892,-4.3336,-4.399,-4.4098,-4.4336,-4.4633,-4.4832,-4.5103,-4.548,-4.5106,-4.4805,-4.4579,-4.3995,-4.3767,-4.3767,-4.3995,-4.3843,-4.3615,-4.3615,-4.3615,-4.3615,0.0,0.0,0.0,0.0,0.0,0.0,0.0,0.0,0.0,0.0,0.0,0.0,0.0,0.0,0.0,0.0,0.0,0.0,0.0,0.0,0.0,0.0,0.0,0.0,0.0,0.0,0.0,0.0,0.0,0.0,0.0,0.0,0.0,0.0,0.0,0.0,0.0,0.0,0.0,0.0,0.0,0.0,-3.5418,-3.5418,-3.5418,-3.5418,-3.5418,0.0,0.0,0.0,-3.5418,-3.5418,-3.5418,-3.5418,0.0,-3.5418,-3.5418,-3.5418,-3.5418,-3.5418,-3.5479,-3.5809,-3.5685,-3.5873,-3.7403,-3.7253,-3.7268,-3.8843,-3.8636,-3.8304,-3.8615,-3.8437,-3.8191,-3.8191,-3.8191,-3.8191,-3.8191,-3.8191,-3.8191,-3.8191,-3.8503,-3.8549,-3.8237,-3.9168,-3.9845,-3.9866,-4.0763,-4.1273,-4.1295,-4.2091,-4.2208,-4.1544,-4.3034,-4.3271,-4.2123,-4.3312,-4.4001,-4.4103,-4.4525,-4.4687,-4.4838,-4.5234,-4.4934,-4.4277,-4.5031,-4.4955,-4.4201,-4.4201,-4.4201,-4.4125,-4.3767,-4.3615,-4.3615,-4.3615,-4.3615,-4.3615,0.0,0.0,0.0,0.0,0.0,0.0,0.0,0.0,0.0,0.0,0.0,0.0,0.0,0.0,0.0,0.0,0.0,0.0,0.0,0.0,0.0,0.0,0.0,0.0,0.0,0.0,0.0,0.0,0.0,0.0,0.0,0.0,0.0,0.0,0.0,0.0,0.0,0.0,0.0,0.0,0.0,0.0,-3.5418,-3.5418,-3.5418,-3.5418,0.0,0.0,0.0,0.0,0.0,-3.5418,-3.5418,-3.5418,-3.5418,-3.5418,-3.5418,-3.5418,-3.5665,-3.5911,-3.6116,-3.6178,-3.6512,-3.6977,-3.7361,-3.7741,-3.8077,-3.8444,-3.8503,-3.8503,-3.837,-3.8237,-3.8191,-3.8191,-3.8191,-3.8191,-3.8191,-3.8191,-3.8304,-3.8503,-3.8437,-3.8762,-3.9656,-3.9626,-3.9791,-4.0359,-4.0769,-4.1465,-4.2483,-4.2095,-4.211,-4.2603,-4.2486,-4.2648,-4.3292,-4.3559,-4.4102,-4.4884,-4.5314,-4.5456,-4.5181,-4.563,-4.548,-4.5031,-4.5256,-4.4955,-4.4201,-4.4201,-4.405,-4.3767,-4.3691,-4.3615,-4.3615,-4.3919,-4.403,-4.4029,0.0,0.0,0.0,0.0,0.0,0.0,0.0,0.0,0.0,0.0,0.0,0.0,0.0,0.0,0.0,0.0,0.0,0.0,0.0,0.0,0.0,0.0,0.0,0.0,0.0,0.0,0.0,0.0,0.0,0.0,0.0,0.0,0.0,0.0,0.0,0.0,0.0,0.0,0.0,0.0,0.0,0.0,-3.5418,-3.5418,-3.5418,0.0,0.0,0.0,0.0,0.0,0.0,-3.5418,-3.5418,-3.5418,-3.5418,-3.5418,-3.5479,-3.5603,-3.5665,-3.6055,-3.6423,-3.6423,-3.6886,-3.7481,-3.7784,-3.8188,-3.8592,-3.8861,-3.8814,-3.8681,-3.8702,-3.8458,-3.8258,-3.837,-3.8237,-3.8191,-3.8191,-3.8191,-3.8237,-3.8503,-3.8304,-3.8624,-3.9802,-3.9745,-4.0019,-4.1053,-4.1316,-4.186,-4.2721,-4.2321,-4.2407,-4.2981,-4.2792,-4.3039,-4.3716,-4.4197,-4.473,-4.5344,-4.5648,-4.548,-4.4955,-4.5704,-4.563,-4.4955,-4.5106,-4.488,-4.4428,-4.4277,-4.4154,-4.4093,-4.4093,-4.412,-4.4112,-4.4398,-4.453,-4.4484,0.0,0.0,0.0,0.0,0.0,0.0,0.0,0.0,0.0,0.0,0.0,0.0,0.0,0.0,0.0,0.0,0.0,0.0,0.0,0.0,0.0,0.0,0.0,0.0,0.0,0.0,0.0,0.0,0.0,0.0,0.0,0.0,0.0,0.0,0.0,0.0,0.0,0.0,0.0,0.0,0.0,0.0,-3.5418,-3.5418,0.0,0.0,0.0,0.0,0.0,0.0,0.0,-3.5418,-3.5418,-3.5418,-3.5418,-3.5418,-3.5603,-3.5809,-3.5541,-3.5932,-3.6361,-3.6444,-3.6784,-3.744,-3.8562,-3.8658,-3.8872,-3.9997,-3.9407,-3.888,-3.9494,-3.8835,-3.8304,-3.8615,-3.8437,-3.8191,-3.8191,-3.8191,-3.8191,-3.8191,-3.8191,-3.8357,-3.8833,-3.961,-4.0621,-4.1891,-4.2322,-4.2441,-4.2018,-4.2764,-4.3051,-4.2699,-4.3933,-4.4241,-4.3583,-4.5168,-4.5779,-4.5405,-4.5405,-4.5031,-4.4352,-4.548,-4.533,-4.4277,-4.4654,-4.4826,-4.4772,-4.4395,-4.4516,-4.4936,-4.4936,-4.4919,-4.5002,-4.4981,-4.5002,-4.5039,0.0,0.0,0.0,0.0,0.0,0.0,0.0,0.0,0.0,0.0,0.0,0.0,0.0,0.0,0.0,0.0,0.0,0.0,0.0,0.0,0.0,0.0,0.0,0.0,0.0,0.0,0.0,0.0,0.0,0.0,0.0,0.0,0.0,0.0,0.0,0.0,0.0,0.0,0.0,0.0,0.0,0.0,-3.5418,0.0,0.0,0.0,0.0,0.0,0.0,0.0,0.0,0.0,-3.5418,-3.5418,-3.5418,-3.5665,-3.5665,-3.5665,-3.6361,-3.63,-3.6324,-3.7403,-3.7649,-3.7868,-3.8743,-3.8959,-3.9061,-3.9123,-3.9078,-3.8946,-3.8636,-3.857,-3.8503,-3.837,-3.8258,-3.8191,-3.8191,-3.8191,-3.8191,-3.8191,-3.8191,-3.877,-4.0087,-4.014,-4.0907,-4.2714,-4.2726,-4.2441,-4.2018,-4.2784,-4.3234,-4.315,-4.3872,-4.4439,-4.4863,-4.5317,-4.548,-4.5405,-4.5405,-4.548,-4.5555,-4.5853,-4.548,-4.4654,-4.5106,-4.5093,-4.4879,-4.4726,-4.4999,-4.5362,-4.5128,-4.4956,-4.508,-4.5295,-4.5445,-4.5557,0.0,0.0,0.0,0.0,0.0,0.0,0.0,0.0,0.0,0.0,0.0,0.0,0.0,0.0,0.0,0.0,0.0,0.0,0.0,0.0,0.0,0.0,0.0,0.0,0.0,0.0,0.0,0.0,0.0,0.0,0.0,0.0,0.0,0.0,0.0,0.0,0.0,0.0,0.0,0.0,0.0,0.0,0.0,0.0,0.0,0.0,0.0,0.0,0.0,0.0,0.0,-3.5418,-3.5541,-3.5541,-3.5479,-3.5993,-3.5849,-3.5788,-3.6484,-3.6423,-3.6406,-3.7616,-3.782,-3.8061,-3.9044,-3.9347,-3.9428,-3.9407,-3.9407,-3.9363,-3.9165,-3.888,-3.8681,0.0,0.0,0.0,-3.8191,-3.8191,-3.8191,0.0,-3.8357,-3.8885,-4.0072,-4.0324,-4.0974,-4.2349,-4.237,-4.237,-4.2532,-4.3034,-4.345,-4.3881,-4.44,-4.4949,-4.5609,-4.55,-4.5405,-4.5405,-4.5405,-4.5405,-4.548,-4.563,-4.5405,-4.4805,-4.547,-4.5425,-4.4936,-4.5279,-4.558,-4.5607,-4.5607,-4.5574,-4.5581,-4.582,-4.5906,-4.5975,0.0,0.0,0.0,0.0,0.0,0.0,0.0,0.0,0.0,0.0,0.0,0.0,0.0,0.0,0.0,0.0,0.0,0.0,0.0,0.0,0.0,0.0,0.0,0.0,0.0,0.0,0.0,0.0,0.0,0.0,0.0,0.0,0.0,0.0,0.0,0.0,0.0,0.0,0.0,0.0,0.0,0.0,0.0,0.0,0.0,0.0,0.0,0.0,0.0,0.0,-3.548,-3.5418,-3.5726,-3.5603,-3.5541,-3.6178,-3.6116,-3.5993,-3.6425,-3.6508,-3.6635,-3.7582,-3.7782,-3.8082,-3.9409,-3.965,-3.9691,-4.0149,-3.9888,-3.9757,-4.0084,-3.9341,-3.8814,-3.9078,0.0,-3.8191,-3.8191,-3.8191,-3.8191,-3.8191,-3.8585,-3.904,-3.9564,-4.0299,-4.1039,-4.1502,-4.1806,-4.2343,-4.3132,-4.3284,-4.3853,-4.4757,-4.5194,-4.5535,-4.5928,-4.5555,-4.5405,-4.5405,-4.533,-4.5181,-4.4955,-4.5256,-4.5224,-4.5008,-4.5717,-4.5745,-4.5202,-4.5835,-4.6043,-4.6007,-4.6246,-4.6316,-4.6347,-4.6347,-4.6266,-4.6266,0.0,0.0,0.0,0.0,0.0,0.0,0.0,0.0,0.0,0.0,0.0,0.0,0.0,0.0,0.0,0.0,0.0,0.0,0.0,0.0,0.0,0.0,0.0,0.0,0.0,0.0,0.0,0.0,0.0,0.0,0.0,0.0,0.0,0.0,0.0,0.0,0.0,0.0,0.0,0.0,0.0,0.0,0.0,0.0,0.0,0.0,0.0,0.0,0.0,0.0,-3.5728,-3.5418,-3.5479,-3.5418,-3.5479,-3.587,-3.5932,-3.6118,-3.7117,-3.6997,-3.7022,-3.8825,-3.8402,-3.801,-3.978,-3.9474,0.0,-3.9691,-3.956,-3.9276,-3.9341,-3.9012,-3.8747,-3.8814,-3.8437,-3.8191,-3.8191,-3.8191,-3.8191,0.0,-3.8585,-3.9087,-3.9908,-4.0507,-4.1109,-4.1834,-4.1947,-4.2259,-4.2735,-4.3493,-4.443,-4.5718,-4.5849,-4.5766,-4.548,-4.5405,-4.5405,-4.5405,-4.5031,-4.5256,-4.5779,-4.5555,-4.5546,-4.5857,-4.5715,-4.5954,-4.6499,-4.5995,-4.6367,-4.7166,-4.6545,-4.6527,-4.6852,-4.6428,-4.6266,-4.6266,0.0,0.0,0.0,0.0,0.0,0.0,0.0,0.0,0.0,0.0,-3.8191,0.0,0.0,0.0,0.0,0.0,0.0,0.0,0.0,0.0,0.0,0.0,0.0,0.0,0.0,0.0,0.0,-3.5418,0.0,0.0,0.0,0.0,0.0,0.0,0.0,0.0,0.0,0.0,0.0,0.0,0.0,0.0,0.0,0.0,0.0,0.0,0.0,0.0,0.0,0.0,-3.6455,-3.6311,-3.5831,-3.5665,-3.5726,-3.63,-3.6347,-3.6517,-3.7536,-3.742,-3.734,-3.8915,-3.8508,-3.818,-3.9649,0.0,0.0,-3.9888,-3.9757,-3.956,-3.9735,-3.921,0.0,-3.8946,-3.8503,-3.8191,-3.8191,-3.8191,-3.8191,-3.8191,-3.8792,-3.9357,-3.9723,-4.0438,-4.108,-4.1735,-4.1754,-4.2057,-4.2627,-4.3547,-4.462,-4.598,-4.5779,-4.5704,-4.5704,-4.5704,-4.5704,-4.5704,-4.5106,-4.5256,-4.6002,-4.5589,-4.5674,-4.616,-4.6656,-4.6819,-4.6617,-4.6632,-4.6783,-4.6891,-4.6428,-4.6428,-4.659,-4.6347,-4.6266,-4.6266,0.0,0.0,0.0,0.0,0.0,0.0,0.0,0.0,-3.8191,-3.8191,-3.8191,-3.8191,-3.8191,-3.8191,0.0,0.0,0.0,0.0,0.0,0.0,0.0,0.0,0.0,0.0,0.0,0.0,0.0,-3.5418,-3.5418,0.0,0.0,0.0,0.0,0.0,-3.5521,0.0,0.0,0.0,0.0,0.0,0.0,0.0,0.0,0.0,0.0,0.0,0.0,0.0,0.0,0.0,-3.7143,-3.7189,-3.6415,-3.6226,-3.6267,-3.6737,-3.685,-3.7044,-3.7881,-3.7868,-3.789,-3.8809,-3.8592,-3.8416,-3.9474,-3.9428,0.0,-4.0149,-3.9953,-3.9757,-4.0214,0.0,-3.8747,0.0,-3.8636,-3.8191,-3.8191,-3.8191,-3.8191,0.0,-3.8978,0.0,-3.9468,-4.0344,-4.1096,-4.1473,-4.1761,-4.2261,-4.2946,-4.3973,-4.4965,-4.6002,-4.563,-4.5555,-4.5853,-4.5853,-4.5853,-4.5853,-4.5256,-4.5395,-4.6177,-4.5717,-4.5864,-4.6615,-4.7527,-4.7369,-4.6627,-4.7225,-4.7132,-4.659,-4.6347,-4.6428,-4.659,-4.6347,-4.6266,-4.6266,0.0,0.0,0.0,0.0,0.0,0.0,0.0,0.0,-3.8191,-3.8191,-3.8191,-3.8191,-3.8191,-3.8191,0.0,0.0,0.0,0.0,0.0,0.0,0.0,0.0,0.0,0.0,0.0,0.0,0.0,-3.5418,-3.5418,0.0,0.0,0.0,0.0,0.0,0.0,-3.6059,-3.608,0.0,0.0,0.0,0.0,0.0,0.0,0.0,0.0,0.0,0.0,0.0,0.0,0.0,0.0,-3.7473,-3.7231,-3.7191,-3.7107,-3.675,0.0,0.0,-3.793,-3.8401,-3.8895,-3.9105,-3.8882,-3.8816,-3.9538,0.0,-3.9407,-4.0149,-3.9757,-3.9473,-4.0149,-3.9165,-3.8437,-3.9078,0.0,-3.8191,-3.8191,-3.8191,-3.8191,-3.8191,0.0,0.0,-3.9468,-4.0344,-4.1096,-4.1473,-4.2581,-4.3477,-4.3954,-4.5135,-4.5884,-4.6002,-4.563,-4.5405,-4.548,-4.548,-4.548,-4.548,-4.5405,-4.5771,-4.6582,-4.5867,-4.6437,-4.7978,-4.7283,-4.7166,-4.747,-4.7132,-4.7234,-4.7373,-4.659,-4.6811,-4.7373,-4.659,-4.6266,-4.6266,0.0,0.0,0.0,0.0,0.0,0.0,0.0,-3.8191,-3.8191,-3.8191,-3.8191,-3.8191,-3.8191,-3.8191,0.0,0.0,0.0,0.0,0.0,0.0,0.0,0.0,0.0,0.0,0.0,0.0,-3.6432,-3.6246,-3.6246,0.0,0.0,0.0,0.0,0.0,0.0,-3.6535,-3.6535,0.0,0.0,0.0,0.0,0.0,0.0,0.0,0.0,0.0,0.0,0.0,0.0,0.0,0.0,0.0,-3.8057,-3.812,0.0,0.0,-3.7742,-3.8188,-3.825,-3.885,-3.9324,-3.897,-3.8946,-3.9078,-3.9363,0.0,-3.9144,-4.0084,-3.9538,-3.9078,-3.9822,-3.8967,-3.837,0.0,0.0,0.0,-3.8191,-3.8191,-3.8274,-3.8543,-3.9144,-3.9571,0.0,-4.051,-4.1182,-4.1887,-4.27,-4.3373,-4.4112,-4.4849,-4.5405,-4.563,-4.548,-4.5555,-4.5779,-4.5779,-4.5779,-4.5779,-4.5555,-4.589,-4.6669,-4.6189,-4.676,-4.8187,-4.7605,-4.7443,-4.7592,-4.7453,-4.7132,-4.6811,-4.6751,-4.6751,-4.6811,-4.6751,-4.6691,-4.6691,0.0,0.0,0.0,0.0,0.0,0.0,-3.8191,-3.8191,-3.8191,-3.8191,-3.8191,-3.8191,-3.8191,-3.8191,-3.8191,-3.8191,0.0,0.0,0.0,0.0,0.0,0.0,0.0,0.0,0.0,0.0,-3.6949,-3.6804,-3.6804,-3.6804,0.0,0.0,-3.6804,-3.6804,0.0,0.0,0.0,0.0,0.0,0.0,0.0,0.0,0.0,0.0,0.0,0.0,0.0,0.0,0.0,0.0,0.0,0.0,0.0,0.0,0.0,0.0,-3.8273,-3.8525,-3.846,-3.8976,-3.9428,-3.8681,-3.8814,-3.9078,0.0,0.0,-3.8946,-3.9822,-3.9276,-3.888,-3.9428,-3.8835,-3.8304,0.0,0.0,-3.8191,-3.8191,-3.8191,-3.8357,-3.8724,0.0,-3.9654,-4.0179,-4.0809,-4.1616,-4.2428,-4.2963,-4.3605,-4.431,-4.4654,-4.4955,-4.5181,-4.533,-4.5555,-4.5853,-4.5704,-4.5779,-4.6002,-4.5706,-4.6009,-4.6735,-4.6597,-4.7168,-4.817,-4.7783,-4.7592,-4.7592,-4.7592,-4.7213,-4.673,-4.6933,-4.6832,-4.673,-4.6912,-4.6933,-4.6852,0.0,0.0,0.0,0.0,0.0,0.0,0.0,-3.8191,-3.8191,-3.8191,-3.8191,-3.8191,-3.8191,-3.8191,-3.8191,-3.8191,0.0,0.0,0.0,0.0,0.0,0.0,0.0,0.0,0.0,0.0,-3.726,-3.6804,-3.6804,-3.6804,-3.6804,-3.6804,-3.6804,-3.6825,0.0,0.0,0.0,0.0,0.0,0.0,0.0,0.0,0.0,0.0,0.0,0.0,0.0,0.0,0.0,0.0,0.0,0.0,0.0,0.0,0.0,0.0,-3.8565,-3.8615,-3.8304,-3.8702,-3.9012,-3.837,-3.8437,-3.8681,0.0,0.0,-3.8814,-3.9144,-3.8946,-3.8814,-3.9144,-3.8636,-3.8304,-3.8681,0.0,0.0,-3.8191,-3.8191,-3.8357,0.0,0.0,-3.9654,-4.0179,-4.1334,-4.2333,-4.2868,-4.3648,-4.4262,-4.4784,-4.4805,-4.4805,-4.4805,-4.5181,-4.5405,-4.5405,-4.5031,-4.5181,-4.6002,-4.6031,-4.6376,-4.6773,-4.7246,-4.782,-4.8251,-4.7773,-4.7592,-4.7592,-4.7592,-4.7592,-4.7533,-4.7153,-4.7234,-4.7533,-4.7153,-4.6691,-4.6347,0.0,0.0,0.0,0.0,0.0,0.0,0.0,0.0,-3.8191,-3.8191,-3.8191,-3.8191,-3.8191,-3.8191,-3.8191,-3.8191,0.0,0.0,0.0,0.0,0.0,0.0,0.0,0.0,0.0,0.0,-3.7902,-3.7757,-3.7757,-3.7757,-3.7757,-3.7757,-3.7757,-3.7757,-3.7902,-3.7964,0.0,0.0,0.0,0.0,0.0,0.0,-3.8191,0.0,0.0,0.0,0.0,0.0,0.0,0.0,0.0,0.0,0.0,0.0,0.0,-3.8624,-3.8972,-3.9231,-3.8437,-3.9033,-3.9691,-3.8503,-3.8636,-3.8946,-3.8747,0.0,-3.8503,-3.9078,-3.8769,-3.8437,-3.8814,-3.8503,-3.8237,-3.8304,0.0,0.0,0.0,0.0,0.0,-3.9158,-3.9992,-4.051,-4.0655,-4.1357,-4.197,-4.2449,-4.2981,-4.3569,-4.4331,-4.4352,-4.4504,-4.4805,-4.5181,-4.5405,-4.5405,-4.5555,-4.5779,-4.6002,-4.6354,-4.6605,-4.6794,-4.7268,-4.782,-4.8251,-4.7773,-4.7592,-4.7592,-4.7933,-4.7715,-4.7234,-4.7373,-4.7293,-4.7234,-4.7373,-4.7153,-4.6832,0.0,0.0,0.0,0.0,0.0,0.0,0.0,0.0,-3.8191,-3.8191,-3.8191,-3.8191,-3.8191,-3.8191,-3.8191,-3.8191,0.0,0.0,0.0,0.0,0.0,0.0,0.0,0.0,0.0,-3.8191,-3.8191,-3.8191,-3.8191,-3.8191,-3.8191,-3.8191,-3.8191,-3.8191,-3.8191,-3.8191,0.0,0.0,0.0,0.0,0.0,0.0,-3.8191,0.0,0.0,0.0,0.0,0.0,0.0,0.0,0.0,0.0,0.0,0.0,0.0,0.0,-3.8967,-3.9297,0.0,-3.8901,-3.9494,-3.8437,-3.8636,-3.8946,0.0,0.0,0.0,-3.8769,-3.8503,-3.8237,-3.8503,-3.8304,-3.8191,-3.8191,-3.8191,0.0,0.0,0.0,0.0,-3.9433,0.0,0.0,-4.1131,-4.1545,-4.2094,-4.2698,-4.3156,-4.3682,-4.4428,-4.4277,-4.4352,-4.4805,-4.5181,-4.533,-4.5181,-4.5555,-4.5779,-4.5779,-4.6453,-4.6778,-4.6871,-4.7675,-4.8151,-4.8251,-4.7773,-4.7592,0.0,-4.7933,-4.7693,-4.7234,-4.7533,-4.7533,-4.7474,-4.7533,-4.7453,-4.7234,0.0,0.0,0.0,0.0,0.0,0.0,0.0,0.0,0.0,0.0,0.0,-3.8191,-3.8191,-3.8191,0.0,0.0,0.0,0.0,0.0,0.0,0.0,0.0,0.0,0.0,0.0,-3.8191,-3.8191,-3.8191,-3.8191,-3.8191,-3.8191,-3.8191,-3.8191,-3.8191,-3.8191,-3.8191,0.0,0.0,0.0,0.0,-3.8191,-3.8191,0.0,0.0,0.0,0.0,0.0,0.0,0.0,0.0,0.0,0.0,0.0,0.0,0.0,0.0,0.0,0.0,0.0,-3.8437,-3.8615,-3.8304,-3.8437,-3.8615,-3.8237,0.0,0.0,0.0,0.0,0.0,-3.8191,-3.8191,-3.8191,-3.8191,0.0,0.0,0.0,-3.8233,0.0,0.0,-4.0344,-4.1048,-4.1524,-4.1979,-4.2583,-4.3392,-4.3874,-4.4352,-4.473,-4.4352,-4.4352,-4.4805,-4.5181,-4.5181,-4.4805,-4.5256,-4.5405,-4.5405,-4.6474,-4.6871,-4.6871,-4.8235,-4.867,-4.8273,-4.7853,-4.7592,-4.7592,-4.7613,-4.7592,-4.7592,-4.7592,-4.7853,-4.8193,-4.7773,-4.7613,-4.7533,0.0,0.0,0.0,0.0,0.0,0.0,0.0,0.0,0.0,0.0,0.0,-3.8191,-3.8191,-3.8191,0.0,0.0,0.0,0.0,0.0,0.0,0.0,0.0,0.0,0.0,0.0,-3.8191,-3.8191,-3.8191,-3.8191,-3.8191,-3.8191,-3.8191,-3.8191,-3.8191,-3.8191,-3.8191,0.0,0.0,0.0,0.0,-3.8191,-3.8191,0.0,0.0,0.0,0.0,-3.8191,-3.8191,0.0,0.0,0.0,0.0,0.0,0.0,0.0,0.0,-3.8503,-3.8747,-3.8304,0.0,-3.8946,-3.837,-3.8437,-3.8615,0.0,0.0,0.0,0.0,0.0,0.0,0.0,0.0,0.0,0.0,0.0,-3.8191,-3.8191,0.0,0.0,-3.9972,-4.053,-4.1048,-4.1524,-4.1979,-4.2509,-4.304,-4.3497,-4.3919,-4.4277,-4.3995,-4.4222,-4.5256,-4.473,-4.4579,-4.4805,-4.548,-4.5704,-4.5427,-4.6703,-4.718,-4.6871,-4.8235,-4.867,-4.8273,-4.8172,-4.7933,-4.7592,-4.8012,-4.7933,-4.7592,-4.7592,-4.7693,-4.7773,-4.7613,-4.7373,-4.7153,0.0,0.0,0.0,0.0,0.0,0.0,0.0,0.0,0.0,0.0,0.0,0.0,0.0,0.0,0.0,0.0,0.0,0.0,0.0,0.0,0.0,0.0,0.0,0.0,-3.8191,-3.8191,-3.8191,-3.8191,-3.8191,-3.8191,-3.8191,-3.8191,-3.8191,-3.8191,-3.8398,-3.8378,-3.8191,-3.8398,-3.8378,-3.8191,-3.8191,0.0,0.0,0.0,0.0,0.0,-3.8191,-3.8191,0.0,-3.8191,-3.8191,-3.8191,0.0,0.0,0.0,0.0,-3.8304,-3.8437,-3.8258,-3.857,-3.8814,-3.8325,-3.8437,-3.8615,-3.8237,0.0,0.0,0.0,0.0,0.0,0.0,0.0,0.0,0.0,-3.8191,0.0,0.0,0.0,-3.9702,-4.0158,-4.0593,-4.1131,-4.1814,-4.2177,-4.2538,-4.318,-4.3622,-4.3919,-4.3898,-4.3898,-4.4277,-4.5106,-4.4504,-4.4352,-4.4805,-4.5405,-4.5555,-4.5127,-4.655,-4.718,-4.7202,-4.8157,-4.8591,-4.8591,-4.8172,-4.7853,-4.7592,-4.7853,-4.7693,-4.7373,-4.7533,-4.7773,-4.7933,-4.7672,-4.7693,-4.7874,0.0,0.0,0.0,0.0,0.0,0.0,0.0,0.0,0.0,0.0,0.0,0.0,0.0,0.0,0.0,0.0,0.0,0.0,0.0,0.0,0.0,0.0,0.0,-3.8191,-3.8191,-3.8191,-3.8191,-3.8191,-3.8191,-3.8191,-3.8191,-3.8191,-3.8212,-3.8316,-3.8688,-3.8688,-3.8419,-3.8792,-3.8688,-3.8295,-3.8295,0.0,0.0,0.0,0.0,0.0,0.0,0.0,0.0,-3.8191,-3.8191,-3.8191,-3.8191,0.0,0.0,0.0,0.0,0.0,-3.8191,-3.8437,-3.857,-3.8237,-3.8437,-3.8549,0.0,0.0,0.0,0.0,0.0,0.0,0.0,-3.8191,0.0,0.0,0.0,0.0,-3.8827,-3.9282,-3.9806,-4.0261,-4.0717,-4.1317,-4.226,-4.2384,-4.2704,-4.3553,-4.3919,-4.3995,-4.3615,-4.3898,-4.4277,-4.4805,-4.4352,-4.4352,-4.488,-4.5256,-4.5181,-4.4826,-4.6146,-4.7081,-4.7531,-4.8078,-4.8511,-4.8828,-4.8012,-4.7592,-4.7592,-4.7592,-4.7373,-4.7014,-4.7453,-4.7773,-4.8034,-4.7693,-4.8012,-4.8511,0.0,0.0,0.0,0.0,0.0,0.0,0.0,0.0,0.0,0.0,0.0,0.0,0.0,0.0,0.0,0.0,0.0,0.0,0.0,0.0,0.0,0.0,-3.8191,-3.8191,-3.8191,-3.8191,-3.8191,-3.8191,-3.8191,-3.8191,-3.8191,-3.8191,-3.8378,-3.8683,-3.8745,-3.8951,-3.9261,-3.9413,-3.9096,-3.8683,-3.8683,0.0,0.0,0.0,0.0,0.0,0.0,0.0,0.0,-3.8191,-3.8191,-3.8191,-3.8191,0.0,0.0,0.0,0.0,0.0,-3.8191,-3.8258,-3.8237,-3.8191,-3.8258,-3.8237,0.0,0.0,0.0,0.0,0.0,0.0,0.0,0.0,-3.8191,0.0,0.0,-3.8848,0.0,0.0,-4.0261,-4.0717,-4.1193,-4.1669,-4.2281,-4.26,-4.3035,-4.3573,-4.3691,-4.3691,-4.3615,-4.3691,-4.405,-4.4805,-4.405,-4.4201,-4.533,-4.5405,-4.5181,-4.4826,-4.6146,-4.7081,-4.7531,-4.8078,-4.8511,-4.8828,-4.8012,-4.7592,-4.7592,-4.7592,-4.7373,-4.7014,-4.7453,-4.7453,-4.7234,-4.7533,-4.7453,-4.7255,0.0,0.0,0.0,0.0,0.0,0.0,0.0,0.0,0.0,0.0,0.0,0.0,0.0,0.0,0.0,0.0,0.0,0.0,0.0,0.0,0.0,-3.8191,-3.8191,-3.8191,-3.8191,-3.8191,-3.8191,-3.8191,-3.8191,-3.8191,-3.8191,-3.844,-3.8579,-3.8807,-3.9302,-3.9509,-3.9488,-3.9736,-3.9571,-3.9137,0.0,0.0,0.0,0.0,0.0,0.0,0.0,0.0,0.0,0.0,-3.8191,-3.8191,-3.8191,0.0,0.0,0.0,0.0,0.0,-3.8191,-3.8191,-3.8191,-3.8191,-3.8191,-3.8191,0.0,0.0,0.0,0.0,0.0,0.0,0.0,0.0,-3.8191,-3.8191,0.0,-3.8951,-3.9406,-3.993,-4.0365,-4.082,-4.1276,-4.1752,-4.2281,-4.2663,-4.3118,-4.3573,-4.3615,-4.3615,-4.3615,-4.3615,-4.3843,-4.4428,-4.3919,-4.405,-4.5106,-4.5106,-4.5106,-4.5127,-4.6069,-4.685,-4.7531,-4.7741,-4.8172,-4.8511,-4.7853,-4.7453,-4.7314,-4.7533,-4.7213,-4.667,-4.7373,-4.7533,-4.7373,-4.7853,-4.7693,-4.7314,0.0,0.0,0.0,0.0,0.0,0.0,0.0,0.0,0.0,0.0,0.0,0.0,0.0,0.0,0.0,0.0,0.0,0.0,0.0,0.0,-3.8191,-3.8191,-3.8191,-3.8191,-3.8191,-3.8191,-3.8191,-3.8191,-3.8191,-3.8191,-3.8191,-3.8647,-3.8827,-3.8972,-3.9798,-4.0096,-3.9868,-4.022,-4.0054,-3.9447,0.0,0.0,0.0,0.0,0.0,0.0,0.0,0.0,0.0,0.0,0.0,0.0,0.0,0.0,0.0,-3.8191,-3.8191,-3.8191,-3.8191,-3.8191,-3.8191,-3.8191,0.0,0.0,0.0,0.0,0.0,0.0,0.0,0.0,0.0,-3.8191,0.0,-3.8316,-3.8709,-3.9096,-3.964,-4.0096,-4.0551,-4.0986,-4.1441,-4.1917,-4.2373,-4.2807,-4.3221,-4.3594,-4.3615,-4.3615,-4.3615,-4.3615,-4.3767,-4.4201,-4.3843,-4.405,-4.4955,-4.488,-4.4955,-4.5256,-4.5916,-4.6618,-4.7377,-4.7425,-4.7773,-4.8273,-4.7693,-4.7314,-4.7153,-4.7373,-4.7052,-4.6509,-4.7213,-4.7453,-4.7453,-4.7715,-4.7693,-4.7373,0.0,0.0,0.0,0.0,0.0,0.0,0.0,0.0,0.0,0.0,0.0,0.0,0.0,0.0,0.0,0.0,0.0,0.0,0.0,0.0,-3.8191,-3.8191,-3.8191,-3.8191,-3.8191,-3.8191,-3.8191,-3.8191,-3.8191,-3.8191,-3.8191,-3.8647,-3.9013,-3.9447,-4.0013,-4.0427,-4.0779,-4.082,-4.0323,-3.9468,-3.9426,0.0,0.0,0.0,0.0,0.0,0.0,0.0,0.0,0.0,0.0,0.0,0.0,0.0,-3.8191,-3.8191,-3.8191,-3.8191,-3.8191,-3.8191,-3.8191,-3.8191,-3.8191,0.0,-3.8191,-3.8191,0.0,-3.8191,0.0,0.0,0.0,-3.8191,-3.8316,-3.8662,-3.9117,-3.9571,-4.0046,-4.0551,-4.1007,-4.1462,-4.1917,-4.2373,-4.2828,-4.3284,-4.3573,-4.3615,-4.3615,-4.3615,-4.3615,-4.3615,-4.3767,-4.4201,-4.3843,-4.4125,-4.533,-4.4955,-4.4805,-4.4826,-4.5784,-4.6463,-4.6992,-4.6992,-4.7474,-4.8273,-4.7394,-4.7234,-4.7533,-4.7153,-4.7014,-4.6933,-4.7014,-4.7014,-4.7014,-4.659,-4.667,-4.7014,0.0,0.0,0.0,0.0,0.0,0.0,0.0,0.0,0.0,0.0,0.0,0.0,0.0,0.0,0.0,0.0,0.0,0.0,0.0,0.0,-3.8191,-3.8191,-3.8191,-3.8191,-3.8191,-3.8191,-3.8191,-3.8191,-3.846,-3.8585,-3.8605,-3.9351,-3.9785,-3.9992,-4.0427,-4.0717,-4.0882,-4.0882,-4.053,-3.9951,-3.9661,-3.9164,0.0,0.0,0.0,0.0,0.0,0.0,0.0,0.0,-3.8191,0.0,0.0,0.0,-3.8191,-3.8191,-3.8191,-3.8191,-3.8191,-3.8191,-3.8191,-3.8191,0.0,0.0,0.0,-3.8191,-3.8191,-3.8191,-3.8191,0.0,0.0,0.0,-3.8579,-3.8745,-3.9406,-4.0034,-4.0199,-4.0593,-4.1048,-4.1503,-4.1979,-4.2435,-4.287,-4.3346,-4.3615,-4.3615,-4.3615,-4.3615,-4.3615,-4.3615,-4.3691,-4.3843,-4.3691,-4.405,-4.5031,-4.4654,-4.4579,-4.4805,-4.5464,-4.6185,-4.6893,-4.689,-4.7257,-4.7853,-4.7533,-4.7132,-4.6811,-4.6912,-4.6852,-4.659,-4.6852,-4.7014,-4.7014,-4.6772,-4.6852,-4.6933,0.0,0.0,0.0,0.0,0.0,0.0,0.0,0.0,0.0,0.0,0.0,0.0,0.0,0.0,0.0,0.0,0.0,0.0,0.0,-3.8191,-3.8191,-3.8191,-3.8191,-3.8191,-3.8191,-3.8316,-3.8398,-3.8398,-3.8786,-3.8993,-3.9013,-3.9847,-4.022,-4.0241,-4.0675,-4.0882,-4.0862,-4.0737,-4.0427,-3.9972,-3.9447,-3.8972,0.0,0.0,0.0,0.0,0.0,0.0,0.0,0.0,0.0,0.0,0.0,0.0,0.0,0.0,-3.8191,-3.8191,-3.8191,-3.8191,-3.8191,0.0,0.0,0.0,0.0,-3.8191,-3.8191,-3.8191,-3.8295,-3.8398,-3.8398,0.0,0.0,-3.9199,-3.9736,-4.0282,-4.0406,-4.0696,-4.111,-4.1783,-4.2136,-4.2497,-4.3077,-4.3428,-4.3615,-4.3615,-4.3691,-4.3767,-4.3615,-4.3691,-4.3767,-4.3615,-4.3615,-4.3919,-4.4579,-4.4352,-4.4352,-4.4579,-4.5048,-4.5788,-4.6738,-4.6698,-4.7008,-4.7592,-4.7293,-4.6891,-4.6509,-4.6691,-4.659,-4.6347,-4.667,-4.6772,-4.6772,-4.6772,-4.6772,-4.6751,0.0,0.0,0.0,0.0,0.0,0.0,0.0,0.0,0.0,0.0,0.0,0.0,0.0,0.0,0.0,0.0,0.0,0.0,-3.8191,-3.8191,-3.8191,-3.8191,-3.8191,-3.8191,-3.8191,-3.8626,-3.8786,-3.8786,-3.9261,-3.9468,-3.9488,-4.0013,-4.0241,-4.0261,-4.0675,-4.0862,-4.0841,-4.0406,-3.9951,-3.9426,-3.8972,-3.8585,-3.8191,0.0,0.0,0.0,0.0,0.0,0.0,0.0,0.0,0.0,0.0,0.0,0.0,0.0,-3.8191,-3.8191,-3.8191,-3.8191,0.0,0.0,0.0,0.0,0.0,-3.8191,-3.8191,-3.8191,-3.8543,-3.8786,-3.8786,-3.9158,-3.9633,-4.0158,-4.0241,-4.0386,-4.082,-4.0882,-4.1234,-4.2219,-4.2343,-4.2621,-4.3532,-4.3615,-4.3615,-4.3615,-4.3974,-4.3974,-4.3615,-4.3995,-4.3995,-4.3615,-4.3615,-4.3767,-4.4201,-4.4201,-4.4201,-4.4201,-4.4579,-4.5316,-4.6273,-4.6327,-4.6791,-4.7512,-4.6649,-4.659,-4.6933,-4.6509,-4.6266,-4.6266,-4.6266,-4.6266,-4.6266,-4.6266,-4.6266,-4.6266,0.0,0.0,0.0,0.0,0.0,0.0,0.0,0.0,0.0,0.0,0.0,0.0,0.0,0.0,0.0,0.0,0.0,0.0,-3.8191,-3.8191,-3.8191,-3.8191,-3.8191,-3.8191,-3.8191,-3.8937,-3.9261,-3.9261,-3.9736,-4.0013,-4.0034,-4.0468,-4.0675,-4.0675,-4.051,-4.0427,-4.0386,-3.993,-3.9406,-3.8972,-3.8827,-3.8585,-3.8191,0.0,0.0,0.0,0.0,0.0,0.0,0.0,0.0,0.0,0.0,0.0,0.0,0.0,-3.8191,-3.8191,-3.8191,0.0,0.0,0.0,0.0,0.0,0.0,0.0,0.0,0.0,-3.8543,-3.8786,-3.8786,-3.9426,-4.0075,-4.0199,-4.0489,-4.0737,-4.0862,-4.1151,-4.1586,-4.226,-4.2538,-4.2952,-4.3553,-4.3615,-4.3615,-4.3615,-4.3691,-4.3767,-4.3615,-4.3691,-4.3691,-4.3615,-4.3615,-4.3767,-4.4201,-4.3919,-4.3919,-4.4201,-4.4277,-4.4689,-4.5377,-4.5919,-4.6384,-4.669,-4.6786,-4.667,-4.6509,-4.6347,-4.6266,-4.6266,-4.6266,-4.6266,-4.6266,-4.6266,-4.6266,-4.6266,0.0,0.0,0.0,0.0,0.0,0.0,0.0,0.0,0.0,0.0,-3.8191,-3.8191,0.0,0.0,0.0,0.0,0.0,0.0,0.0,0.0,-3.8191,-3.8191,-3.8191,-3.8357,-3.8709,-3.9268,-3.9702,-4.0075,-4.0344,-4.0489,-4.0489,-4.0758,-4.0779,-4.0613,-4.0344,-4.0137,-3.993,-3.9385,-3.9034,-3.8765,-3.8647,-3.8419,-3.8191,0.0,0.0,0.0,0.0,0.0,0.0,0.0,0.0,0.0,0.0,0.0,0.0,-3.8191,-3.8191,-3.8191,-3.8191,0.0,0.0,0.0,0.0,0.0,0.0,0.0,0.0,0.0,-3.8812,-3.9117,-3.9302,-3.9992,-4.0489,-4.0489,-4.0717,-4.0882,-4.0882,-4.1276,-4.1731,-4.2281,-4.2642,-4.3097,-4.3573,-4.3615,-4.3615,-4.3615,-4.3767,-4.3767,-4.3615,-4.3767,-4.3767,-4.3615,-4.3615,-4.3691,-4.3995,-4.3691,-4.3691,-4.3995,-4.4125,-4.4272,-4.4433,-4.5469,-4.6095,-4.6342,-4.6563,-4.659,-4.6266,-4.6266,-4.6266,-4.6266,-4.6266,-4.6266,-4.6266,-4.6266,-4.6266,-4.6266,0.0,0.0,-3.8191,-3.8191,0.0,0.0,0.0,0.0,0.0,0.0,-3.8191,-3.8191,0.0,0.0,0.0,0.0,0.0,0.0,0.0,0.0,-3.8191,-3.8191,-3.8191,-3.8585,-3.9385,-3.9406,-3.9889,-4.0758,-4.0841,-4.0862,-4.082,-4.082,-4.0593,-4.0088,-4.0116,-3.9868,-3.9385,-3.891,-3.8724,-3.8683,-3.8357,-3.8191,-3.8191,-3.8191,0.0,0.0,0.0,0.0,0.0,0.0,0.0,0.0,0.0,0.0,0.0,-3.8191,-3.8191,-3.8191,0.0,0.0,0.0,0.0,0.0,0.0,0.0,0.0,0.0,-3.8703,0.0,-3.9612,-4.0137,-4.0593,-4.0882,-4.0882,-4.0882,-4.0882,-4.0924,-4.1338,-4.1866,-4.2343,-4.2704,-4.3139,-4.3573,-4.3615,-4.3615,-4.3615,-4.3898,-4.3995,-4.3615,-4.3995,-4.3995,-4.3615,-4.3615,-4.3615,-4.3615,-4.3615,-4.3615,-4.3615,-4.3974,-4.3974,-4.3635,-4.4955,-4.588,-4.6325,-4.6322,-4.6266,-4.6266,-4.6266,-4.6266,-4.6266,-4.6266,-4.6266,-4.6266,-4.6266,-4.6266,-4.6266,0.0,0.0,-3.8191,-3.8191,0.0,0.0,0.0,0.0,0.0,0.0,0.0,0.0,0.0,-3.8191,0.0,0.0,0.0,0.0,0.0,0.0,-3.8191,-3.8191,-3.8191,-3.844,-3.891,-3.8931,-3.9199,-3.9827,-4.053,-4.0696,-4.0365,-4.0365,-4.0116,-3.9592,-3.9241,-3.9034,-3.8889,-3.8523,-3.8336,-3.8316,-3.8212,-3.8191,-3.8191,-3.8191,-3.8191,0.0,0.0,0.0,0.0,0.0,0.0,0.0,0.0,-3.8191,-3.8191,-3.8191,-3.8191,0.0,0.0,0.0,0.0,0.0,0.0,0.0,0.0,0.0,0.0,-3.8765,-3.9158,-3.9612,-4.0137,-4.0593,-4.0882,-4.0882,-4.0882,-4.1007,-4.1358,-4.1814,-4.2269,-4.2725,-4.318,-4.3511,-4.3594,-4.3615,-4.3615,-4.3615,-4.3691,-4.3691,-4.3615,-4.3691,-4.3691,-4.3615,-4.3615,-4.3615,-4.3615,-4.3615,-4.3615,-4.3615,-4.3691,-4.3691,-4.3635,-4.4955,-4.5832,-4.6283,-4.6306,-4.6266,-4.6266,-4.6266,-4.6266,-4.6266,-4.6266,-4.6266,-4.6266,-4.6266,-4.6266,-4.6266,0.0,0.0,0.0,0.0,0.0,0.0,0.0,0.0,0.0,0.0,0.0,0.0,0.0,-3.8191,0.0,0.0,-3.8191,0.0,0.0,0.0,-3.8191,-3.8191,-3.8191,-3.8398,-3.8765,-3.8786,-3.9013,-3.9468,-4.0013,-4.0116,-3.9819,-3.9819,-3.9571,-3.9137,-3.8889,-3.8662,-3.8523,-3.8274,-3.8191,-3.8191,-3.8191,-3.8191,-3.8191,-3.8191,-3.8191,-3.8191,-3.8191,0.0,0.0,0.0,0.0,0.0,0.0,0.0,-3.8191,-3.8191,-3.8191,-3.8191,0.0,0.0,0.0,0.0,0.0,0.0,0.0,0.0,0.0,-3.9055,-3.9468,-4.0013,-4.0448,-4.0717,-4.0882,-4.0882,-4.0882,-4.1027,-4.1503,-4.2032,-4.2414,-4.287,-4.3325,-4.3615,-4.3615,-4.3615,-4.3615,-4.3615,-4.3615,-4.3615,-4.3615,-4.3615,-4.3615,-4.3615,-4.3615,-4.3615,-4.3615,-4.3615,-4.3615,-4.3615,-4.3615,-4.3718,-4.3967,-4.4904,-4.5612,-4.6037,-4.6264,-4.6266,-4.6266,-4.6266,-4.6266,-4.6266,-4.6266,-4.6266,-4.6266,-4.6266,-4.6266,-4.6266,0.0,0.0,0.0,0.0,0.0,0.0,0.0,0.0,0.0,0.0,0.0,0.0,0.0,0.0,-3.8191,0.0,0.0,0.0,0.0,-3.8191,-3.8191,-3.8191,-3.8191,-3.8357,-3.8662,-3.8662,-3.8916,-3.9309,-3.9309,-3.9309,-3.9309,-3.9323,-3.9096,-3.8662,-3.8662,-3.8523,-3.8191,-3.8191,-3.8191,-3.8191,-3.8191,-3.8191,-3.8191,-3.8191,-3.8191,-3.8191,-3.8191,-3.8191,-3.8191,-3.8191,0.0,0.0,0.0,0.0,-3.8191,-3.8191,-3.8191,-3.8191,0.0,0.0,0.0,0.0,0.0,0.0,0.0,0.0,0.0,-3.9488,-3.9902,-4.0365,-4.08,-4.0882,-4.0882,-4.0882,-4.0944,-4.1151,-4.1628,-4.2083,-4.2538,-4.2994,-4.3387,-4.3615,-4.3615,-4.3615,-4.3615,-4.3615,-4.3615,-4.3615,-4.3615,-4.3615,-4.3615,-4.3615,-4.3615,-4.3615,-4.3615,-4.3615,-4.3615,-4.3615,-4.3615,-4.3801,-4.4194,-4.4753,-4.525,-4.5705,-4.6161,-4.6266,-4.6266,-4.6266,-4.6266,-4.6266,-4.6266,-4.6266,-4.6266,-4.6266,-4.6266,-4.6266,0.0,0.0,0.0,0.0,0.0,0.0,0.0,0.0,0.0,0.0,-3.8191,-3.8191,0.0,0.0,0.0,-3.8191,-3.8191,0.0,-3.8191,0.0,0.0,-3.8191,-3.8191,-3.8212,-3.8274,-3.8274,-3.8316,-3.8357,-3.8357,-3.8357,0.0,-3.8771,-3.8709,-3.8274,-3.8274,-3.8233,-3.8191,-3.8191,-3.8191,-3.8191,-3.8191,-3.8191,-3.8191,-3.8191,-3.8191,-3.8191,-3.8191,-3.8191,-3.8191,-3.8191,-3.8191,0.0,0.0,0.0,-3.8191,-3.8191,-3.8191,0.0,0.0,0.0,0.0,0.0,0.0,0.0,0.0,0.0,0.0,0.0,-4.0179,-4.0365,-4.08,-4.0882,-4.0882,-4.0882,-4.1214,-4.1628,-4.2177,-4.2559,-4.3014,-4.347,-4.3573,-4.3615,-4.3615,-4.3615,-4.3615,-4.3615,-4.3615,-4.3615,-4.3615,-4.3615,-4.3615,-4.3615,-4.3615,-4.3615,-4.3615,-4.3615,-4.3615,-4.3615,-4.3615,-4.3635,-4.3739,-4.4588,-4.525,-4.5705,-4.6161,-4.6266,-4.6266,-4.6266,-4.6266,-4.6266,-4.6266,-4.6266,-4.6266,-4.6266,-4.6266,-4.6266,0.0,0.0,0.0,0.0,0.0,0.0,0.0,0.0,0.0,0.0,0.0,-3.8191,0.0,0.0,0.0,0.0,0.0,0.0,-3.8191,-3.8191,0.0,-3.8191,-3.8191,-3.8191,-3.8191,-3.8191,-3.8191,-3.8191,-3.8191,0.0,0.0,-3.8378,-3.8378,-3.8191,-3.8191,-3.8191,-3.8191,-3.8191,-3.8191,-3.8191,-3.8191,-3.8191,-3.8191,-3.8191,-3.8191,-3.8191,-3.8191,-3.8191,-3.8191,-3.8191,-3.8191,-3.8191,-3.8191,0.0,0.0,0.0,-3.8191,0.0,0.0,0.0,0.0,0.0,0.0,0.0,0.0,0.0,-3.9592,-4.0116,-4.0406,-4.0655,-4.0841,-4.0882,-4.0882,-4.0882,-4.1255,-4.1731,-4.226,-4.2642,-4.3097,-4.3553,-4.3615,-4.3615,-4.3615,-4.3615,-4.3615,-4.3615,-4.3615,-4.3615,-4.3615,-4.3615,-4.3615,-4.3615,-4.3615,-4.3615,-4.3615,-4.3615,-4.3615,-4.3615,-4.3615,-4.3615,-4.3635,-4.4567,-4.5105,-4.5333,-4.6037,-4.6266,-4.6266,-4.6266,-4.6266,-4.6266,-4.6266,-4.6266,-4.6266,-4.6266,-4.6266,-4.6266,0.0,0.0,0.0,0.0,0.0,0.0,0.0,0.0,0.0,0.0,0.0,0.0,0.0,0.0,0.0,0.0,0.0,0.0,-3.8191,0.0,0.0,-3.8191,-3.8191,-3.8191,-3.8191,-3.8191,-3.8191,-3.8191,0.0,0.0,-3.8191,-3.8191,-3.8191,-3.8191,-3.8191,-3.8191,-3.8191,-3.8191,-3.8191,-3.8191,-3.8191,-3.8191,-3.8191,-3.8191,-3.8191,-3.8191,-3.8191,-3.8191,-3.8191,-3.8191,-3.8191,-3.8212,-3.8316,-3.8357,0.0,0.0,0.0,0.0,0.0,0.0,0.0,0.0,0.0,0.0,0.0,0.0,-3.9847,0.0,-4.0634,-4.0882,-4.0882,-4.0882,-4.0882,-4.0882,-4.1358,-4.1928,-4.2281,-4.2745,-4.3221,-4.3573,-4.3615,-4.3615,-4.3615,-4.3615,-4.3615,-4.3615,-4.3615,-4.3615,-4.3615,-4.3615,-4.3615,-4.3615,-4.3615,-4.3615,-4.3615,-4.3615,-4.3615,-4.3615,-4.3615,-4.3615,-4.3635,-4.4567,-4.5002,-4.5043,-4.5954,-4.6266,-4.6266,-4.6266,-4.6266,-4.6266,-4.6266,-4.6266,-4.6266,-4.6266,-4.6266,-4.6266,0.0,0.0,0.0,0.0,0.0,0.0,0.0,0.0,0.0,0.0,0.0,0.0,0.0,-3.8191,-3.8191,-3.8191,0.0,0.0,0.0,0.0,0.0,-3.8191,-3.8191,0.0,-3.8191,-3.8191,0.0,0.0,0.0,0.0,-3.8191,-3.8191,-3.8191,-3.8191,-3.8191,-3.8191,-3.8191,-3.8191,-3.8191,-3.8191,-3.8191,-3.8191,-3.8191,-3.8191,-3.8191,-3.8191,-3.8191,-3.8191,-3.8191,-3.8191,-3.8191,-3.8253,-3.8688,-3.8745,-3.8827,0.0,0.0,0.0,0.0,0.0,0.0,0.0,0.0,0.0,0.0,0.0,-4.0323,-4.0758,-4.0862,-4.0882,-4.0882,-4.0882,-4.0882,-4.0882,-4.1628,-4.2302,-4.2322,-4.3014,-4.3594,-4.3615,-4.3615,-4.3615,-4.3615,-4.3615,-4.3615,-4.3615,-4.3615,-4.3615,-4.3615,-4.3615,-4.3615,-4.3615,-4.3615,-4.3615,-4.3615,-4.3615,-4.3615,-4.3615,-4.3615,-4.3615,-4.3635,-4.4567,-4.5002,-4.5043,-4.5954,-4.6266,-4.6266,-4.6266,-4.6266,-4.6266,-4.6266,-4.6266,-4.6266,-4.6266,-4.6266,-4.6266,0.0,0.0,0.0,0.0,0.0,0.0,0.0,0.0,0.0,0.0,0.0,0.0,0.0,-3.8191,-3.8191,-3.8191,-3.8191,0.0,0.0,0.0,0.0,-3.8191,-3.8191,-3.8191,-3.8191,-3.8191,0.0,0.0,0.0,-3.8191,-3.8191,-3.8191,-3.8191,-3.8191,-3.8191,-3.8191,-3.8191,-3.8191,-3.8191,-3.8191,-3.8191,-3.8191,-3.8191,-3.8191,-3.8191,-3.8191,-3.8191,-3.8191,-3.8191,-3.8191,-3.8378,-3.8647,-3.8724,-3.8993,-3.9261,-3.9426,-3.9468,0.0,0.0,0.0,0.0,0.0,0.0,0.0,0.0,-4.0096,-4.0323,-4.0779,-4.0882,-4.0882,-4.0882,-4.0882,-4.0882,-4.0882,-4.1648,-4.2322,-4.2322,-4.3035,-4.3615,-4.3615,-4.3615,-4.3615,-4.3615,-4.3615,-4.3615,-4.3615,-4.3615,-4.3615,-4.3615,-4.3615,-4.3615,-4.3615,-4.3615,-4.3615,-4.3615,-4.3615,-4.3615,-4.3615,-4.3615,-4.3615,-4.3635,-4.4567,-4.5002,-4.5043,-4.5954,-4.6266,-4.6266,-4.6266,-4.6266,-4.6266,-4.6266,-4.6266,-4.6266,-4.6266,-4.6266,-4.6266,0.0,0.0,0.0,0.0,0.0,0.0,0.0,0.0,0.0,0.0,0.0,0.0,0.0,0.0,-3.8191,-3.8191,-3.8191,-3.8191,-3.8191,-3.8191,-3.8191,-3.8191,-3.8191,-3.8191,-3.8191,0.0,0.0,0.0,0.0,0.0,0.0,-3.8191,-3.8191,-3.8191,-3.8191,-3.8191,-3.8191,-3.8191,-3.8191,-3.8191,-3.8191,-3.8191,-3.8191,-3.8191,-3.8191,-3.8191,-3.8191,-3.8191,-3.8191,-3.8191,-3.8481,-3.8807,-3.8972,-3.9495,-3.9992,-3.9992,-3.9992,-3.9951,-3.9806,0.0,0.0,0.0,0.0,0.0,0.0,0.0,-4.051,-4.082,-4.0882,-4.0882,-4.0882,-4.0882,-4.0882,-4.0882,-4.1648,-4.2322,-4.2322,-4.3035,-4.3615,-4.3615,-4.3615,-4.3615,-4.3615,-4.3615,-4.3615,-4.3615,-4.3615,-4.3615,-4.3615,-4.3615,-4.3615,-4.3615,-4.3615,-4.3615,-4.3615,-4.3615,-4.3615,-4.3615,-4.3615,-4.3615,-4.3635,-4.4567,-4.5002,-4.5043,-4.5954,-4.6266,-4.6266,-4.6266,-4.6266,-4.6266,-4.6266,-4.6266,-4.6266,-4.6266,-4.6266,-4.6266,0.0,0.0,0.0,0.0,0.0,0.0,0.0,0.0,0.0,-3.8191,0.0,0.0,0.0,0.0,0.0,-3.8191,-3.8191,-3.8191,-3.8191,-3.8191,-3.8191,-3.8191,0.0,0.0,0.0,0.0,0.0,0.0,0.0,0.0,0.0,0.0,-3.8191,-3.8191,-3.8191,-3.8191,-3.8191,-3.8191,-3.8191,-3.8191,-3.8191,-3.8191,-3.8191,-3.8191,-3.8191,-3.8191,-3.8191,-3.8191,-3.8191,-3.8191,-3.8502,-3.8889,-3.9364,-4.0179,-4.0882,-4.0882,-4.0882,-4.0779,0.0,0.0,0.0,0.0,0.0,0.0,-4.0241,0.0,-4.0882,-4.0882,-4.0882,-4.0882,-4.0882,-4.0882,-4.0882,-4.0882,-4.1648,-4.2322,-4.2322,-4.3035,-4.3615,-4.3615,-4.3615,-4.3615,-4.3615,-4.3615,-4.3615,-4.3615,-4.3615,-4.3615,-4.3615,-4.3615,-4.3615,-4.3615,-4.3615,-4.3615,-4.3615,-4.3615,-4.3615,-4.3615,-4.3615,-4.3615,-4.3635,-4.4567,-4.5002,-4.5043,-4.5954,-4.6266,-4.6266,-4.6266,-4.6266,-4.6266,-4.6266,-4.6266,-4.6266,-4.6266,-4.6266,-4.6266,0.0,0.0,0.0,0.0,0.0,0.0,0.0,0.0,0.0,0.0,0.0,0.0,-3.8191,-3.8191,-3.8191,-3.8191,-3.8191,-3.8191,-3.8191,-3.8191,-3.8191,-3.8191,0.0,0.0,0.0,0.0,0.0,0.0,0.0,0.0,0.0,0.0,0.0,-3.8191,-3.8191,-3.8191,-3.8191,-3.8191,-3.8191,-3.8191,-3.8191,-3.8191,-3.8191,-3.8191,-3.8191,-3.8191,-3.8191,-3.8191,-3.8233,-3.8564,-3.891,-3.9406,-4.0261,-4.0675,-4.0882,-4.0882,-4.0882,-4.0841,-4.0737,0.0,0.0,0.0,0.0,0.0,-4.0696,-4.08,-4.0882,-4.0882,-4.0882,-4.0882,-4.0882,-4.0882,-4.0882,-4.0882,-4.1648,-4.2322,-4.2322,-4.3035,-4.3615,-4.3615,-4.3615,-4.3615,-4.3615,-4.3615,-4.3615,-4.3615,-4.3615,-4.3615,-4.3615,-4.3615,-4.3615,-4.3615,-4.3615,-4.3615,-4.3615,-4.3615,-4.3615,-4.3615,-4.3615,-4.3615,-4.3635,-4.4567,-4.5002,-4.5043,-4.5954,-4.6266,-4.6266,-4.6266,-4.6266,-4.6266,-4.6266,-4.6266,-4.6266,-4.6266,-4.6266,-4.6308,0.0,0.0,0.0,0.0,0.0,0.0,0.0,0.0,0.0,0.0,0.0,0.0,-3.8191,-3.8191,-3.8191,-3.8191,-3.8191,-3.8191,-3.8191,-3.8191,-3.8191,-3.8191,0.0,0.0,0.0,0.0,0.0,0.0,0.0,0.0,0.0,0.0,0.0,0.0,-3.8191,-3.8191,-3.8191,-3.8191,-3.8191,-3.8191,-3.8191,-3.8191,-3.8191,-3.8191,-3.8191,-3.8212,-3.8398,-3.846,-3.8523,-3.891,-3.9364,-3.9951,-4.0655,-4.0882,-4.0882,-4.0882,-4.0882,-4.0882,-4.0882,-4.0882,-4.0882,-4.0882,0.0,0.0,-4.0882,-4.0882,-4.0882,-4.0882,-4.0882,-4.0882,-4.0882,-4.0882,-4.0882,-4.0882,-4.1483,-4.2115,-4.2302,-4.287,-4.3387,-4.3594,-4.3615,-4.3615,-4.3615,-4.3615,-4.3615,-4.3615,-4.3615,-4.3615,-4.3615,-4.3615,-4.3615,-4.3615,-4.3615,-4.3615,-4.3615,-4.3615,-4.3615,-4.3615,-4.3615,-4.3615,-4.3635,-4.4567,-4.5002,-4.5043,-4.5954,-4.6266,-4.6266,-4.6266,-4.6266,-4.6266,-4.6266,-4.6266,-4.6266,-4.6266,-4.6266,-4.6328,0.0,0.0,-3.8191,-3.8191,-3.8191,0.0,0.0,0.0,0.0,0.0,0.0,0.0,-3.8191,-3.8191,-3.8191,-3.8191,-3.8191,-3.8191,-3.8191,-3.8191,-3.8191,0.0,0.0,0.0,0.0,0.0,0.0,0.0,0.0,0.0,0.0,0.0,0.0,0.0,-3.8191,-3.8191,-3.8191,-3.8191,-3.8191,-3.8191,-3.8191,-3.8191,-3.8191,-3.8191,-3.8212,-3.8316,-3.8709,-3.8807,-3.8931,-3.9385,-3.993,-4.0365,-4.0758,-4.0882,-4.0882,-4.0882,-4.0882,-4.0882,-4.0882,-4.0882,-4.0882,-4.0882,-4.0882,0.0,-4.0882,-4.0882,-4.0882,-4.0882,-4.0882,-4.0882,-4.0882,-4.0882,-4.0882,-4.0882,-4.1214,-4.1669,-4.226,-4.2642,-4.3097,-4.3553,-4.3615,-4.3615,-4.3615,-4.3615,-4.3615,-4.3615,-4.3615,-4.3615,-4.3615,-4.3615,-4.3615,-4.3615,-4.3615,-4.3615,-4.3615,-4.3615,-4.3615,-4.3615,-4.3615,-4.3615,-4.3635,-4.4567,-4.5002,-4.5043,-4.5954,-4.6266,-4.6266,-4.6266,-4.6266,-4.6266,-4.6266,-4.6266,-4.6266,-4.6266,-4.6287,-4.6411,-3.8191,-3.8191,-3.8191,-3.8191,0.0,0.0,0.0,0.0,0.0,0.0,0.0,0.0,-3.8191,-3.8191,-3.8191,-3.8191,-3.8191,-3.8191,-3.8191,-3.8191,0.0,0.0,0.0,0.0,0.0,0.0,0.0,0.0,0.0,0.0,0.0,0.0,0.0,0.0,-3.8191,-3.8191,-3.8191,-3.8191,-3.8191,-3.8191,-3.8191,-3.8191,-3.8191,-3.8191,-3.8398,-3.8662,-3.8745,-3.9013,-3.9406,-3.9951,-4.0386,-4.0758,-4.0841,-4.0882,-4.0882,-4.0882,-4.0882,-4.0882,-4.0882,-4.0882,-4.0882,-4.0882,-4.0882,0.0,-4.0882,-4.0882,-4.0882,-4.0882,-4.0882,-4.0882,-4.0882,-4.0882,-4.0882,-4.0882,-4.0944,-4.1296,-4.2219,-4.2642,-4.3097,-4.3553,-4.3615,-4.3615,-4.3615,-4.3615,-4.3615,-4.3615,-4.3615,-4.3615,-4.3615,-4.3615,-4.3615,-4.3615,-4.3615,-4.3615,-4.3615,-4.3615,-4.3615,-4.3615,-4.3615,-4.3615,-4.3635,-4.4567,-4.5002,-4.5043,-4.5954,-4.6266,-4.6266,-4.6266,-4.6266,-4.6266,-4.6266,-4.6266,-4.6266,-4.6266,-4.6493,-4.6968,-3.8191,-3.8191,-3.8191,-3.8191,0.0,0.0,0.0,0.0,0.0,0.0,0.0,-3.8191,-3.8191,-3.8191,-3.8191,-3.8191,-3.8191,-3.8191,-3.8191,-3.8191,0.0,0.0,0.0,0.0,0.0,0.0,0.0,0.0,0.0,0.0,0.0,0.0,0.0,0.0,0.0,-3.8191,-3.8191,-3.8191,-3.8191,-3.8191,-3.8191,-3.8316,-3.8523,-3.8523,-3.8792,-3.9158,-3.9385,-3.9827,-4.0241,-4.0468,-4.0696,-4.0882,-4.0882,-4.0882,-4.0882,-4.0882,-4.0882,-4.0882,-4.0882,-4.0882,-4.0882,-4.0882,-4.0882,0.0,0.0,-4.0882,-4.0882,-4.0882,-4.0882,-4.0882,-4.0882,-4.0882,-4.0882,-4.0882,-4.1069,-4.1462,-4.2239,-4.2456,-4.2849,-4.3532,-4.3615,-4.3615,-4.3615,-4.3615,-4.3615,-4.3615,-4.3615,-4.3615,-4.3615,-4.3615,-4.3615,-4.3615,-4.3615,-4.3615,-4.3615,-4.3615,-4.3615,-4.3615,-4.3615,-4.3615,-4.3635,-4.4567,-4.5002,-4.5043,-4.5954,-4.6266,-4.6266,-4.6266,-4.6266,-4.6266,-4.6266,-4.6266,-4.6287,-4.6514,-4.6844,-4.7134,-3.8191,-3.8191,-3.8191,-3.8191,0.0,0.0,0.0,0.0,0.0,0.0,0.0,-3.8191,-3.8191,-3.8191,-3.8191,-3.8191,-3.8191,-3.8191,-3.8191,-3.8191,-3.8191,0.0,0.0,-3.8191,0.0,0.0,0.0,0.0,0.0,0.0,0.0,0.0,0.0,0.0,0.0,0.0,0.0,-3.8274,-3.8316,-3.8316,-3.8419,-3.8564,-3.8662,-3.8745,-3.9075,-3.953,-4.0158,-4.0572,-4.0882,-4.0882,-4.0882,-4.0882,-4.0882,-4.0882,-4.0882,-4.0882,-4.0882,-4.0882,-4.0882,-4.0882,-4.0882,-4.0882,-4.0882,-4.0882,0.0,0.0,0.0,-4.0882,-4.0882,-4.0882,-4.0882,-4.0882,-4.0841,-4.0758,-4.1131,-4.1607,-4.2136,-4.2281,-4.26,-4.3511,-4.3615,-4.3615,-4.3615,-4.3615,-4.3615,-4.3615,-4.3615,-4.3615,-4.3615,-4.3615,-4.3615,-4.3615,-4.3615,-4.3615,-4.3615,-4.3615,-4.3615,-4.3615,-4.3615,-4.3615,-4.3635,-4.4567,-4.5002,-4.5043,-4.5954,-4.6266,-4.6266,-4.6266,-4.6266,-4.6266,-4.6266,-4.6328,-4.6452,-4.6906,-4.7154,-4.7403,-3.8191,-3.8191,-3.8191,-3.8191,0.0,0.0,0.0,0.0,0.0,0.0,0.0,-3.8191,-3.8191,-3.8191,-3.8191,-3.8191,-3.8191,-3.8191,-3.8191,-3.8191,-3.8191,-3.8191,0.0,-3.8191,-3.8191,0.0,0.0,0.0,0.0,0.0,0.0,0.0,0.0,0.0,-3.8191,0.0,0.0,-3.8605,-3.8703,-3.8745,-3.9158,-3.8937,-3.8316,-3.8621,-3.9075,-3.964,-4.0489,-4.0841,-4.0882,-4.0882,-4.0882,-4.0882,-4.0882,-4.0882,-4.0882,-4.0882,-4.0882,-4.0882,-4.0882,-4.0882,-4.0882,-4.0882,-4.0882,-4.0882,-4.0882,0.0,-4.0882,-4.0882,0.0,-4.0882,-4.0882,0.0,0.0,-4.0365,-4.0675,-4.111,-4.1586,-4.2073,-4.26,-4.3511,-4.3615,-4.3615,-4.3615,-4.3615,-4.3615,-4.3615,-4.3615,-4.3615,-4.3615,-4.3615,-4.3615,-4.3615,-4.3615,-4.3615,-4.3615,-4.3615,-4.3615,-4.3615,-4.3615,-4.3615,-4.3635,-4.4567,-4.5002,-4.5043,-4.5954,-4.6266,-4.6266,-4.6266,-4.6266,-4.6266,-4.6266,-4.6514,-4.6968,-4.701,-4.7548,-4.8231,-3.8191,-3.8191,-3.8191,-3.8191,0.0,0.0,0.0,0.0,0.0,0.0,0.0,-3.8191,-3.8191,-3.8191,-3.8191,-3.8191,-3.8191,-3.8191,-3.8191,-3.8191,-3.8191,-3.8191,-3.8191,-3.777,-3.6856,0.0,0.0,0.0,-3.6431,0.0,0.0,0.0,0.0,0.0,-3.8978,0.0,-3.8978,-3.9096,-3.9179,-3.9199,-3.9385,-3.9309,-3.9019,-3.9454,-3.9909,-4.0365,-4.0737,-4.0882,-4.0882,-4.0882,-4.0882,-4.0882,-4.0882,-4.0882,-4.0882,-4.0882,-4.0882,-4.0882,-4.0882,-4.0882,-4.0882,-4.0882,-4.0882,-4.0882,-4.0882,-4.0882,-4.0882,-4.0882,0.0,0.0,0.0,0.0,0.0,0.0,-4.0986,-4.1441,-4.197,-4.2352,-4.289,-4.3532,-4.3615,-4.3615,-4.3615,-4.3615,-4.3615,-4.3615,-4.3615,-4.3615,-4.3615,-4.3615,-4.3615,-4.3615,-4.3615,-4.3615,-4.3615,-4.3615,-4.3615,-4.3615,-4.3615,-4.376,-4.4029,-4.4691,-4.5147,-4.5436,-4.6078,-4.6266,-4.6266,-4.6266,-4.6432,-4.674,-4.674,-4.6865,-4.7092,-4.7631,-4.8045,-4.8417,-3.8191,-3.8191,-3.8191,-3.8191,0.0,0.0,0.0,0.0,0.0,-3.8191,-3.8191,-3.8191,-3.8191,-3.8191,-3.8191,-3.8191,-3.8191,-3.8191,-3.8191,-3.8191,-3.8191,-3.8191,-3.8191,-3.7482,-3.5957,-3.6296,0.0,0.0,0.0,0.0,0.0,0.0,0.0,0.0,0.0,-3.9101,-3.9468,-3.9612,-3.9654,-3.9674,-3.9847,-3.9909,-3.993,-4.0116,-4.0468,-4.0882,-4.0882,-4.0882,-4.0882,-4.0882,-4.0882,-4.0882,-4.0882,-4.0882,-4.0882,-4.0882,-4.0882,-4.0882,-4.0882,-4.0882,-4.0882,-4.0882,-4.0882,-4.0882,-4.0882,-4.0882,-4.0882,-4.0882,-4.0986,0.0,0.0,0.0,-4.1214,-4.1089,0.0,-4.1876,-4.2281,-4.2642,-4.3097,-4.3553,-4.3615,-4.3615,-4.3615,-4.3615,-4.3615,-4.3615,-4.3615,-4.3615,-4.3615,-4.3615,-4.3615,-4.3615,-4.3615,-4.3615,-4.3615,-4.3615,-4.3615,-4.3615,-4.3615,-4.3863,-4.4319,-4.4774,-4.525,-4.5705,-4.6161,-4.6266,-4.6266,-4.6266,-4.6616,-4.7051,-4.7175,-4.7299,-4.7486,-4.8127,-4.8459,-4.8603,-3.8191,-3.8191,-3.8191,-3.8191,-3.8191,0.0,0.0,-3.8191,-3.8191,-3.8191,-3.8191,-3.8191,-3.8191,-3.8191,-3.8191,-3.8191,-3.8191,-3.8191,-3.8191,-3.8191,-3.8191,-3.8191,-3.8191,-3.7482,-3.5957,-3.7348,-3.7618,0.0,0.0,0.0,0.0,0.0,0.0,0.0,-3.7947,-3.8087,-3.9509,-3.9943,-4.0199,-4.0241,-4.0655,-4.0841,-4.0779,-4.0386,-4.0489,-4.0882,-4.0882,-4.0882,-4.0882,-4.0882,-4.0882,-4.0882,-4.0882,-4.0882,-4.0882,-4.0882,-4.0882,-4.0882,-4.0882,-4.0882,-4.0882,-4.0882,-4.0882,-4.0882,-4.0882,-4.0882,-4.0882,-4.0882,-4.1234,-4.1617,-4.1617,-4.199,-4.2136,-4.1607,-4.2011,0.0,0.0,-4.2642,-4.3097,-4.3553,-4.3615,-4.3615,-4.3615,-4.3615,-4.3615,-4.3615,-4.3615,-4.3615,-4.3615,-4.3615,-4.3615,-4.3615,-4.3615,-4.3615,-4.3615,-4.3615,-4.3615,-4.3615,-4.3615,-4.3863,-4.4319,-4.4774,-4.525,-4.5705,-4.6161,-4.6266,-4.6266,-4.6266,-4.6616,-4.7072,-4.7506,-4.7941,-4.8334,-4.8355,-4.8666,-4.9038,-3.8191,-3.8191,-3.8191,-3.8191,-3.8191,-3.8191,-3.8191,-3.8191,-3.8191,-3.8191,-3.8191,-3.8191,-3.8191,-3.8191,-3.8191,-3.8191,-3.8191,-3.8191,-3.8191,-3.8191,-3.8191,-3.8191,-3.8191,-3.7482,-3.5957,-3.6708,-3.5943,-3.3553,0.0,0.0,0.0,0.0,0.0,0.0,0.0,-3.9323,-3.8895,-4.0146,-4.0655,-4.0675,-4.082,-4.0882,-4.0862,-4.0717,-4.0737,-4.0882,-4.0882,-4.0882,-4.0882,-4.0882,-4.0882,-4.0882,-4.0882,-4.0882,-4.0882,-4.0882,-4.0882,-4.0882,-4.0882,-4.0882,-4.0944,-4.1255,-4.1338,-4.1421,-4.1783,-4.1866,-4.1866,-4.1866,-4.199,-4.2021,-4.2021,-4.2219,-4.2281,-4.2115,-4.2239,-4.2352,0.0,-4.3097,-4.3428,-4.3594,-4.3615,-4.3615,-4.3615,-4.3615,-4.3615,-4.3615,-4.3615,-4.3615,-4.3615,-4.3615,-4.3615,-4.3615,-4.3615,-4.3615,-4.3615,-4.3615,-4.3615,-4.3615,-4.3925,-4.4319,-4.4774,-4.5229,-4.5705,-4.6119,-4.6204,-4.6266,-4.6287,-4.6678,-4.7072,-4.7506,-4.7962,-4.8417,-4.8831,-4.8831,-4.8935,-4.9059,-3.8191,-3.8191,-3.8191,-3.8191,-3.8191,-3.8191,-3.8191,-3.8191,-3.8191,-3.8191,-3.8191,-3.8191,-3.8191,-3.8191,-3.8191,-3.8191,-3.8191,-3.8191,-3.8191,-3.8191,-3.8191,-3.8191,-3.8336,-3.7726,-3.6172,-3.7153,-3.6176,-3.3263,-3.5653,-3.6728,0.0,0.0,0.0,0.0,0.0,-3.9458,-3.8588,-4.0218,-4.0882,-4.0882,-4.0882,-4.0882,-4.0882,-4.0882,-4.0882,-4.0882,-4.0882,-4.0882,-4.0882,-4.0882,-4.0882,-4.0882,-4.0882,-4.0882,-4.0903,-4.1069,-4.1131,-4.1151,-4.1317,-4.1358,-4.1441,-4.1731,-4.1887,-4.197,-4.226,-4.2322,-4.2322,-4.2322,-4.2373,-4.2497,-4.2497,-4.2621,-4.2745,-4.2745,-4.2745,-4.2849,0.0,-4.3428,-4.3615,-4.3615,-4.3615,-4.3615,-4.3615,-4.3615,-4.3615,-4.3615,-4.3615,0.0,0.0,-4.3615,-4.3615,-4.3615,-4.3615,-4.3615,-4.3615,-4.3615,-4.3698,-4.3863,-4.4153,-4.4629,-4.525,-4.554,-4.5933,-4.6266,-4.6266,-4.6349,-4.6535,-4.6906,-4.7382,-4.7962,-4.8252,-4.8666,-4.9059,-4.9059,-4.9059,-4.9059,-3.8191,-3.8191,-3.8191,-3.8191,-3.8191,-3.8191,-3.8191,-3.8191,-3.8191,-3.8191,-3.8191,-3.8191,-3.8191,-3.8191,-3.8191,-3.8191,-3.8191,-3.8191,-3.8191,-3.8212,-3.8212,-3.8212,-3.8647,-3.8173,-3.6809,-3.8621,-3.8257,-3.5686,-3.8604,0.0,0.0,0.0,0.0,0.0,-3.8443,0.0,-3.8496,-4.0197,-4.0882,-4.0882,-4.0882,-4.0882,-4.0882,-4.0882,-4.0882,-4.0882,-4.0882,-4.0882,-4.0882,-4.0882,-4.0882,-4.0903,-4.0903,-4.0924,-4.1027,-4.1462,-4.1607,-4.169,-4.2219,-4.2322,-4.2343,-4.229,-4.2364,-4.2364,-4.2384,-4.2331,-4.2331,-4.2331,-4.2663,-4.2952,-4.2952,-4.3325,-4.3615,-4.3615,-4.3615,-4.3615,-4.3615,-4.3615,-4.3615,-4.3615,-4.3615,-4.3615,-4.3615,-4.3615,-4.3615,-4.3615,-4.3615,0.0,0.0,-4.3615,-4.3615,-4.3615,-4.3615,-4.3615,-4.3615,-4.3615,-4.3842,-4.4298,-4.4319,-4.4815,-4.5685,-4.5705,-4.5954,-4.6266,-4.6287,-4.6637,-4.6969,-4.7092,-4.761,-4.8376,-4.8396,-4.8686,-4.9059,-4.9059,-4.9059,-4.9059,-3.8191,-3.8191,-3.8191,-3.8191,-3.8191,-3.8191,-3.8191,-3.8191,-3.8191,-3.8191,-3.8191,-3.8191,-3.8191,-3.8191,-3.8191,-3.8191,-3.8191,-3.8191,-3.8191,-3.8502,-3.8688,-3.8688,-3.9055,-3.9144,-3.8779,-3.9597,-3.9091,-3.7206,-3.715,0.0,-3.6664,0.0,0.0,0.0,0.0,0.0,-3.6885,-3.9694,-4.0882,-4.0882,-4.0882,-4.0882,-4.0882,-4.0882,-4.0882,-4.0882,-4.0882,-4.0882,-4.0882,-4.0882,-4.111,-4.14,-4.14,-4.1628,-4.1917,-4.2115,-4.2156,-4.2177,-4.2302,-4.2322,-4.2331,-4.2663,-4.2745,-4.2849,-4.318,-4.3263,-4.3263,-4.3263,-4.3366,-4.3428,-4.3428,-4.3532,-4.3615,-4.3615,-4.3615,-4.3615,-4.3615,-4.3615,-4.3615,-4.3615,-4.3615,-4.3615,-4.3615,-4.3615,-4.3615,-4.3615,-4.3615,0.0,-4.3615,-4.3615,-4.3615,-4.3615,-4.3615,-4.3615,-4.3615,-4.3615,-4.3842,-4.4298,-4.465,-4.5126,-4.5705,-4.6037,-4.6244,-4.6287,-4.6638,-4.6927,-4.7092,-4.7755,-4.8169,-4.8396,-4.8748,-4.8955,-4.9059,-4.9059,-4.9059,-4.9059,-3.8191,-3.8191,-3.8191,-3.8191,-3.8191,-3.8191,-3.8191,-3.8191,-3.8191,-3.8191,-3.8191,-3.8191,-3.8191,-3.8191,-3.8191,-3.8191,-3.8191,-3.8274,-3.846,-3.8641,-3.8869,-3.9075,-3.953,-3.9847,-3.9827,-4.0282,-3.9709,-3.8144,-3.7432,0.0,-3.6071,0.0,0.0,0.0,0.0,-3.659,-3.5327,-3.8516,-4.0289,-4.0882,-4.0882,-4.0882,0.0,-4.0882,-4.1007,-4.1172,-4.1172,-4.1172,-4.1172,-4.1172,-4.1483,-4.1949,-4.1949,-4.2115,-4.229,-4.2497,-4.2538,-4.26,-4.2787,-4.2849,-4.2911,-4.3159,-4.3221,-4.3284,-4.3553,-4.3615,-4.3615,-4.3615,-4.3615,-4.3615,-4.3615,-4.3615,-4.3615,-4.3615,-4.3615,-4.3615,-4.3615,-4.3615,-4.3615,-4.3615,-4.3615,-4.3615,-4.3615,-4.3615,-4.3615,-4.3615,-4.3615,-4.3615,-4.3615,-4.3615,-4.3615,-4.3615,-4.3615,-4.3615,-4.3615,-4.3801,-4.4153,-4.4608,-4.5064,-4.554,-4.5975,-4.6244,-4.6266,-4.6287,-4.6844,-4.7154,-4.7382,-4.8086,-4.85,-4.8707,-4.8955,-4.9059,-4.9059,-4.9059,-4.9059,-4.9059,-3.8191,-3.8191,-3.8191,-3.8191,-3.8191,-3.8191,-3.8191,-3.8191,-3.8191,-3.8191,-3.8191,-3.8191,-3.8191,-3.8233,-3.8274,-3.8274,-3.8316,-3.8523,-3.8848,-3.8931,-3.9137,-3.955,-4.0075,-4.0303,-4.0282,-4.0675,-4.0197,-3.8806,-3.835,0.0,0.0,0.0,0.0,0.0,0.0,0.0,0.0,-3.7547,-3.9622,-4.0882,-4.0882,-4.0882,-4.0882,-4.0944,-4.1214,-4.1565,-4.1628,-4.1648,-4.1648,-4.1648,-4.2032,-4.2352,-4.2352,-4.2393,-4.2518,-4.289,-4.3014,-4.3097,-4.3511,-4.3615,-4.3615,-4.3615,-4.3615,-4.3615,-4.3615,-4.3615,-4.3615,-4.3615,-4.3615,-4.3615,-4.3615,-4.3615,-4.3615,-4.3615,-4.3615,-4.3615,-4.3615,-4.3615,-4.3615,-4.3615,-4.3615,0.0,-4.3615,-4.3615,-4.3615,-4.3615,-4.3615,-4.3615,-4.3615,-4.3615,-4.3615,-4.3615,-4.3615,-4.3615,-4.3615,-4.407,-4.4546,-4.5002,-4.5457,-4.5912,-4.6266,-4.6266,-4.6287,-4.639,-4.6927,-4.7382,-4.7817,-4.8272,-4.8707,-4.9059,-4.9059,-4.9059,-4.9059,-4.9059,-4.9059,-4.9059,-3.8191,-3.8191,-3.8191,-3.8191,-3.8191,-3.8191,-3.8191,-3.8191,-3.8191,-3.8191,-3.8191,-3.8191,-3.8191,-3.8502,-3.8662,-3.8662,-3.9081,-3.9261,-3.9344,-3.9716,-4.0013,-4.0096,-4.053,-4.0758,-4.0758,-4.0841,-4.0719,-4.0504,-3.784,-3.6368,0.0,0.0,0.0,0.0,0.0,0.0,-3.7766,-3.9694,-4.0647,-4.0882,-4.0882,-4.0882,-4.0924,-4.1296,-4.1503,-4.1607,-4.2073,-4.2219,-4.2219,-4.2219,-4.2435,-4.2807,-4.2807,-4.3056,-4.3387,-4.347,-4.3491,-4.3511,-4.3594,-4.3615,-4.3615,-4.3615,-4.3615,-4.3615,-4.3615,-4.3615,-4.3615,-4.3615,-4.3615,-4.3615,-4.3615,-4.3615,-4.3615,-4.3615,-4.3615,-4.3615,-4.3615,-4.3615,-4.3615,-4.3615,-4.3615,-4.3615,-4.3615,-4.3615,-4.3615,-4.3615,-4.3615,-4.3615,-4.3615,-4.3615,-4.3615,-4.3615,-4.3615,-4.3615,-4.3615,-4.407,-4.4546,-4.5002,-4.5457,-4.5912,-4.6266,-4.6266,-4.6473,-4.6865,-4.7382,-4.7838,-4.8293,-4.8748,-4.8997,-4.9059,-4.9059,-4.9059,-4.9059,-4.9059,-4.9059,-4.9059,-3.8191,-3.8191,-3.8191,-3.8191,-3.8191,-3.8191,-3.8191,-3.8378,-3.844,-3.8212,-3.8378,-3.8523,-3.8523,-3.8869,-3.9137,-3.9137,-3.9344,-3.9571,-3.9889,-4.0096,-4.0323,-4.0551,-4.0758,-4.0882,-4.0882,-4.0882,-4.0504,-3.9694,-3.7253,-3.57,0.0,0.0,0.0,0.0,0.0,-3.5533,0.0,0.0,-4.0126,-4.0903,-4.1131,-4.1234,-4.1276,-4.1752,-4.2062,-4.229,-4.2518,-4.2766,-4.2932,-4.2683,-4.2911,-4.3284,-4.3284,-4.3428,-4.3615,-4.3615,-4.3615,-4.3615,-4.3615,-4.3615,-4.3615,-4.3615,-4.3615,-4.3615,-4.3615,-4.3615,-4.3615,-4.3615,-4.3615,-4.3615,-4.3615,-4.3615,-4.3615,-4.3615,-4.3615,-4.3615,-4.3615,-4.3615,-4.3615,-4.3615,-4.3615,-4.3615,-4.3615,-4.3615,-4.3615,-4.3615,-4.3615,-4.3615,-4.3615,-4.3615,-4.3615,-4.3615,-4.3615,-4.3718,-4.3967,-4.4422,-4.4898,-4.5354,-4.5809,-4.614,-4.6266,-4.6514,-4.6823,-4.7072,-4.7755,-4.8169,-4.8417,-4.8873,-4.9059,-4.9059,-4.9059,-4.9059,-4.9059,-4.9059,-4.9224,-4.9431,-3.8191,-3.8191,-3.8191,-3.8191,-3.8191,-3.8212,-3.8316,-3.8626,-3.873,-3.8378,-3.8709,-3.8931,-3.8931,-3.9344,-3.9682,-3.9682,-3.9765,-3.9972,-4.0344,-4.0365,-4.051,-4.0862,-4.0882,-4.0882,-4.0882,-4.0882,-4.0289,-3.9024,-3.7032,-3.5512,0.0,0.0,0.0,0.0,0.0,0.0,0.0,-3.8879,-3.9827,-4.1048,-4.1421,-4.1628,-4.1845,-4.2228,-4.2621,-4.2932,-4.3035,-4.3304,-4.3553,-4.318,-4.3304,-4.3615,-4.3615,-4.3615,-4.3615,-4.3615,-4.3615,-4.3615,-4.3615,-4.3615,-4.3615,-4.3615,-4.3615,-4.3615,-4.3615,-4.3615,-4.3615,-4.3615,-4.3615,-4.3615,-4.3615,-4.3615,-4.3615,-4.3615,-4.3615,-4.3615,-4.3615,-4.3615,-4.3615,-4.3615,-4.3615,-4.3615,-4.3615,-4.3615,-4.3615,-4.3615,-4.3615,-4.3615,-4.3615,-4.3615,-4.3615,-4.3615,-4.3698,-4.3925,-4.4298,-4.4857,-4.5333,-4.5685,-4.614,-4.6308,-4.6432,-4.6783,-4.7134,-4.7361,-4.8065,-4.8438,-4.8541,-4.8914,-4.9059,-4.9059,-4.9059,-4.9059,-4.908,-4.9183,-4.9452,-4.987,-3.8191,-3.8191,-3.8191,-3.8191,-3.8191,-3.8316,-3.873,-3.8765,-3.8765,-3.8724,-3.9117,-3.9406,-3.9406,-3.9819,-4.0088,-4.0088,-4.053,-4.0758,-4.082,-4.082,-4.082,-4.0882,-4.0882,-4.0882,-4.0882,-4.0882,-4.0811,-4.0647,-3.762,-3.618,-3.6358,0.0,0.0,0.0,0.0,-3.6885,-3.8588,-4.0054,-4.1038,-4.1503,-4.1545,-4.1814,-4.2322,-4.2683,-4.289,-4.2973,-4.3387,-4.3573,-4.3594,-4.3553,-4.3573,-4.3615,-4.3615,-4.3615,-4.3615,-4.3615,-4.3615,-4.3615,-4.3615,-4.3615,-4.3615,-4.3615,-4.3615,-4.3615,-4.3615,-4.3615,-4.3615,-4.3615,-4.3615,-4.3615,-4.3615,-4.3615,-4.3615,-4.3615,-4.3615,-4.3615,-4.3615,-4.3615,-4.3615,-4.3615,-4.3615,-4.3615,-4.3615,-4.3615,-4.3615,-4.3615,-4.3615,-4.3615,-4.3615,-4.3615,-4.3615,-4.3615,-4.4029,-4.4256,-4.4298,-4.5167,-4.5643,-4.5685,-4.614,-4.6493,-4.6968,-4.701,-4.7486,-4.8252,-4.8334,-4.8603,-4.8997,-4.9038,-4.9059,-4.9059,-4.9059,-4.9059,-4.9121,-4.9535,-4.9721,-4.9866,-3.8191,-3.8191,-3.8274,-3.8543,-3.8585,-3.873,-3.9117,-3.9426,-3.9612,-3.9612,-3.9827,-3.993,-3.9951,-4.0344,-4.0613,-4.0613,-4.0779,-4.0882,-4.0882,-4.0882,-4.0882,-4.0882,-4.0882,-4.0882,-4.0882,-4.0882,-4.0433,-3.9478,-3.7179,-3.5698,-3.4958,-3.4122,-3.5178,-3.7547,-3.7547,-3.8579,-4.0387,-4.1059,-4.1565,-4.2,-4.2269,-4.2497,-4.2704,-4.3159,-4.3325,-4.3366,-4.3532,-4.3615,-4.3615,-4.3615,-4.3615,-4.3615,-4.3615,-4.3615,-4.3615,-4.3615,-4.3615,-4.3615,-4.3615,-4.3615,-4.3615,-4.3615,-4.3615,-4.3615,-4.3615,-4.3615,-4.3615,-4.3615,-4.3615,-4.3615,-4.3615,-4.3615,-4.3615,-4.3615,-4.3615,-4.3615,-4.3615,-4.3615,-4.3615,-4.3615,-4.3615,-4.3615,-4.3615,-4.3615,-4.3615,-4.3615,-4.3615,-4.3615,-4.3615,-4.3615,-4.3615,-4.3615,-4.407,-4.4443,-4.4712,-4.5354,-4.5809,-4.6078,-4.6184,-4.6514,-4.7051,-4.7299,-4.792,-4.879,-4.879,-4.8893,-4.9059,-4.9059,-4.9059,-4.9059,-4.9059,-4.9224,-4.9494,-4.968,-5.0094,-5.0611,-3.8357,-3.8378,-3.8523,-3.891,-3.8993,-3.9137,-3.9592,-4.0013,-4.0282,-4.0406,-4.0406,-4.0406,-4.0427,-4.0696,-4.0882,-4.0882,-4.0882,-4.0882,-4.0882,-4.0882,-4.0882,-4.0882,-4.0882,-4.0882,-4.0882,-4.0882,-4.0361,-3.9169,-3.762,-3.6275,-3.5339,-3.5011,-3.6495,-3.9367,-3.9048,-3.9965,-4.1845,-4.1845,-4.2042,-4.2476,-4.2787,-4.2994,-4.3159,-4.3491,-4.3615,-4.3615,-4.3615,-4.3615,-4.3615,-4.3615,-4.3615,-4.3615,-4.3615,-4.3615,-4.3615,-4.3615,-4.3615,-4.3615,-4.3615,-4.3615,-4.3615,-4.3615,-4.3615,-4.3615,-4.3615,-4.3615,-4.3615,-4.3615,-4.3615,-4.3615,-4.3615,-4.3615,-4.3615,-4.3615,-4.3615,-4.3615,-4.3615,-4.3615,-4.3615,-4.3615,-4.3615,-4.3615,-4.3615,-4.3615,-4.3615,-4.3615,-4.3615,-4.3615,-4.3615,-4.3615,-4.3677,-4.3801,-4.4256,-4.4733,-4.5188,-4.5643,-4.6037,-4.6266,-4.6411,-4.6782,-4.7237,-4.7817,-4.8459,-4.9059,-4.9059,-4.9059,-4.9059,-4.9059,-4.9059,-4.908,-4.9224,-4.9473,-4.9783,-5.0052,-5.057,-5.1129,-3.8683,-3.8765,-3.891,-3.9385,-3.9468,-3.9612,-4.0158,-4.022,-4.0386,-4.082,-4.0862,-4.0862,-4.0862,-4.0882,-4.0882,-4.0882,-4.0882,-4.0882,-4.0882,-4.0882,-4.0882,-4.0882,-4.0882,-4.0882,-4.0882,-4.0882,-4.0882,-4.0882,-3.9241,-3.8657,-3.8938,-3.7801,-3.8782,-4.1493,-4.0355,-4.0778,-4.2322,-4.2322,-4.2497,-4.2911,-4.2911,-4.3201,-4.3594,-4.3615,-4.3615,-4.3615,-4.3615,-4.3615,-4.3615,-4.3615,-4.3615,-4.3615,-4.3615,-4.3615,-4.3615,-4.3615,-4.3615,-4.3615,-4.3615,-4.3615,-4.3615,-4.3615,-4.3615,-4.3615,-4.3615,-4.3615,-4.3615,-4.3615,-4.3615,-4.3615,-4.3615,-4.3615,-4.3615,-4.3615,-4.3615,-4.3615,-4.3615,-4.3615,-4.3615,-4.3615,-4.3615,-4.3615,-4.3615,-4.3615,-4.3615,-4.3615,-4.3615,-4.3615,-4.3615,-4.3615,-4.3822,-4.4277,-4.4753,-4.5209,-4.5664,-4.6119,-4.6266,-4.6266,-4.6721,-4.7258,-4.7713,-4.8624,-4.9059,-4.9059,-4.9059,-4.9059,-4.9059,-4.9059,-4.9059,-4.9121,-4.9576,-4.9742,-4.9866,-5.0756,-5.1108,-5.117,-3.922,-3.9261,-3.9406,-3.993,-4.0013,-4.0158,-4.0613,-4.0675,-4.0717,-4.0862,-4.0882,-4.0986,-4.1317,-4.1069,-4.1007,-4.1317,-4.1338,-4.1483,-4.1793,-4.1814,-4.1814,-4.1814,-4.1814,-4.1814,-4.1814,-4.1814,-4.1814,-4.1814,-4.023,-3.9547,-3.9609,-3.9275,-4.0176,-4.2042,-4.1723,-4.1969,-4.2704,-4.2704,-4.2973,-4.3387,-4.3387,-4.3491,-4.3615,-4.3615,-4.3615,-4.3615,-4.3615,-4.3615,-4.3615,-4.3615,-4.3615,-4.3615,-4.3615,-4.3615,-4.3615,-4.3615,-4.3615,-4.3615,-4.3615,-4.3615,-4.3615,-4.3615,-4.3615,-4.3615,-4.3615,-4.3615,-4.3615,-4.3615,-4.3615,-4.3615,-4.3615,-4.3615,-4.3615,-4.3615,-4.3615,-4.3615,-4.3615,-4.3615,-4.3615,-4.3615,-4.3615,-4.3615,-4.3615,-4.3615,-4.3615,-4.3615,-4.3615,-4.3615,-4.3615,-4.3905,-4.4153,-4.4298,-4.5064,-4.554,-4.5685,-4.6119,-4.6432,-4.6823,-4.6968,-4.7424,-4.8169,-4.879,-4.9059,-4.9059,-4.9059,-4.9059,-4.9059,-4.9059,-4.9245,-4.9556,-4.9701,-5.0135,-5.0715,-5.1005,-5.1315,-5.1605,-3.9695,-3.9736,-3.9951,-4.0386,-4.0468,-4.0572,-4.0841,-4.0882,-4.0944,-4.111,-4.1131,-4.1317,-4.1772,-4.1565,-4.1503,-4.1866,-4.1814,-4.2032,-4.2322,-4.2322,-4.2322,-4.2322,-4.2322,-4.2322,-4.2322,-4.2322,-4.2322,-4.2322,-4.1265,-4.0798,-4.0798,-4.0978,-4.1583,-4.2518,-4.2683,-4.2911,-4.318,-4.318,-4.3346,-4.3615,-4.3615,-4.3615,-4.3615,-4.3615,-4.3615,-4.3615,-4.3615,-4.3615,-4.3615,-4.3615,-4.3615,-4.3615,-4.3615,-4.3615,-4.3615,-4.3615,-4.3615,-4.3615,-4.3615,-4.3615,-4.3615,-4.3615,-4.3615,-4.3615,-4.3615,-4.3615,-4.3615,-4.3615,-4.3615,-4.3615,-4.3615,-4.3615,-4.3615,-4.3615,-4.3615,-4.3615,-4.3615,-4.3615,-4.3615,-4.3615,-4.3615,-4.3615,-4.3615,-4.3615,-4.3615,-4.3615,-4.378,-4.3863,-4.3863,-4.4153,-4.4463,-4.4815,-4.5374,-4.5768,-4.5933,-4.6389,-4.674,-4.6969,-4.7382,-4.792,-4.8645,-4.8935,-4.9059,-4.9059,-4.9059,-4.9059,-4.908,-4.9245,-4.958,-4.9783,-5.0135,-5.0611,-5.1129,-5.1315,-5.1543,-5.1791,-4.0179,-4.0282,-4.0406,-4.08,-4.0882,-4.0882,-4.0924,-4.0924,-4.1089,-4.1545,-4.1607,-4.1866,-4.2249,-4.2311,-4.2311,-4.2426,-4.2331,-4.2384,-4.2426,-4.2426,-4.2426,-4.2426,-4.2426,-4.2426,-4.2426,-4.2426,-4.2426,-4.2426,-4.2426,-4.2426,-4.2426,-4.2766,-4.2973,-4.2994,-4.3428,-4.3615,-4.3615,-4.3615,-4.3615,-4.3615,-4.3615,-4.3615,-4.3615,-4.3615,-4.3615,-4.3615,-4.3615,-4.3615,-4.3615,-4.3615,-4.3615,-4.3615,-4.3615,-4.3615,-4.3615,-4.3615,-4.3615,-4.3615,-4.3615,-4.3615,-4.3615,-4.3615,-4.3615,-4.3615,-4.3615,-4.3615,-4.3615,-4.3615,-4.3615,-4.3615,-4.3615,-4.3615,-4.3615,-4.3615,-4.3615,-4.3615,-4.3615,-4.3615,-4.3615,-4.3615,-4.3615,-4.3615,-4.3615,-4.3615,-4.3615,-4.3656,-4.4049,-4.4319,-4.4401,-4.4401,-4.4795,-4.5664,-4.5705,-4.5954,-4.6308,-4.6741,-4.7072,-4.7134,-4.8003,-4.8645,-4.9059,-4.9059,-4.9059,-4.9059,-4.9059,-4.908,-4.9142,-4.9576,-4.9891,-4.9928,-5.0777,-5.1129,-5.1212,-5.1646,-5.1791,-5.1791,-4.0696,-4.0717,-4.0758,-4.0862,-4.0882,-4.0986,-4.1338,-4.14,-4.1565,-4.2115,-4.2156,-4.2269,-4.2704,-4.2766,-4.2911,-4.3263,-4.2973,-4.2911,-4.3263,-4.3284,-4.3284,-4.3284,-4.3284,-4.3284,-4.3284,-4.3284,-4.3284,-4.3284,-4.3284,-4.3284,-4.3284,-4.3408,-4.3449,-4.3449,-4.3553,-4.3615,-4.3615,-4.3615,-4.3615,-4.3615,-4.3615,-4.3615,-4.3615,-4.3615,-4.3615,-4.3615,-4.3615,-4.3615,-4.3615,-4.3615,-4.3615,-4.3615,-4.3615,-4.3615,-4.3615,-4.3615,-4.3615,-4.3615,-4.3615,-4.3615,-4.3615,-4.3615,-4.3615,-4.3615,-4.3615,-4.3615,-4.3615,-4.3615,-4.3615,-4.3615,-4.3615,-4.3615,-4.3615,-4.3615,-4.3615,-4.3615,-4.3615,-4.3615,-4.3615,-4.3615,-4.3615,-4.3615,-4.3615,-4.3615,-4.376,-4.4112,-4.4236,-4.4608,-4.5312,-4.5354,-4.5457,-4.5685,-4.6016,-4.6409,-4.6865,-4.6989,-4.7382,-4.8065,-4.8624,-4.8955,-4.9059,-4.9059,-4.9059,-4.9059,-4.9059,-4.9266,-4.9597,-4.9721,-5.0156,-5.0818,-5.1025,-5.1315,-5.1646,-5.1771,-5.1791,-5.1791,-4.0882,-4.0882,-4.0882,-4.0882,-4.1048,-4.1276,-4.1524,-4.1752,-4.2042,-4.2497,-4.2559,-4.2725,-4.318,-4.3242,-4.3325,-4.3594,-4.3387,-4.3346,-4.3594,-4.3615,-4.3615,-4.3615,-4.3615,-4.3615,-4.3615,-4.3615,-4.3615,-4.3615,-4.3615,-4.3615,-4.3615,-4.3615,-4.3615,-4.3615,-4.3615,-4.3615,-4.3615,-4.3615,-4.3615,-4.3615,-4.3615,-4.3615,-4.3615,-4.3615,-4.3615,-4.3615,-4.3615,-4.3615,-4.3615,-4.3615,-4.3615,-4.3615,-4.3615,-4.3615,-4.3615,-4.3615,-4.3615,-4.3615,-4.3615,-4.3615,-4.3615,-4.3615,-4.3615,-4.3615,-4.3615,-4.3615,-4.3615,-4.3615,-4.3615,-4.3615,-4.3615,-4.3615,-4.3615,-4.3615,-4.3615,-4.3615,-4.3615,-4.3615,-4.3615,-4.3615,-4.3615,-4.3698,-4.3905,-4.3925,-4.4112,-4.4588,-4.4815,-4.5147,-4.5664,-4.5871,-4.5975,-4.5975,-4.643,-4.67,-4.703,-4.7444,-4.8003,-4.8686,-4.8955,-4.9059,-4.9059,-4.9059,-4.9059,-4.908,-4.9287,-4.9514,-4.9783,-5.0197,-5.0673,-5.1129,-5.1336,-5.1584,-5.1791,-5.1791,-5.1791,-5.1791,-4.0882,-4.0924,-4.0986,-4.0986,-4.1358,-4.1762,-4.1772,-4.2104,-4.2518,-4.2973,-4.3035,-4.318,-4.3573,-4.3615,-4.3615,-4.3615,-4.3615,-4.3615,-4.3615,-4.3615,-4.3615,-4.3615,-4.3615,-4.3615,-4.3615,-4.3615,-4.3615,-4.3615,-4.3615,-4.3615,-4.3615,-4.3615,-4.3615,-4.3615,-4.3615,-4.3615,-4.3615,-4.3615,-4.3615,-4.3615,-4.3615,-4.3615,-4.3615,-4.3615,-4.3615,-4.3615,-4.3615,-4.3615,-4.3615,-4.3615,-4.3615,-4.3615,-4.3615,-4.3615,-4.3615,-4.3615,-4.3615,-4.3615,-4.3615,-4.3615,-4.3615,-4.3615,-4.3615,-4.3615,-4.3615,-4.3615,-4.3615,-4.3615,-4.3615,-4.3615,-4.3615,-4.3615,-4.3615,-4.3615,-4.3615,-4.3615,-4.3615,-4.3615,-4.3615,-4.3615,-4.3677,-4.3863,-4.4256,-4.436,-4.4588,-4.5064,-4.5457,-4.5705,-4.5788,-4.614,-4.6287,-4.637,-4.6823,-4.7092,-4.7237,-4.8065,-4.8686,-4.9059,-4.9059,-4.9059,-4.9059,-4.9059,-4.91,-4.9183,-4.9597,-4.9825,-5.0011,-5.0798,-5.115,-5.1253,-5.1646,-5.1791,-5.1791,-5.1791,-5.1791,-5.1791,-4.0882,-4.1193,-4.1462,-4.1462,-4.1908,-4.2269,-4.2663,-4.2766,-4.2973,-4.3449,-4.3511,-4.3532,-4.3594,-4.3615,-4.3615,-4.3615,-4.3615,-4.3615,-4.3615,-4.3615,-4.3615,-4.3615,-4.3615,-4.3615,-4.3615,-4.3615,-4.3615,-4.3615,-4.3615,-4.3615,-4.3615,-4.3615,-4.3615,-4.3615,-4.3615,-4.3615,-4.3615,-4.3615,-4.3615,-4.3615,-4.3615,-4.3615,-4.3615,-4.3615,-4.3615,-4.3615,-4.3615,-4.3615,-4.3615,-4.3615,-4.3615,-4.3615,-4.3615,-4.3615,-4.3615,-4.3615,-4.3615,-4.3615,-4.3615,-4.3615,-4.3615,-4.3615,-4.3615,-4.3615,-4.3615,-4.3615,-4.3615,-4.3615,-4.3615,-4.3615,-4.3615,-4.3615,-4.3615,-4.3615,-4.3615,-4.3615,-4.3615,-4.3615,-4.3615,-4.3615,-4.3967,-4.4215,-4.4298,-4.465,-4.5084,-4.554,-4.5643,-4.585,-4.6223,-4.6225,-4.6452,-4.6927,-4.701,-4.7403,-4.8148,-4.8686,-4.8997,-4.9059,-4.9059,-4.9059,-4.9059,-4.9059,-4.9287,-4.9746,-4.9808,-5.0197,-5.0922,-5.1046,-5.1336,-5.1708,-5.1771,-5.1791,-5.1791,-5.1791,-5.1791,-5.1791,-4.1565,-4.1866,-4.2011,-4.2011,-4.2311,-4.2683,-4.289,-4.3139,-4.3366,-4.3594,-4.3615,-4.3615,-4.3615,-4.3615,-4.3615,-4.3615,-4.3615,-4.3615,-4.3615,-4.3615,-4.3615,-4.3615,-4.3615,-4.3615,-4.3615,-4.3615,-4.3615,-4.3615,-4.3615,-4.3615,-4.3615,-4.3615,-4.3615,-4.3615,-4.3615,-4.3615,-4.3615,-4.3615,-4.3615,-4.3615,-4.3615,-4.3615,-4.3615,-4.3615,-4.3615,-4.3615,-4.3615,-4.3615,-4.3615,-4.3615,-4.3615,-4.3615,-4.3615,-4.3615,-4.3615,-4.3615,-4.3615,-4.3615,-4.3615,-4.3615,-4.3615,-4.3615,-4.3615,-4.3615,-4.3615,-4.3615,-4.3615,-4.3615,-4.3615,-4.3615,-4.3615,-4.3615,-4.3615,-4.3615,-4.3615,-4.3615,-4.3615,-4.3822,-4.3987,-4.3987,-4.4381,-4.4774,-4.5022,-4.5229,-4.5561,-4.6016,-4.6037,-4.6119,-4.6246,-4.6493,-4.6823,-4.703,-4.7506,-4.8065,-4.8748,-4.8955,-4.9059,-4.9059,-4.9059,-4.9059,-4.908,-4.9328,-4.9642,-4.987,-5.028,-5.0715,-5.1129,-5.1377,-5.1605,-5.1791,-5.1791,-5.1791,-5.1791,-5.1791,-5.1791,-5.1791,-4.226,-4.2352,-4.2414,-4.2414,-4.2787,-4.3077,-4.3077,-4.3387,-4.3615,-4.3615,-4.3615,-4.3615,-4.3615,-4.3615,-4.3615,-4.3615,-4.3615,-4.3615,-4.3615,-4.3615,-4.3615,-4.3615,-4.3615,-4.3615,-4.3615,-4.3615,-4.3615,-4.3615,-4.3615,-4.3615,-4.3615,-4.3615,-4.3615,-4.3615,-4.3615,-4.3615,-4.3615,-4.3615,-4.3615,-4.3615,-4.3615,-4.3615,-4.3615,-4.3615,-4.3615,-4.3615,-4.3615,-4.3615,-4.3615,-4.3615,-4.3615,-4.3615,-4.3615,-4.3615,-4.3615,-4.3615,-4.3615,-4.3615,-4.3615,-4.3615,-4.3615,-4.3615,-4.3615,-4.3615,-4.3615,-4.3615,-4.3615,-4.3615,-4.3615,-4.3615,-4.3615,-4.3615,-4.3615,-4.3615,-4.3615,-4.3656,-4.376,-4.407,-4.4339,-4.4443,-4.4877,-4.5291,-4.5643,-4.5788,-4.5975,-4.6246,-4.6266,-4.6308,-4.6432,-4.6762,-4.7134,-4.7341,-4.8024,-4.8603,-4.9059,-4.9059,-4.9059,-4.9059,-4.9059,-4.9121,-4.9224,-4.9684,-4.9866,-5.0115,-5.0818,-5.117,-5.1294,-5.1646,-5.1791,-5.1791,-5.1791,-5.1791,-5.1791,-5.1791,-5.1791,-5.1791,-4.2322,-4.258,-4.287,-4.287,-4.3263,-4.3553,-4.3553,-4.3594,-4.3615,-4.3615,-4.3615,-4.3615,-4.3615,-4.3615,-4.3615,-4.3615,-4.3615,-4.3615,-4.3615,-4.3615,-4.3615,-4.3615,-4.3615,-4.3615,-4.3615,-4.3615,-4.3615,-4.3615,-4.3615,-4.3615,-4.3615,-4.3615,-4.3615,-4.3615,-4.3615,-4.3615,-4.3615,-4.3615,-4.3615,-4.3615,-4.3615,-4.3615,-4.3615,-4.3615,-4.3615,-4.3615,-4.3615,-4.3615,-4.3615,-4.3615,-4.3615,-4.3615,-4.3615,-4.3615,-4.3615,-4.3615,-4.3615,-4.3615,-4.3615,-4.3615,-4.3615,-4.3615,-4.3615,-4.3615,-4.3615,-4.3615,-4.3615,-4.3615,-4.3615,-4.3615,-4.3615,-4.3615,-4.3615,-4.3615,-4.3615,-4.376,-4.4194,-4.4277,-4.4463,-4.4898,-4.5354,-4.5643,-4.5685,-4.6057,-4.6225,-4.6266,-4.6266,-4.6452,-4.6968,-4.701,-4.7424,-4.8252,-4.8334,-4.8603,-4.9059,-4.9059,-4.9059,-4.9059,-4.9059,-4.9287,-4.9787,-4.9742,-5.0218,-5.1005,-5.1087,-5.1357,-5.175,-5.1791,-5.1791,-5.1791,-5.1791,-5.1791,-5.1791,-5.1791,-5.1791,-5.1791,-4.3035,-4.3242,-4.3346,-4.3346,-4.3491,-4.3615,-4.3615,-4.3615,-4.3615,-4.3615,-4.3615,-4.3615,-4.3615,-4.3615,-4.3615,-4.3615,-4.3615,-4.3615,-4.3615,-4.3615,-4.3615,-4.3615,-4.3615,-4.3615,-4.3615,-4.3615,-4.3615,-4.3615,-4.3615,-4.3615,-4.3615,-4.3615,-4.3615,-4.3615,-4.3615,-4.3615,-4.3615,-4.3615,-4.3615,-4.3615,-4.3615,-4.3615,-4.3615,-4.3615,-4.3615,-4.3615,-4.3615,-4.3615,-4.3615,-4.3615,-4.3615,-4.3615,-4.3615,-4.3615,-4.3615,-4.3615,-4.3615,-4.3615,-4.3615,-4.3615,-4.3615,-4.3615,-4.3615,-4.3615,-4.3615,-4.3615,-4.3615,-4.3615,-4.3615,-4.3615,-4.3615,-4.3615,-4.3698,-4.3987,-4.4029,-4.4194,-4.467,-4.4981,-4.5229,-4.5395,-4.5809,-4.6099,-4.6099,-4.6244,-4.6266,-4.6266,-4.6535,-4.6844,-4.703,-4.7568,-4.8148,-4.879,-4.881,-4.8893,-4.9059,-4.9059,-4.9059,-4.9059,-4.9059,-4.9307,-4.9763,-5.0032,-5.0508,-5.1129,-5.1419,-5.1646,-5.1791,-5.1791,-5.1791,-5.1791,-5.1791,-5.1791,-5.1791,-5.1791,-5.1791,-5.1791,-4.3553,-4.3615,-4.3615,-4.3615,-4.3615,-4.3615,-4.3615,-4.3615,-4.3615,-4.3615,-4.3615,-4.3615,-4.3615,-4.3615,-4.3615,-4.3615,-4.3615,-4.3615,-4.3615,-4.3615,-4.3615,-4.3615,-4.3615,-4.3615,-4.3615,-4.3615,-4.3615,-4.3615,-4.3615,-4.3615,-4.3615,-4.3615,-4.3615,-4.3615,-4.3615,-4.3615,-4.3615,-4.3615,-4.3615,-4.3615,-4.3615,-4.3615,-4.3615,-4.3615,-4.3615,-4.3615,-4.3615,-4.3615,-4.3615,-4.3615,-4.3615,-4.3615,-4.3615,-4.3615,-4.3615,-4.3615,-4.3615,-4.3615,-4.3615,-4.3615,-4.3615,-4.3615,-4.3615,-4.3615,-4.3615,-4.3615,-4.3615,-4.3615,-4.3718,-4.3822,-4.3822,-4.3946,-4.4153,-4.4463,-4.4526,-4.467,-4.5147,-4.5478,-4.5747,-4.5871,-4.6161,-4.6266,-4.6266,-4.6266,-4.6328,-4.6473,-4.6865,-4.7154,-4.7444,-4.8169,-4.8748,-4.9059,-4.9059,-4.9059,-4.9059,-4.9059,-4.9059,-4.9059,-4.9204,-4.9514,-4.997,-5.0425,-5.0901,-5.1336,-5.1667,-5.1791,-5.1791,-5.1791,-5.1791,-5.1791,-5.1791,-5.1791,-5.1791,-5.1791,-5.1791,-5.1791,-4.3615,-4.3615,-4.3615,-4.3615,-4.3615,-4.3615,-4.3615,-4.3615,-4.3615,-4.3615,-4.3615,-4.3615,-4.3615,-4.3615,-4.3615,-4.3615,-4.3615,-4.3615,-4.3615,-4.3615,-4.3615,-4.3615,-4.3615,-4.3615,-4.3615,-4.3615,-4.3615,-4.3615,-4.3615,-4.3615,-4.3615,-4.3615,-4.3615,-4.3615,-4.3615,-4.3615,-4.3615,-4.3615,-4.3615,-4.3615,-4.3615,-4.3615,-4.3615,-4.3615,-4.3615,-4.3615,-4.3615,-4.3615,-4.3615,-4.3615,-4.3615,-4.3615,-4.3615,-4.3615,-4.3615,-4.3615,-4.3615,-4.3615,-4.3615,-4.3615,-4.3615,-4.3615,-4.3615,-4.3615,-4.3615,-4.3615,-4.3615,-4.3615,-4.3987,-4.4319,-4.4319,-4.4691,-4.5002,-4.5002,-4.5002,-4.5167,-4.5623,-4.5685,-4.585,-4.6204,-4.6266,-4.6266,-4.6266,-4.6266,-4.6452,-4.701,-4.7051,-4.7444,-4.8334,-4.881,-4.9059,-4.9059,-4.9059,-4.9059,-4.9059,-4.9059,-4.9059,-4.908,-4.9535,-4.999,-5.0446,-5.0901,-5.1357,-5.1791,-5.1791,-5.1791,-5.1791,-5.1791,-5.1791,-5.1791,-5.1791,-5.1791,-5.1791,-5.1791,-5.1791,-5.1791,-4.3615,-4.3615,-4.3615,-4.3615,-4.3615,-4.3615,-4.3615,-4.3615,-4.3615,-4.3615,-4.3615,-4.3615,-4.3615,-4.3615,-4.3615,-4.3615,-4.3615,-4.3615,-4.3615,-4.3615,-4.3615,-4.3615,-4.3615,-4.3615,-4.3615,-4.3615,-4.3615,-4.3615,-4.3615,-4.3615,-4.3615,-4.3615,-4.3615,-4.3615,-4.3615,-4.3615,-4.3615,-4.3615,-4.3615,-4.3615,-4.3615,-4.3615,-4.3615,-4.3615,-4.3615,-4.3615,-4.3615,-4.3615,-4.3615,-4.3615,-4.3615,-4.3615,-4.3615,-4.3615,-4.3615,-4.3615,-4.3615,-4.3677,-4.4008,-4.4091,-4.4029,-4.3698,-4.3615,-4.3698,-4.4029,-4.4091,-4.4194,-4.4505,-4.4691,-4.4795,-4.4795,-4.4898,-4.5105,-4.5436,-4.5478,-4.5643,-4.6078,-4.614,-4.6202,-4.6246,-4.6266,-4.6266,-4.6266,-4.6555,-4.6885,-4.703,-4.7631,-4.8231,-4.8831,-4.8997,-4.9059,-4.9059,-4.9059,-4.9059,-4.9059,-4.9059,-4.9224,-4.9556,-4.968,-5.0156,-5.0901,-5.1046,-5.1357,-5.1791,-5.1791,-5.1791,-5.1791,-5.1791,-5.1791,-5.1791,-5.1791,-5.1791,-5.1791,-5.1791,-5.1791,-5.1791,-4.3615,-4.3615,-4.3615,-4.3615,-4.3615,-4.3615,-4.3615,-4.3615,-4.3615,-4.3615,-4.3615,-4.3615,-4.3615,-4.3615,-4.3615,-4.3615,-4.3615,-4.3615,-4.3615,-4.3615,-4.3615,-4.3615,-4.3615,-4.3615,-4.3615,-4.3615,-4.3615,-4.3615,-4.3615,-4.3615,-4.3615,-4.3615,-4.3615,-4.3615,-4.3615,-4.3615,-4.3615,-4.3615,-4.3615,-4.3615,-4.3615,-4.3615,-4.3615,-4.3615,-4.3615,-4.3615,-4.3615,-4.3615,-4.3615,-4.3615,-4.3615,-4.3615,-4.3615,-4.3739,-4.3884,-4.3884,-4.4008,-4.4215,-4.4505,-4.4588,-4.4505,-4.4236,-4.4153,-4.4236,-4.4505,-4.4588,-4.465,-4.494,-4.5147,-4.5271,-4.5271,-4.5416,-4.5623,-4.5892,-4.5954,-4.6037,-4.6225,-4.6266,-4.6266,-4.6266,-4.6432,-4.6535,-4.6535,-4.703,-4.7361,-4.7548,-4.8231,-4.8769,-4.9059,-4.9059,-4.9059,-4.9059,-4.9059,-4.9059,-4.9059,-4.9245,-4.9473,-4.9763,-5.0115,-5.0591,-5.1108,-5.1294,-5.1543,-5.1791,-5.1791,-5.1791,-5.1791,-5.1791,-5.1791,-5.1791,-5.1791,-5.1791,-5.1791,-5.1791,-5.1791,-5.1791,-4.3615,-4.3615,-4.3615,-4.3615,-4.3615,-4.3615,-4.3615,-4.3615,-4.3615,-4.3615,-4.3615,-4.3615,-4.3615,-4.3615,-4.3615,-4.3615,-4.3615,-4.3615,-4.3615,-4.3615,-4.3615,-4.3615,-4.3615,-4.3615,-4.3615,-4.3615,-4.3615,-4.3615,-4.3615,-4.3615,-4.3615,-4.3615,-4.3615,-4.3615,-4.3615,-4.3615,-4.3615,-4.3615,-4.3615,-4.3615,-4.3615,-4.3615,-4.3615,-4.3615,-4.3615,-4.3615,-4.3615,-4.3615,-4.3615,-4.3615,-4.3635,-4.3677,-4.3677,-4.3987,-4.436,-4.436,-4.467,-4.5002,-4.5043,-4.5064,-4.5064,-4.5105,-4.5126,-4.5105,-4.5064,-4.5064,-4.5064,-4.5105,-4.5457,-4.5747,-4.5747,-4.6078,-4.6266,-4.6266,-4.6266,-4.6266,-4.6266,-4.6266,-4.6287,-4.6328,-4.6782,-4.7051,-4.7092,-4.7486,-4.7941,-4.8396,-4.8831,-4.9059,-4.9059,-4.9059,-4.9059,-4.9059,-4.9059,-4.908,-4.9121,-4.9576,-4.9825,-4.9825,-5.0694,-5.1129,-5.1191,-5.1605,-5.1791,-5.1791,-5.1791,-5.1791,-5.1791,-5.1791,-5.1791,-5.1791,-5.1791,-5.1791,-5.1791,-5.1791,-5.1791,-5.1791,-4.3615,-4.3615,-4.3615,-4.3615,-4.3615,-4.3615,-4.3615,-4.3615,-4.3615,-4.3615,-4.3615,-4.3615,-4.3615,-4.3615,-4.3615,-4.3615,-4.3615,-4.3615,-4.3615,-4.3615,-4.3615,-4.3615,-4.3615,-4.3615,-4.3615,-4.3615,-4.3615,-4.3615,-4.3615,-4.3615,-4.3615,-4.3615,-4.3615,-4.3615,-4.3615,-4.3615,-4.3615,-4.3615,-4.3615,-4.3615,-4.3615,-4.3615,-4.3615,-4.3615,-4.3615,-4.3615,-4.3615,-4.3615,-4.3615,-4.3615,-4.3842,-4.4153,-4.4153,-4.4463,-4.4836,-4.4836,-4.4919,-4.5064,-4.5436,-4.554,-4.5623,-4.5975,-4.6057,-4.5954,-4.5602,-4.554,-4.5643,-4.5975,-4.614,-4.6202,-4.6202,-4.6204,-4.6266,-4.6266,-4.6266,-4.6266,-4.6266,-4.6266,-4.639,-4.6762,-4.6968,-4.7175,-4.7506,-4.7962,-4.8417,-4.8873,-4.9017,-4.9059,-4.9059,-4.9059,-4.9059,-4.9059,-4.9059,-4.9245,-4.9597,-5.0052,-5.028,-5.028,-5.0839,-5.1294,-5.1646,-5.175,-5.1791,-5.1791,-5.1791,-5.1791,-5.1791,-5.1791,-5.1791,-5.1791,-5.1791,-5.1791,-5.1791,-5.1791,-5.1791,-5.1791,-4.3615,-4.3615,-4.3615,-4.3615,-4.3615,-4.3615,-4.3615,-4.3615,-4.3615,-4.3615,-4.3615,-4.3615,-4.3615,-4.3615,-4.3615,-4.3615,-4.3615,-4.3615,-4.3615,-4.3615,-4.3615,-4.3615,-4.3615,-4.3615,-4.3615,-4.3615,-4.3615,-4.3615,-4.3615,-4.3615,-4.3615,-4.3615,-4.3615,-4.3615,-4.3615,-4.3615,-4.3615,-4.3615,-4.3615,-4.3615,-4.3615,-4.3615,-4.3615,-4.3615,-4.3615,-4.3615,-4.3615,-4.376,-4.3946,-4.3946,-4.4256,-4.4629,-4.4629,-4.496,-4.5312,-4.5312,-4.5478,-4.5685,-4.5933,-4.5995,-4.6057,-4.6285,-4.6266,-4.6204,-4.6057,-4.5995,-4.6057,-4.6306,-4.6266,-4.6266,-4.6266,-4.6266,-4.6266,-4.6266,-4.6266,-4.6349,-4.6555,-4.6597,-4.6844,-4.7299,-4.7548,-4.7858,-4.8293,-4.8562,-4.881,-4.9038,-4.9059,-4.9059,-4.9059,-4.9059,-4.9059,-4.9059,-4.9287,-4.9514,-4.9763,-5.0425,-5.0736,-5.0756,-5.1212,-5.1564,-5.1791,-5.1791,-5.1791,-5.1791,-5.1791,-5.1791,-5.1791,-5.1791,-5.1791,-5.1791,-5.1791,-5.1791,-5.1791,-5.1791,-5.1791,-5.1791,-4.3615,-4.3615,-4.3615,-4.3615,-4.3615,-4.3615,-4.3615,-4.3615,-4.3615,-4.3615,-4.3615,-4.3615,-4.3615,-4.3615,-4.3615,-4.3615,-4.3615,-4.3615,-4.3615,-4.3615,-4.3615,-4.3615,-4.3615,-4.3615,-4.3615,-4.3615,-4.3615,-4.3615,-4.3615,-4.3615,-4.3615,-4.3615,-4.3615,-4.3615,-4.3615,-4.3615,-4.3615,-4.3615,-4.3615,-4.3615,-4.3615,-4.3615,-4.3615,-4.3615,-4.3615,-4.3615,-4.3698,-4.4029,-4.4422,-4.4422,-4.4733,-4.5105,-4.5105,-4.5416,-4.5788,-4.5788,-4.6057,-4.6266,-4.6266,-4.6266,-4.6266,-4.6266,-4.6266,-4.6266,-4.6266,-4.6266,-4.6266,-4.6266,-4.6266,-4.6266,-4.6266,-4.6328,-4.639,-4.639,-4.6533,-4.672,-4.7092,-4.7154,-4.7299,-4.7755,-4.821,-4.8645,-4.9017,-4.9059,-4.9059,-4.9059,-4.9059,-4.9059,-4.9059,-4.9059,-4.91,-4.9183,-4.9642,-4.9825,-4.999,-5.0736,-5.115,-5.1232,-5.1626,-5.1791,-5.1791,-5.1791,-5.1791,-5.1791,-5.1791,-5.1791,-5.1791,-5.1791,-5.1791,-5.1791,-5.1791,-5.1791,-5.1791,-5.1791,-5.1791,-5.1791,-4.3615,-4.3615,-4.3615,-4.3615,-4.3615,-4.3615,-4.3615,-4.3615,-4.3615,-4.3615,-4.3615,-4.3615,-4.3615,-4.3615,-4.3615,-4.3615,-4.3615,-4.3615,-4.3615,-4.3615,-4.3615,-4.3615,-4.3615,-4.3615,-4.3615,-4.3615,-4.3615,-4.3615,-4.3615,-4.3615,-4.3615,-4.3615,-4.3615,-4.3615,-4.3615,-4.3615,-4.3615,-4.3615,-4.3615,-4.3615,-4.3615,-4.3615,-4.3615,-4.3615,-4.3615,-4.3656,-4.407,-4.4505,-4.4898,-4.4898,-4.5209,-4.5581,-4.5581,-4.5892,-4.6264,-4.6264,-4.6306,-4.6266,-4.6266,-4.6266,-4.6266,-4.6266,-4.6266,-4.6266,-4.6266,-4.6266,-4.6266,-4.6266,-4.6266,-4.6266,-4.6266,-4.6597,-4.6947,-4.6947,-4.7258,-4.7527,-4.7589,-4.7589,-4.7775,-4.8231,-4.8686,-4.8997,-4.9059,-4.9059,-4.9059,-4.9059,-4.9059,-4.9059,-4.9059,-4.9059,-4.9245,-4.9659,-4.9808,-5.0135,-5.0922,-5.1046,-5.1315,-5.1708,-5.1771,-5.1791,-5.1791,-5.1791,-5.1791,-5.1791,-5.1791,-5.1791,-5.1791,-5.1791,-5.1791,-5.1791,-5.1791,-5.1791,-5.1791,-5.1791,-5.1791,-5.1791,-4.3615,-4.3615,-4.3615,-4.3615,-4.3615,-4.3615,-4.3615,-4.3615,-4.3615,-4.3615,-4.3615,-4.3615,-4.3615,-4.3615,-4.3615,-4.3615,-4.3615,-4.3615,-4.3615,-4.3615,-4.3615,-4.3615,-4.3615,-4.3615,-4.3615,-4.3615,-4.3615,-4.3615,-4.3615,-4.3615,-4.3615,-4.3615,-4.3615,-4.3615,-4.3615,-4.3615,-4.3615,-4.3615,-4.3615,-4.3615,-4.3615,-4.3615,-4.3635,-4.3905,-4.3987,-4.4049,-4.4526,-4.4981,-4.5374,-4.5374,-4.5685,-4.6057,-4.6057,-4.6182,-4.6266,-4.6266,-4.6266,-4.6266,-4.6266,-4.6266,-4.6266,-4.6266,-4.6266,-4.6328,-4.6597,-4.674,-4.6576,-4.6308,-4.6473,-4.674,-4.674,-4.7092,-4.7403,-4.7403,-4.7568,-4.7775,-4.8024,-4.8065,-4.8252,-4.8707,-4.8935,-4.9059,-4.9059,-4.9059,-4.9059,-4.9059,-4.9059,-4.9059,-4.9059,-4.9307,-4.9621,-4.9742,-5.0239,-5.0694,-5.1108,-5.1377,-5.1605,-5.1791,-5.1791,-5.1791,-5.1791,-5.1791,-5.1791,-5.1791,-5.1791,-5.1791,-5.1791,-5.1791,-5.1791,-5.1791,-5.1791,-5.1791,-5.1791,-5.1791,-5.1791,-5.1791]},{"header":{"parameterUnit":"m.s-1","parameterCategory":1,"la1":30.6,"la2":28.766,"lo1":-90.7593,"lo2":-88.6598,"dy":0.0162,"dx":0.0183,"nx":116,"ny":114,"refTime":"2024-02-17T06:00:00:Z","depth":0,"parameterNumber":3,"parameterNumberName":"V-component_of_WINDS"},"data":[0.0,0.0,0.0,0.0,0.0,0.0,0.0,0.0,0.0,0.0,0.0,0.0,0.0,0.0,0.0,0.0,0.0,0.0,0.0,0.0,0.0,0.0,0.0,0.0,0.0,0.0,0.0,0.0,0.0,0.0,0.0,0.0,0.0,0.0,0.0,0.0,0.0,0.0,0.0,0.0,0.0,0.0,0.0,0.0,0.0,0.0,0.0,0.0,0.0,0.0,0.0,0.0,0.0,0.0,0.0,0.0,0.0,0.0,0.0,0.0,0.0,0.0,0.0,0.0,0.0,0.0,0.0,0.0,0.0,0.0,0.0,0.0,0.0,0.0,0.0,0.0,0.0,0.0,0.0,0.0,0.0,0.0,0.0,0.0,0.0,0.0,0.0,0.0,0.0,0.0,0.0,0.0,0.0,0.0,0.0,0.0,0.0,0.0,0.0,0.0,0.0,0.0,0.0,0.0,0.0,0.0,0.0,0.0,0.0,0.0,0.0,0.0,0.0,0.0,0.0,0.0,0.0,0.0,0.0,0.0,0.0,0.0,0.0,0.0,0.0,0.0,0.0,0.0,0.0,0.0,0.0,0.0,0.0,0.0,0.0,0.0,0.0,0.0,0.0,0.0,0.0,0.0,0.0,0.0,0.0,0.0,0.0,0.0,0.0,0.0,0.0,0.0,0.0,0.0,0.0,0.0,0.0,0.0,0.0,0.0,0.0,0.0,0.0,0.0,0.0,0.0,0.0,0.0,0.0,0.0,0.0,0.0,0.0,0.0,0.0,0.0,0.0,0.0,0.0,0.0,0.0,0.0,0.0,0.0,0.0,0.0,0.0,0.0,0.0,0.0,0.0,0.0,0.0,0.0,0.0,0.0,0.0,0.0,0.0,0.0,0.0,0.0,0.0,0.0,0.0,0.0,0.0,0.0,0.0,0.0,0.0,0.0,0.0,0.0,0.0,0.0,0.0,0.0,0.0,0.0,0.0,0.0,0.0,0.0,0.0,0.0,0.0,0.0,0.0,0.0,0.0,0.0,0.0,0.0,0.0,0.0,0.0,0.0,0.0,0.0,0.0,0.0,0.0,0.0,0.0,0.0,0.0,0.0,0.0,0.0,0.0,0.0,0.0,0.0,0.0,0.0,0.0,0.0,0.0,0.0,0.0,0.0,0.0,0.0,0.0,0.0,0.0,0.0,0.0,0.0,0.0,0.0,0.0,0.0,0.0,0.0,0.0,0.0,0.0,0.0,0.0,0.0,0.0,0.0,0.0,0.0,0.0,0.0,0.0,0.0,0.0,0.0,0.0,0.0,0.0,0.0,0.0,0.0,0.0,0.0,0.0,0.0,0.0,0.0,0.0,0.0,0.0,0.0,0.0,0.0,0.0,0.0,0.0,0.0,0.0,0.0,0.0,0.0,0.0,0.0,0.0,0.0,0.0,0.0,0.0,0.0,0.0,0.0,0.0,0.0,0.0,0.0,0.0,0.0,0.0,0.0,0.0,0.0,0.0,0.0,0.0,0.0,0.0,0.0,0.0,0.0,0.0,0.0,0.0,0.0,0.0,0.0,0.0,0.0,0.0,0.0,0.0,0.0,0.0,0.0,0.0,0.0,0.0,0.0,0.0,0.0,0.0,0.0,0.0,0.0,0.0,0.0,0.0,0.0,0.0,0.0,0.0,0.0,0.0,0.0,0.0,0.0,0.0,0.0,0.0,0.0,0.0,0.0,0.0,0.0,0.0,0.0,0.0,0.0,0.0,0.0,0.0,0.0,0.0,0.0,0.0,0.0,0.0,0.0,0.0,0.0,0.0,0.0,0.0,0.0,0.0,0.0,0.0,0.0,0.0,0.0,0.0,0.0,0.0,0.0,0.0,0.0,0.0,0.0,0.0,0.0,0.0,0.0,0.0,0.0,0.0,0.0,0.0,0.0,0.0,0.0,0.0,0.0,0.0,0.0,0.0,0.0,0.0,0.0,0.0,0.0,0.0,0.0,0.0,0.0,0.0,0.0,0.0,0.0,0.0,0.0,0.0,0.0,0.0,0.0,0.0,0.0,0.0,0.0,0.0,0.0,0.0,0.0,0.0,0.0,0.0,0.0,0.0,0.0,0.0,0.0,0.0,0.0,0.0,0.0,0.0,0.0,0.0,0.0,0.0,0.0,0.0,0.0,0.0,0.0,0.0,0.0,0.0,0.0,0.0,0.0,0.0,0.0,0.0,0.0,0.0,0.0,0.0,0.0,0.0,0.0,0.0,0.0,0.0,0.0,0.0,0.0,0.0,0.0,0.0,0.0,0.0,0.0,0.0,0.0,0.0,0.0,0.0,0.0,0.0,0.0,0.0,0.0,0.0,0.0,0.0,0.0,0.0,0.0,0.0,0.0,0.0,0.0,0.0,0.0,0.0,0.0,0.0,0.0,0.0,0.0,0.0,0.0,0.0,0.0,0.0,0.0,0.0,0.0,0.0,0.0,0.0,0.0,0.0,0.0,0.0,0.0,0.0,0.0,0.0,0.0,0.0,0.0,0.0,0.0,0.0,0.0,0.0,0.0,0.0,0.0,0.0,0.0,0.0,0.0,0.0,0.0,0.0,0.0,0.0,0.0,0.0,0.0,0.0,0.0,0.0,0.0,0.0,0.0,0.0,0.0,0.0,0.0,0.0,0.0,0.0,0.0,0.0,0.0,0.0,0.0,0.0,0.0,0.0,0.0,0.0,0.0,0.0,0.0,0.0,0.0,0.0,0.0,0.0,0.0,0.0,0.0,0.0,0.0,0.0,0.0,0.0,0.0,0.0,0.0,0.0,0.0,0.0,0.0,0.0,0.0,0.0,0.0,0.0,0.0,0.0,0.0,0.0,0.0,0.0,0.0,0.0,0.0,0.0,0.0,0.0,0.0,0.0,0.0,0.0,0.0,0.0,0.0,0.0,0.0,0.0,0.0,0.0,0.0,0.0,0.0,0.0,0.0,0.0,0.0,0.0,0.0,0.0,0.0,0.0,0.0,0.0,0.0,0.0,0.0,0.0,0.0,0.0,0.0,0.0,0.0,0.0,0.0,0.0,0.0,0.0,0.0,0.0,0.0,0.0,0.0,0.0,0.0,0.0,0.0,0.0,0.0,0.0,0.0,0.0,0.0,0.0,0.0,0.0,0.0,0.0,0.0,0.0,0.0,0.0,0.0,0.0,0.0,0.0,0.0,0.0,0.0,0.0,0.0,0.0,0.0,0.0,0.0,0.0,0.0,0.0,0.0,0.0,0.0,0.0,0.0,0.0,0.0,0.0,0.0,0.0,0.0,0.0,0.0,0.0,0.0,0.0,0.0,0.0,0.0,0.0,0.0,0.0,0.0,0.0,0.0,0.0,0.0,0.0,0.0,0.0,0.0,0.0,0.0,0.0,0.0,0.0,0.0,0.0,0.0,0.0,0.0,0.0,0.0,0.0,0.0,0.0,0.0,0.0,0.0,0.0,0.0,0.0,0.0,0.0,0.0,0.0,0.0,0.0,0.0,0.0,0.0,0.0,0.0,0.0,0.0,0.0,0.0,0.0,0.0,0.0,0.0,0.0,0.0,0.0,0.0,0.0,0.0,0.0,0.0,0.0,0.0,0.0,0.0,0.0,0.0,0.0,0.0,0.0,0.0,0.0,0.0,0.0,0.0,0.0,0.0,0.0,0.0,0.0,0.0,0.0,0.0,0.0,0.0,0.0,0.0,0.0,0.0,0.0,0.0,0.0,0.0,0.0,0.0,0.0,0.0,0.0,0.0,0.0,0.0,0.0,0.0,0.0,0.0,0.0,0.0,0.0,0.0,0.0,0.0,0.0,0.0,0.0,0.0,0.0,0.0,0.0,0.0,0.0,0.0,0.0,0.0,0.0,0.0,0.0,0.0,0.0,0.0,0.0,0.0,0.0,0.0,0.0,0.0,0.0,0.0,0.0,0.0,0.0,0.0,0.0,0.0,0.0,0.0,0.0,0.0,0.0,0.0,0.0,0.0,0.0,0.0,0.0,0.0,0.0,0.0,0.0,0.0,0.0,0.0,0.0,0.0,0.0,0.0,0.0,0.0,0.0,0.0,0.0,0.0,0.0,0.0,0.0,0.0,0.0,0.0,0.0,0.0,0.0,0.0,0.0,0.0,0.0,0.0,0.0,0.0,0.0,0.0,0.0,0.0,0.0,0.0,0.0,0.0,0.0,0.0,0.0,0.0,0.0,0.0,0.0,0.0,0.0,0.0,0.0,0.0,0.0,0.0,0.0,0.0,0.0,0.0,0.0,0.0,0.0,0.0,0.0,0.0,0.0,0.0,0.0,0.0,0.0,0.0,0.0,0.0,0.0,0.0,0.0,0.0,0.0,0.0,0.0,0.0,0.0,0.0,0.0,0.0,0.0,0.0,0.0,0.0,0.0,0.0,0.0,0.0,0.0,0.0,0.0,0.0,0.0,0.0,0.0,0.0,0.0,0.0,0.0,0.0,0.0,0.0,0.0,0.0,0.0,0.0,0.0,0.0,0.0,0.0,0.0,0.0,0.0,0.0,0.0,0.0,0.0,0.0,0.0,0.0,0.0,0.0,0.0,0.0,0.0,0.0,0.0,0.0,0.0,0.0,0.0,0.0,0.0,0.0,0.0,0.0,0.0,0.0,0.0,0.0,0.0,0.0,0.0,0.0,0.0,0.0,0.0,0.0,0.0,0.0,0.0,0.0,0.0,0.0,0.0,0.0,0.0,0.0,0.0,0.0,0.0,0.0,0.0,0.0,0.0,0.0,0.0,0.0,0.0,0.0,0.0,0.0,0.0,0.0,0.0,0.0,0.0,0.0,0.0,0.0,0.0,0.0,0.0,0.0,0.0,0.0,0.0,0.0,0.0,0.0,0.0,0.0,0.0,0.0,0.0,0.0,0.0,0.0,0.0,0.0,0.0,0.0,0.0,0.0,0.0,0.0,0.0,0.0,0.0,0.0,0.0,0.0,0.0,0.0,0.0,0.0,0.0,0.0,0.0,0.0,0.0,0.0,0.0,0.0,0.0,0.0,0.0,0.0,0.0,0.0,0.0,0.0,0.0,0.0,0.0,0.0,0.0,0.0,0.0,0.0,0.0,0.0,0.0,0.0,0.0,0.0,0.0,0.0,0.0,0.0,0.0,0.0,0.0,0.0,0.0,0.0,0.0,0.0,0.0,0.0,0.0,0.0,0.0,0.0,0.0,0.0,0.0,0.0,0.0,0.0,0.0,0.0,0.0,0.0,0.0,0.0,0.0,0.0,0.0,0.0,0.0,0.0,0.0,0.0,0.0,0.0,0.0,0.0,0.0,0.0,0.0,0.0,0.0,0.0,0.0,0.0,0.0,0.0,0.0,0.0,0.0,0.0,0.0,0.0,0.0,0.0,0.0,0.0,0.0,0.0,0.0,0.0,0.0,0.0,0.0,0.0,0.0,0.0,0.0,0.0,0.0,0.0,0.0,0.0,0.0,0.0,0.0,0.0,0.0,0.0,0.0,0.0,0.0,0.0,0.0,0.0,0.0,0.0,0.0,0.0,0.0,0.0,0.0,0.0,0.0,0.0,0.0,0.0,0.0,0.0,0.0,0.0,0.0,0.0,0.0,0.0,0.0,0.0,0.0,0.0,0.0,0.0,0.0,0.0,0.0,0.0,0.0,0.0,0.0,0.0,0.0,0.0,0.0,0.0,0.0,0.0,0.0,0.0,0.0,0.0,0.0,0.0,0.0,0.0,0.0,0.0,0.0,0.0,0.0,0.0,0.0,0.0,0.0,0.0,0.0,0.0,0.0,0.0,0.0,0.0,0.0,0.0,0.0,0.0,0.0,0.0,0.0,0.0,0.0,0.0,0.0,0.0,0.0,0.0,0.0,0.0,0.0,0.0,0.0,0.0,0.0,0.0,0.0,0.0,0.0,0.0,0.0,0.0,0.0,0.0,0.0,0.0,0.0,0.0,0.0,0.0,0.0,0.0,0.0,0.0,0.0,0.0,0.0,0.0,0.0,0.0,0.0,0.0,0.0,0.0,0.0,0.0,0.0,0.0,0.0,0.0,0.0,0.0,0.0,0.0,0.0,0.0,0.0,0.0,0.0,0.0,0.0,0.0,0.0,0.0,0.0,0.0,-6.088,-6.0913,0.0,0.0,0.0,0.0,0.0,0.0,0.0,0.0,0.0,0.0,0.0,0.0,0.0,0.0,0.0,0.0,0.0,0.0,0.0,0.0,0.0,0.0,0.0,0.0,0.0,0.0,-5.5653,-5.5653,-5.5653,-5.5984,-5.6183,-5.6183,-5.6514,-5.668,-5.668,-5.668,-5.668,-5.668,-5.668,-5.668,-5.668,-5.668,-5.668,-5.668,0.0,0.0,0.0,0.0,0.0,0.0,0.0,0.0,0.0,0.0,0.0,0.0,0.0,0.0,0.0,0.0,0.0,0.0,0.0,0.0,0.0,0.0,0.0,0.0,0.0,0.0,0.0,0.0,0.0,0.0,0.0,0.0,0.0,0.0,0.0,0.0,0.0,0.0,0.0,0.0,0.0,0.0,0.0,0.0,0.0,0.0,0.0,0.0,0.0,0.0,0.0,0.0,0.0,0.0,0.0,0.0,0.0,0.0,0.0,0.0,0.0,0.0,0.0,0.0,0.0,0.0,0.0,0.0,0.0,0.0,-6.1451,-6.1629,0.0,0.0,0.0,0.0,0.0,0.0,0.0,0.0,0.0,0.0,0.0,0.0,0.0,0.0,0.0,0.0,0.0,0.0,0.0,0.0,0.0,0.0,0.0,0.0,-5.5152,-5.4523,-5.449,-5.449,-5.449,-5.5052,-5.5383,-5.5383,-5.5984,-5.6382,-5.6514,-5.6514,-5.6547,-5.668,-5.668,-5.668,-5.668,-5.668,-5.668,0.0,0.0,0.0,0.0,0.0,0.0,0.0,0.0,0.0,0.0,0.0,0.0,0.0,0.0,0.0,0.0,0.0,0.0,0.0,0.0,0.0,0.0,0.0,0.0,0.0,0.0,0.0,0.0,0.0,0.0,0.0,0.0,0.0,0.0,0.0,0.0,0.0,0.0,0.0,0.0,0.0,0.0,0.0,0.0,0.0,0.0,0.0,0.0,0.0,0.0,0.0,0.0,0.0,0.0,0.0,0.0,0.0,0.0,0.0,0.0,0.0,0.0,0.0,0.0,0.0,-6.1009,-6.1117,-6.1052,-6.1622,-6.1958,-6.2061,-6.2191,-6.2476,-6.2935,-6.3612,0.0,0.0,0.0,0.0,0.0,0.0,0.0,0.0,0.0,0.0,0.0,0.0,0.0,0.0,0.0,0.0,0.0,0.0,0.0,0.0,0.0,-5.5019,-5.4589,-5.449,-5.449,-5.449,-5.449,-5.4589,-5.4659,-5.4622,-5.4759,-5.509,-5.5714,-5.5747,-5.6084,-5.668,-5.668,-5.668,-5.668,-5.668,0.0,0.0,0.0,0.0,0.0,0.0,0.0,0.0,0.0,0.0,0.0,0.0,0.0,0.0,0.0,0.0,0.0,0.0,0.0,0.0,0.0,0.0,0.0,0.0,0.0,0.0,0.0,0.0,0.0,0.0,0.0,0.0,0.0,0.0,0.0,0.0,0.0,0.0,0.0,0.0,0.0,0.0,0.0,0.0,0.0,0.0,-6.1119,-6.1119,0.0,0.0,0.0,0.0,0.0,0.0,0.0,0.0,0.0,0.0,0.0,0.0,0.0,-6.0844,-6.1119,-6.0708,-6.0463,-6.0453,-6.1119,-6.1219,-6.0895,-6.2591,-6.3256,-6.3147,-6.3733,0.0,-6.2977,-6.4322,0.0,0.0,0.0,0.0,0.0,0.0,0.0,0.0,0.0,0.0,0.0,0.0,0.0,0.0,0.0,0.0,0.0,0.0,0.0,0.0,0.0,-5.4688,-5.4195,-5.34,-5.3665,-5.3732,-5.3334,-5.3665,-5.3861,-5.3861,-5.4258,-5.4622,-5.4953,-5.4953,-5.5355,-5.6084,-5.6481,-5.668,-5.668,0.0,0.0,0.0,0.0,0.0,0.0,0.0,0.0,0.0,0.0,0.0,0.0,0.0,0.0,0.0,0.0,0.0,0.0,0.0,0.0,0.0,0.0,0.0,0.0,0.0,0.0,0.0,0.0,0.0,0.0,0.0,0.0,0.0,0.0,0.0,0.0,0.0,0.0,0.0,0.0,0.0,0.0,0.0,0.0,0.0,0.0,-6.1119,-6.1119,-6.1119,-6.1119,-6.1119,0.0,0.0,0.0,0.0,0.0,0.0,0.0,0.0,0.0,-6.1119,-6.1002,-6.0961,-6.1119,-6.0877,-6.0863,-6.1,-6.1458,-6.1873,-6.2243,-6.3043,-6.3669,-6.4106,-6.4433,-6.4184,-6.3738,-6.4525,-6.4976,-6.5111,0.0,0.0,0.0,0.0,-6.569,-6.6088,0.0,0.0,0.0,0.0,0.0,0.0,0.0,0.0,0.0,0.0,0.0,0.0,-5.4821,-5.4423,-5.3798,-5.2738,-5.297,-5.2937,-5.2442,-5.287,-5.3135,-5.3135,-5.3665,-5.4063,-5.4192,-5.439,-5.4754,-5.5317,-5.6051,-5.6415,0.0,0.0,0.0,0.0,0.0,0.0,0.0,0.0,0.0,0.0,0.0,0.0,0.0,0.0,0.0,0.0,0.0,0.0,0.0,0.0,0.0,0.0,0.0,0.0,0.0,0.0,0.0,0.0,0.0,0.0,0.0,0.0,0.0,0.0,0.0,0.0,0.0,0.0,0.0,0.0,0.0,0.0,0.0,0.0,0.0,0.0,0.0,-6.1119,-6.1119,-6.1119,-6.1119,-6.1119,0.0,0.0,0.0,0.0,0.0,0.0,-6.1119,-6.1119,-6.1119,-6.1119,-6.1002,-6.1002,-6.1002,-6.1117,-6.1268,-6.1404,-6.1983,-6.2573,-6.3199,-6.3577,-6.4074,-6.461,-6.4702,-6.4656,-6.4518,-6.4793,-6.5021,-6.5246,-6.5381,-6.5525,-6.569,-6.569,-6.6154,-6.6817,0.0,0.0,0.0,0.0,0.0,0.0,0.0,0.0,0.0,0.0,0.0,-5.5582,-5.5549,-5.4258,-5.3434,-5.3367,-5.2804,-5.2407,-5.2409,-5.2442,-5.244,-5.244,-5.2473,-5.2804,-5.3467,-5.4162,-5.449,-5.4556,0.0,0.0,0.0,0.0,0.0,0.0,0.0,0.0,0.0,0.0,0.0,0.0,0.0,0.0,0.0,0.0,0.0,0.0,0.0,0.0,0.0,0.0,0.0,0.0,0.0,0.0,0.0,0.0,0.0,0.0,0.0,0.0,0.0,0.0,0.0,0.0,0.0,0.0,0.0,0.0,0.0,0.0,0.0,0.0,0.0,0.0,0.0,0.0,0.0,0.0,0.0,-6.1119,-6.1119,0.0,0.0,0.0,0.0,-6.1119,-6.1119,-6.1119,-6.1119,-6.1119,-6.1119,-6.1119,-6.0877,-6.0717,-6.0717,-6.1238,-6.1371,-6.1141,-6.2745,-6.3297,-6.2969,-6.4374,-6.4793,-6.43,-6.461,-6.4839,-6.5054,-6.5291,-6.5111,-6.4793,-6.5246,-6.5856,-6.6452,-6.6452,-6.6916,-6.7632,0.0,0.0,0.0,0.0,0.0,0.0,0.0,0.0,-5.668,-5.668,-5.6084,-5.5582,-5.5582,-5.5118,-5.4423,-5.35,-5.3632,-5.3367,-5.2475,-5.2409,-5.2409,-5.2409,-5.2409,-5.2506,-5.2738,-5.3434,-5.3798,-5.3798,0.0,0.0,0.0,0.0,0.0,0.0,0.0,0.0,0.0,0.0,0.0,0.0,0.0,0.0,0.0,0.0,0.0,0.0,0.0,0.0,0.0,0.0,0.0,0.0,0.0,0.0,0.0,0.0,0.0,0.0,0.0,0.0,0.0,0.0,0.0,0.0,0.0,0.0,0.0,0.0,0.0,0.0,0.0,0.0,0.0,0.0,0.0,0.0,0.0,0.0,0.0,-6.1119,-6.1119,0.0,-6.1119,-6.1119,-6.1119,-6.1119,-6.1119,-6.1119,-6.1119,-6.1119,-6.1119,-6.1119,-6.1002,-6.1192,-6.1664,-6.1673,-6.2005,-6.2701,-6.3211,-6.3656,-6.408,-6.4281,-6.4551,-6.4826,-6.4748,-6.4656,-6.461,-6.5201,-6.5336,-6.5189,-6.5865,-6.6287,-6.6585,-6.7003,-6.7678,-6.8341,0.0,0.0,0.0,0.0,0.0,0.0,0.0,0.0,-5.668,-5.668,-5.6282,-5.5984,-5.5984,-5.5747,-5.5085,-5.3897,-5.396,-5.3632,-5.2509,-5.2409,-5.2409,-5.2409,-5.2409,-5.2409,-5.2409,-5.2837,-5.3069,0.0,0.0,0.0,0.0,0.0,0.0,0.0,0.0,0.0,0.0,0.0,0.0,0.0,0.0,0.0,-5.668,0.0,0.0,0.0,0.0,0.0,0.0,0.0,0.0,0.0,0.0,0.0,0.0,0.0,0.0,0.0,0.0,0.0,0.0,0.0,0.0,0.0,0.0,0.0,0.0,0.0,0.0,0.0,0.0,0.0,0.0,0.0,0.0,0.0,0.0,-6.1119,-6.1119,-6.1119,-6.1119,-6.1119,-6.1119,-6.1119,-6.1119,-6.1119,-6.1119,-6.1119,-6.1119,-6.1119,-6.1077,-6.0961,-6.1044,-6.1366,-6.1933,-6.2111,-6.2662,-6.3588,-6.361,-6.3969,-6.4564,-6.424,-6.4412,-6.4963,-6.4702,-6.4564,-6.4643,-6.5284,-6.561,-6.5766,-6.6275,-6.6817,-6.7314,-6.7811,-6.844,-6.9069,0.0,0.0,0.0,0.0,0.0,0.0,0.0,-5.668,-5.668,-5.668,-5.668,-5.668,-5.668,-5.6084,-5.5317,-5.4589,-5.3864,-5.3169,-5.2509,-5.2407,-5.2409,-5.2409,-5.2409,-5.2409,-5.2409,-5.2409,0.0,0.0,0.0,0.0,0.0,0.0,0.0,0.0,0.0,0.0,0.0,0.0,0.0,0.0,0.0,0.0,-5.668,0.0,0.0,0.0,0.0,0.0,0.0,0.0,0.0,0.0,0.0,0.0,0.0,0.0,0.0,0.0,0.0,0.0,0.0,0.0,0.0,0.0,0.0,0.0,0.0,0.0,0.0,0.0,0.0,0.0,0.0,0.0,0.0,0.0,-6.1119,-6.1119,-6.1119,-6.1119,-6.1119,-6.1119,-6.1119,-6.1119,-6.1119,-6.1119,-6.1119,-6.1119,-6.1119,-6.1119,-6.0961,-6.0717,-6.0994,-6.1273,-6.1568,-6.2432,-6.3155,-6.3654,-6.4067,-6.4286,-6.43,-6.4286,-6.4472,-6.4702,-6.4426,-6.4643,-6.5153,-6.5614,-6.6002,-6.6265,-6.6494,-6.7446,-6.8672,-6.8705,-6.9169,-6.9798,0.0,0.0,0.0,0.0,0.0,0.0,0.0,-5.668,-5.668,-5.668,-5.668,-5.668,-5.668,-5.6514,-5.6117,-5.535,-5.4589,-5.3897,-5.3169,-5.2672,-5.2409,-5.2409,0.0,0.0,-5.2409,0.0,0.0,0.0,0.0,0.0,0.0,0.0,0.0,0.0,0.0,0.0,0.0,0.0,0.0,0.0,0.0,0.0,-5.668,0.0,0.0,0.0,0.0,0.0,0.0,0.0,0.0,0.0,0.0,0.0,0.0,0.0,0.0,0.0,0.0,0.0,0.0,0.0,0.0,0.0,0.0,0.0,0.0,0.0,0.0,0.0,0.0,0.0,0.0,0.0,-6.1119,-6.1119,-6.1119,-6.1119,-6.1119,-6.1119,-6.1119,-6.1119,-6.1119,-6.1119,-6.1119,-6.1119,-6.1119,-6.1119,-6.1119,-6.1119,-6.1077,-6.1002,-6.1574,-6.2203,-6.2802,-6.3232,-6.3731,-6.4407,-6.4175,-6.4272,-6.461,-6.4272,-6.4319,-6.4702,-6.4426,-6.4673,-6.5381,-6.5903,-6.6733,-6.7749,-6.7983,-6.8341,-6.8738,-6.9301,-6.9633,-6.9798,0.0,0.0,0.0,0.0,0.0,0.0,0.0,-5.668,-5.668,-5.668,-5.668,-5.668,-5.668,-5.668,-5.6415,-5.5648,-5.492,-5.4195,-5.3467,-5.2771,0.0,0.0,0.0,0.0,0.0,0.0,0.0,0.0,0.0,0.0,0.0,0.0,0.0,0.0,0.0,0.0,0.0,0.0,0.0,0.0,0.0,0.0,-5.668,-5.668,-5.668,-5.668,-5.668,-5.668,-5.668,-5.668,0.0,0.0,0.0,0.0,0.0,0.0,0.0,0.0,0.0,0.0,0.0,0.0,0.0,0.0,0.0,0.0,0.0,0.0,0.0,0.0,0.0,0.0,0.0,0.0,-6.1119,-6.1119,-6.1119,-6.1119,-6.1119,-6.1119,-6.1119,-6.1119,-6.1119,-6.1119,-6.1119,-6.1119,-6.1119,-6.1119,-6.1119,-6.1119,-6.121,-6.1381,-6.1905,-6.259,-6.3441,-6.3526,-6.4027,-6.4839,-6.4272,-6.4226,-6.4702,-6.4226,-6.4179,-6.4518,-6.4673,-6.5064,-6.5629,-6.6673,-6.7537,-6.8342,0.0,0.0,0.0,0.0,-6.9798,-6.9798,0.0,0.0,0.0,0.0,0.0,0.0,0.0,-5.668,-5.668,-5.668,-5.668,-5.668,-5.668,-5.668,-5.6448,-5.5747,-5.4953,-5.4195,-5.3467,0.0,0.0,0.0,0.0,0.0,0.0,0.0,0.0,0.0,0.0,0.0,0.0,0.0,0.0,0.0,0.0,0.0,0.0,0.0,0.0,0.0,0.0,0.0,-5.668,-5.668,-5.668,-5.668,-5.668,-5.668,-5.668,-5.668,0.0,0.0,0.0,0.0,0.0,0.0,0.0,0.0,0.0,0.0,0.0,0.0,0.0,0.0,0.0,0.0,0.0,0.0,0.0,0.0,0.0,0.0,0.0,0.0,-6.1119,-6.1119,-6.1119,-6.1119,-6.1119,-6.1119,-6.1119,-6.1119,-6.1119,-6.1119,-6.1119,-6.1119,-6.1119,-6.1119,-6.1119,-6.1185,0.0,0.0,0.0,-6.2835,-6.3633,-6.3686,-6.417,-6.5054,-6.4365,-6.4272,-6.4702,-6.4226,-6.4211,-6.4556,-6.5115,-6.5647,-6.619,-6.7673,-6.8408,-6.8474,-6.871,-6.9202,-6.9798,-6.9798,-6.9798,-6.9798,0.0,0.0,0.0,0.0,0.0,0.0,0.0,-5.668,-5.668,-5.668,-5.668,-5.668,-5.668,-5.668,-5.6614,-5.6481,-5.5289,-5.4195,0.0,0.0,0.0,0.0,0.0,0.0,0.0,0.0,0.0,0.0,0.0,0.0,0.0,0.0,0.0,0.0,0.0,0.0,0.0,0.0,0.0,0.0,0.0,0.0,-5.668,-5.668,-5.668,-5.668,-5.668,-5.668,-5.668,-5.668,-5.668,-5.668,-5.668,0.0,0.0,0.0,0.0,0.0,0.0,0.0,0.0,0.0,0.0,0.0,0.0,0.0,0.0,0.0,0.0,0.0,0.0,0.0,0.0,-6.1119,-6.1119,-6.1119,-6.1119,-6.1119,-6.1119,-6.1119,-6.1119,-6.1119,-6.1119,-6.1119,-6.1119,-6.1119,-6.1119,-6.1119,-6.1119,-6.1649,-6.1929,-6.1805,-6.3142,-6.3903,-6.3923,-6.4301,-6.4584,-6.4793,-6.4426,0.0,-6.4702,-6.4379,-6.4845,-6.5818,-6.5531,-6.6202,-6.76,-6.8101,-6.88,-6.9519,-6.9566,-6.9666,-6.9798,-6.9798,-6.9798,-6.9798,0.0,0.0,0.0,0.0,0.0,0.0,0.0,-5.668,-5.668,-5.668,-5.668,-5.668,-5.668,-5.668,-5.668,-5.668,-5.5686,0.0,0.0,0.0,0.0,0.0,0.0,0.0,0.0,0.0,0.0,0.0,0.0,0.0,0.0,0.0,0.0,0.0,0.0,0.0,0.0,0.0,0.0,0.0,0.0,0.0,-5.668,-5.668,-5.668,-5.668,-5.668,-5.668,-5.668,-5.668,-5.668,-5.668,-5.668,-5.668,-5.668,0.0,0.0,0.0,0.0,0.0,0.0,0.0,0.0,0.0,0.0,0.0,0.0,0.0,0.0,-6.1119,-6.1119,0.0,-6.1119,-6.1119,-6.1119,-6.1119,-6.1119,-6.1119,-6.1119,-6.1119,-6.1119,-6.1119,-6.1119,-6.1119,-6.1119,-6.1119,-6.0961,-6.1126,-6.1616,-6.1768,-6.2253,-6.3066,-6.3793,-6.4188,-6.4359,-6.4551,-6.4656,-6.4518,-6.424,-6.4286,-6.4518,-6.4598,-6.5002,-6.5629,-6.6237,-6.7051,-6.8026,-6.8771,-6.9372,-6.9798,-6.9655,-6.9703,-6.9798,-6.9798,-6.9798,-6.9798,0.0,0.0,0.0,0.0,0.0,0.0,0.0,-5.668,-5.668,-5.668,-5.668,-5.668,-5.668,-5.668,-5.6614,-5.6481,0.0,0.0,0.0,0.0,0.0,0.0,0.0,0.0,0.0,0.0,0.0,0.0,0.0,0.0,0.0,0.0,0.0,0.0,0.0,0.0,0.0,0.0,0.0,0.0,0.0,0.0,-5.668,-5.668,-5.668,-5.668,-5.668,-5.668,-5.668,-5.668,-5.668,-5.668,-5.668,-5.668,-5.668,-5.668,-5.668,0.0,0.0,0.0,0.0,0.0,0.0,0.0,0.0,-6.0357,-6.0953,-6.1086,-6.1119,-6.1119,-6.1119,-6.1119,-6.1119,-6.1119,-6.1119,-6.1119,-6.1119,-6.1119,-6.1119,-6.1119,-6.1044,-6.1044,-6.1119,-6.1044,-6.1002,-6.1002,-6.0976,-6.1339,-6.2018,-6.2015,-6.2662,-6.42,-6.4188,-6.4293,-6.4702,-6.4702,-6.463,-6.4528,-6.4374,-6.4486,-6.4803,-6.5153,-6.5415,-6.5753,-6.7151,-6.8029,-6.84,-6.928,-6.9703,-6.9798,-6.9559,-6.9607,-6.9798,-6.9751,-6.9751,-6.9798,0.0,0.0,0.0,0.0,0.0,0.0,0.0,0.0,-5.668,-5.668,-5.668,-5.668,-5.668,-5.668,-5.6448,0.0,0.0,0.0,0.0,0.0,0.0,0.0,0.0,0.0,0.0,0.0,0.0,0.0,0.0,0.0,0.0,0.0,0.0,0.0,0.0,0.0,0.0,0.0,0.0,0.0,0.0,0.0,-5.668,-5.668,-5.668,-5.668,-5.668,-5.668,-5.668,-5.668,-5.668,-5.668,-5.668,-5.668,-5.668,-5.668,0.0,-5.668,-5.668,-5.668,-5.6713,-5.6779,-5.7376,-5.8104,0.0,-5.9595,-6.0324,-6.0953,-6.1119,-6.1119,-6.1119,-6.1119,-6.1119,-6.1119,-6.1119,-6.1119,-6.1119,-6.1119,-6.1119,-6.1119,-6.0919,-6.0835,-6.1077,-6.0877,-6.076,-6.076,-6.1523,-6.191,-6.1589,-6.2925,-6.3681,-6.3678,-6.4289,-6.4649,-6.4702,-6.4702,-6.4891,-6.5277,-6.5498,-6.5966,-6.6588,-6.6415,-6.6903,-6.7955,-6.834,-6.8944,-6.9571,-6.9204,-6.9382,-6.9798,-6.9798,-6.9798,-6.9798,-6.9526,-6.9607,-6.9798,0.0,0.0,0.0,0.0,0.0,0.0,0.0,0.0,0.0,0.0,-5.668,-5.668,-5.668,-5.668,-5.6415,0.0,0.0,0.0,0.0,0.0,0.0,0.0,0.0,0.0,0.0,0.0,0.0,0.0,0.0,0.0,0.0,0.0,0.0,0.0,0.0,0.0,0.0,0.0,0.0,0.0,0.0,0.0,-5.668,-5.668,-5.668,-5.668,-5.668,-5.668,0.0,0.0,-5.668,-5.668,-5.668,-5.668,-5.668,-5.668,-5.668,0.0,-5.668,-5.6603,-5.6525,-5.668,-5.7165,-5.7846,-5.8694,-5.9463,-6.0225,-6.0953,-6.1119,-6.1119,-6.1119,-6.1119,-6.1119,-6.1119,-6.1119,-6.1119,-6.1119,-6.1119,-6.1044,-6.0877,-6.076,-6.0802,-6.1044,-6.0877,-6.0882,-6.131,-6.1725,-6.22,-6.2715,-6.3383,-6.3908,-6.4211,-6.4675,-6.4748,-6.4472,-6.5082,-6.5302,-6.5171,-6.5879,-6.6285,-6.6467,-6.6939,-6.7541,-6.8242,-6.8667,-6.9042,-6.9334,-6.943,-6.9607,-6.9798,-6.9655,-6.9655,-6.9798,-6.9703,-6.9703,-6.9798,0.0,0.0,0.0,0.0,0.0,0.0,0.0,0.0,0.0,0.0,-5.668,-5.668,-5.668,-5.668,0.0,0.0,0.0,0.0,0.0,0.0,0.0,0.0,0.0,0.0,0.0,0.0,0.0,0.0,0.0,0.0,0.0,0.0,0.0,0.0,0.0,0.0,0.0,0.0,0.0,0.0,0.0,0.0,-5.668,-5.668,-5.668,-5.668,-5.668,-5.668,0.0,0.0,-5.668,-5.668,-5.668,-5.668,-5.668,-5.668,-5.668,-5.668,-5.668,-5.6564,-5.6486,-5.6564,-5.6954,-5.7542,-5.8467,-5.9216,-5.9919,-6.072,-6.1035,-6.1077,-6.1002,-6.1044,-6.1119,-6.1119,-6.1119,-6.1119,-6.1119,-6.1119,-6.1002,-6.0802,-6.076,-6.0802,-6.1044,-6.1,-6.1159,-6.1686,-6.2113,-6.2684,-6.3555,-6.3694,-6.41,-6.4793,-6.4977,-6.4983,-6.4812,-6.5578,-6.5941,-6.5835,-6.6467,-6.6825,-6.6956,-6.7574,-6.8144,-6.855,-6.8797,-6.8994,-6.914,-6.9559,-6.9703,-6.9703,-6.9559,-6.9655,-6.9798,-6.9798,-6.9798,-6.9798,0.0,0.0,0.0,0.0,0.0,0.0,0.0,0.0,0.0,0.0,0.0,0.0,0.0,0.0,0.0,0.0,0.0,0.0,0.0,0.0,0.0,0.0,0.0,0.0,0.0,0.0,0.0,0.0,0.0,0.0,0.0,0.0,0.0,0.0,0.0,0.0,0.0,0.0,0.0,0.0,0.0,0.0,-5.668,-5.668,-5.668,-5.668,-5.668,0.0,0.0,0.0,-5.668,-5.668,-5.668,-5.668,0.0,-5.668,-5.668,-5.668,-5.668,-5.668,-5.6641,-5.648,-5.6558,-5.6994,-5.8011,-5.8617,-5.9208,-6.0243,-6.0793,-6.1002,-6.076,-6.0919,-6.1119,-6.1119,-6.1119,-6.1119,-6.1119,-6.1119,-6.1119,-6.1119,-6.0877,-6.0802,-6.1044,-6.1334,-6.1502,-6.1535,-6.2769,-6.3555,-6.3588,-6.4047,-6.4531,-6.5054,-6.5017,-6.5375,-6.612,-6.6377,-6.6953,-6.7912,-6.759,-6.7997,-6.8879,-6.8666,-6.8863,-6.9334,-6.8847,-6.8896,-6.9382,-6.9382,-6.9382,-6.943,-6.9703,-6.9798,-6.9798,-6.9798,-6.9798,-6.9798,0.0,0.0,0.0,0.0,0.0,0.0,0.0,0.0,0.0,0.0,0.0,0.0,0.0,0.0,0.0,0.0,0.0,0.0,0.0,0.0,0.0,0.0,0.0,0.0,0.0,0.0,0.0,0.0,0.0,0.0,0.0,0.0,0.0,0.0,0.0,0.0,0.0,0.0,0.0,0.0,0.0,0.0,-5.668,-5.668,-5.668,-5.668,0.0,0.0,0.0,0.0,0.0,-5.668,-5.668,-5.668,-5.668,-5.668,-5.668,-5.668,-5.6525,-5.6369,-5.6284,-5.6244,-5.6493,-5.7076,-5.8223,-5.8815,-5.9481,-6.0637,-6.0877,-6.0877,-6.0961,-6.1044,-6.1119,-6.1119,-6.1119,-6.1119,-6.1119,-6.1119,-6.1002,-6.0877,-6.0919,-6.099,-6.1066,-6.1458,-6.1862,-6.2147,-6.323,-6.385,-6.3882,-6.4512,-6.4689,-6.4365,-6.5423,-6.583,-6.5408,-6.6915,-6.7587,-6.7492,-6.7817,-6.8191,-6.8748,-6.8451,-6.855,-6.8847,-6.8699,-6.8896,-6.9382,-6.9382,-6.9478,-6.9703,-6.9751,-6.9798,-6.9798,-6.9607,-6.9953,-7.0461,0.0,0.0,0.0,0.0,0.0,0.0,0.0,0.0,0.0,0.0,0.0,0.0,0.0,0.0,0.0,0.0,0.0,0.0,0.0,0.0,0.0,0.0,0.0,0.0,0.0,0.0,0.0,0.0,0.0,0.0,0.0,0.0,0.0,0.0,0.0,0.0,0.0,0.0,0.0,0.0,0.0,0.0,-5.668,-5.668,-5.668,0.0,0.0,0.0,0.0,0.0,0.0,-5.668,-5.668,-5.668,-5.668,-5.668,-5.6641,-5.6564,-5.6525,-5.6323,-5.6086,-5.6086,-5.653,-5.7168,-5.8043,-5.8805,-5.9568,-6.0417,-6.0633,-6.0717,-6.075,-6.0952,-6.1077,-6.0961,-6.1044,-6.1119,-6.1119,-6.1119,-6.1044,-6.0877,-6.1002,-6.1216,-6.1437,-6.1938,-6.2366,-6.2766,-6.3621,-6.4152,-6.424,-6.4551,-6.4681,-6.463,-6.5736,-6.6274,-6.6205,-6.7572,-6.8063,-6.7702,-6.8157,-6.855,-6.8896,-6.8401,-6.8451,-6.8896,-6.8797,-6.8945,-6.9237,-6.9334,-6.9643,-7.0052,-7.0052,-7.0265,-7.0593,-7.0367,-7.0746,-7.1189,0.0,0.0,0.0,0.0,0.0,0.0,0.0,0.0,0.0,0.0,0.0,0.0,0.0,0.0,0.0,0.0,0.0,0.0,0.0,0.0,0.0,0.0,0.0,0.0,0.0,0.0,0.0,0.0,0.0,0.0,0.0,0.0,0.0,0.0,0.0,0.0,0.0,0.0,0.0,0.0,0.0,0.0,-5.668,-5.668,0.0,0.0,0.0,0.0,0.0,0.0,0.0,-5.668,-5.668,-5.668,-5.668,-5.668,-5.6564,-5.648,-5.6603,-5.6402,-5.6126,-5.6119,-5.6643,-5.7241,-5.7576,-5.8544,-5.9432,-5.9718,-6.0249,-6.0591,-6.0239,-6.0666,-6.1002,-6.076,-6.0919,-6.1119,-6.1119,-6.1119,-6.1119,-6.1119,-6.1119,-6.1384,-6.2146,-6.2626,-6.3001,-6.329,-6.3942,-6.4426,-6.4702,-6.4305,-6.4583,-6.575,-6.6061,-6.6841,-6.8247,-6.8242,-6.8351,-6.86,-6.86,-6.8847,-6.9285,-6.855,-6.8649,-6.9334,-6.9091,-6.9026,-6.9108,-6.9351,-6.9876,-7.0535,-7.0535,-7.1193,-7.2018,-7.1985,-7.2018,-7.1902,0.0,0.0,0.0,0.0,0.0,0.0,0.0,0.0,0.0,0.0,0.0,0.0,0.0,0.0,0.0,0.0,0.0,0.0,0.0,0.0,0.0,0.0,0.0,0.0,0.0,0.0,0.0,0.0,0.0,0.0,0.0,0.0,0.0,0.0,0.0,0.0,0.0,0.0,0.0,0.0,0.0,0.0,-5.668,0.0,0.0,0.0,0.0,0.0,0.0,0.0,0.0,0.0,-5.668,-5.668,-5.668,-5.6525,-5.6525,-5.6525,-5.6126,-5.6165,-5.6336,-5.6377,-5.7151,-5.8035,-5.8535,-5.9422,-6.0148,-6.0388,-6.0463,-6.0548,-6.0793,-6.0835,-6.0877,-6.0961,-6.1077,-6.1119,-6.1119,-6.1119,-6.1119,-6.1119,-6.1119,-6.1447,-6.2322,-6.2706,-6.3141,-6.3775,-6.4096,-6.4426,-6.4702,-6.4948,-6.5165,-6.5502,-6.6757,-6.7459,-6.746,-6.8143,-6.855,-6.86,-6.86,-6.855,-6.8501,-6.8301,-6.855,-6.9091,-6.8797,-6.9272,-7.0108,-7.0206,-7.0634,-7.1375,-7.1523,-7.177,-7.1969,-7.1788,-7.2201,-7.273,0.0,0.0,0.0,0.0,0.0,0.0,0.0,0.0,0.0,0.0,0.0,0.0,0.0,0.0,0.0,0.0,0.0,0.0,0.0,0.0,0.0,0.0,0.0,0.0,0.0,0.0,0.0,0.0,0.0,0.0,0.0,0.0,0.0,0.0,0.0,0.0,0.0,0.0,0.0,0.0,0.0,0.0,0.0,0.0,0.0,0.0,0.0,0.0,0.0,0.0,0.0,-5.668,-5.6603,-5.6603,-5.6641,-5.6362,-5.6408,-5.6447,-5.6046,-5.6086,-5.6329,-5.6564,-5.7412,-5.8329,-5.871,-5.9587,-6.0282,-6.0249,-6.0249,-6.0325,-6.0453,-6.0591,-6.0717,0.0,0.0,0.0,-6.1119,-6.1119,-6.1119,0.0,-6.1384,-6.1929,-6.2749,-6.3144,-6.3702,-6.4439,-6.4472,-6.4472,-6.4412,-6.5017,-6.5491,-6.5673,-6.6923,-6.759,-6.7618,-6.8256,-6.86,-6.86,-6.86,-6.86,-6.855,-6.8451,-6.86,-6.8994,-6.9025,-6.9615,-7.0535,-7.0733,-7.1375,-7.2283,-7.2283,-7.2581,-7.2945,-7.2796,-7.311,-7.3575,0.0,0.0,0.0,0.0,0.0,0.0,0.0,0.0,0.0,0.0,0.0,0.0,0.0,0.0,0.0,0.0,0.0,0.0,0.0,0.0,0.0,0.0,0.0,0.0,0.0,0.0,0.0,0.0,0.0,0.0,0.0,0.0,0.0,0.0,0.0,0.0,0.0,0.0,0.0,0.0,0.0,0.0,0.0,0.0,0.0,0.0,0.0,0.0,0.0,0.0,-5.6779,-5.668,-5.6486,-5.6564,-5.6603,-5.6244,-5.6284,-5.6362,-5.6224,-5.6217,-5.6414,-5.6915,-5.7764,-5.8501,-5.8702,-5.948,-6.0109,-5.9804,-5.9979,-6.0066,-5.9848,-6.0292,-6.0633,-6.0463,0.0,-6.1119,-6.1119,-6.1119,-6.1119,-6.1119,-6.1748,-6.2477,-6.3163,-6.3716,-6.4264,-6.4988,-6.4839,-6.4583,-6.4247,-6.5085,-6.5786,-6.6355,-6.7003,-6.7668,-6.8251,-6.8501,-6.86,-6.86,-6.8649,-6.8748,-6.8896,-6.8699,-6.8813,-6.9141,-6.9564,-7.0106,-7.0782,-7.1258,-7.2099,-7.3093,-7.2942,-7.3406,-7.4171,-7.4171,-7.4221,-7.4221,0.0,0.0,0.0,0.0,0.0,0.0,0.0,0.0,0.0,0.0,0.0,0.0,0.0,0.0,0.0,0.0,0.0,0.0,0.0,0.0,0.0,0.0,0.0,0.0,0.0,0.0,0.0,0.0,0.0,0.0,0.0,0.0,0.0,0.0,0.0,0.0,0.0,0.0,0.0,0.0,0.0,0.0,0.0,0.0,0.0,0.0,0.0,0.0,0.0,0.0,-5.7177,-5.668,-5.6641,-5.668,-5.6641,-5.6441,-5.6402,-5.6422,-5.6613,-5.697,-5.742,-5.8105,-5.8993,-5.9663,-5.9534,-6.0065,0.0,-6.0109,-6.0195,-6.0335,-6.0292,-6.0506,-6.0675,-6.0633,-6.0919,-6.1119,-6.1119,-6.1119,-6.1119,0.0,-6.1748,-6.2401,-6.2946,-6.3584,-6.4219,-6.4728,-6.4748,-6.4918,-6.5493,-6.6024,-6.6809,-6.778,-6.7974,-6.8172,-6.855,-6.86,-6.86,-6.86,-6.8847,-6.8699,-6.8351,-6.8501,-6.8975,-6.9612,-6.9893,-7.0763,-7.1945,-7.2546,-7.2958,-7.3328,-7.377,-7.392,-7.3899,-7.412,-7.4221,-7.4221,0.0,0.0,0.0,0.0,0.0,0.0,0.0,0.0,0.0,0.0,-6.1119,0.0,0.0,0.0,0.0,0.0,0.0,0.0,0.0,0.0,0.0,0.0,0.0,0.0,0.0,0.0,0.0,-5.668,0.0,0.0,0.0,0.0,0.0,0.0,0.0,0.0,0.0,0.0,0.0,0.0,0.0,0.0,0.0,0.0,0.0,0.0,0.0,0.0,0.0,0.0,-5.8058,-5.7549,-5.6789,-5.6525,-5.6486,-5.6165,-5.6507,-5.6908,-5.6711,-5.7348,-5.8191,-5.8655,-5.9296,-5.9786,-5.9903,0.0,0.0,-5.9979,-6.0066,-6.0195,-6.0033,-6.0378,0.0,-6.0548,-6.0877,-6.1119,-6.1119,-6.1119,-6.1119,-6.1119,-6.208,-6.2832,-6.3109,-6.409,-6.4794,-6.4885,-6.5383,-6.5699,-6.5797,-6.6737,-6.7574,-6.8169,-6.8351,-6.8401,-6.8401,-6.8401,-6.8401,-6.8401,-6.8797,-6.8699,-6.8201,-6.9041,-6.9499,-6.974,-7.0489,-7.1411,-7.2474,-7.3021,-7.3434,-7.3782,-7.412,-7.412,-7.4019,-7.4171,-7.4221,-7.4221,0.0,0.0,0.0,0.0,0.0,0.0,0.0,0.0,-6.1119,-6.1119,-6.1119,-6.1119,-6.1119,-6.1119,0.0,0.0,0.0,0.0,0.0,0.0,0.0,0.0,0.0,0.0,0.0,0.0,0.0,-5.668,-5.668,0.0,0.0,0.0,0.0,0.0,-5.6846,0.0,0.0,0.0,0.0,0.0,0.0,0.0,0.0,0.0,0.0,0.0,0.0,0.0,0.0,0.0,-5.901,-5.8657,-5.7298,-5.6863,-5.679,-5.6301,-5.688,-5.7591,-5.7232,-5.7895,-5.8766,-5.9193,-5.9568,-5.9867,-6.0065,-6.0282,0.0,-5.9804,-5.9935,-6.0066,-5.976,0.0,-6.0675,0.0,-6.0793,-6.1119,-6.1119,-6.1119,-6.1119,0.0,-6.2378,0.0,-6.3315,-6.4564,-6.5291,-6.5099,-6.6027,-6.6496,-6.6289,-6.7391,-6.8095,-6.8201,-6.8451,-6.8501,-6.8301,-6.8301,-6.8301,-6.8301,-6.8699,-6.8747,-6.846,-6.9564,-7.0122,-7.0095,-7.1129,-7.2078,-7.2838,-7.3244,-7.3628,-7.4019,-7.4171,-7.412,-7.4019,-7.4171,-7.4221,-7.4221,0.0,0.0,0.0,0.0,0.0,0.0,0.0,0.0,-6.1119,-6.1119,-6.1119,-6.1119,-6.1119,-6.1119,0.0,0.0,0.0,0.0,0.0,0.0,0.0,0.0,0.0,0.0,0.0,0.0,0.0,-5.668,-5.668,0.0,0.0,0.0,0.0,0.0,0.0,-5.7707,-5.774,0.0,0.0,0.0,0.0,0.0,0.0,0.0,0.0,0.0,0.0,0.0,0.0,0.0,0.0,-5.9679,-5.8723,-5.8378,-5.8247,-5.7548,0.0,0.0,-5.9111,-5.9133,-5.9184,-6.0073,-6.045,-6.0492,-6.0163,0.0,-6.0249,-5.9804,-6.0066,-6.0206,-5.9804,-6.0453,-6.0919,-6.0463,0.0,-6.1119,-6.1119,-6.1119,-6.1119,-6.1119,0.0,0.0,-6.3315,-6.4564,-6.5291,-6.5099,-6.6199,-6.7108,-6.7683,-6.803,-6.8186,-6.8201,-6.8451,-6.86,-6.855,-6.855,-6.855,-6.855,-6.86,-6.8826,-6.9224,-6.9793,-7.0493,-7.1298,-7.1947,-7.263,-7.3272,-7.3628,-7.3609,-7.3473,-7.4019,-7.3833,-7.3473,-7.4019,-7.4221,-7.4221,0.0,0.0,0.0,0.0,0.0,0.0,0.0,-6.1119,-6.1119,-6.1119,-6.1119,-6.1119,-6.1119,-6.1119,0.0,0.0,0.0,0.0,0.0,0.0,0.0,0.0,0.0,0.0,0.0,0.0,-5.8303,-5.8005,-5.8005,0.0,0.0,0.0,0.0,0.0,0.0,-5.8469,-5.8469,0.0,0.0,0.0,0.0,0.0,0.0,0.0,0.0,0.0,0.0,0.0,0.0,0.0,0.0,0.0,-5.9308,-5.9407,0.0,0.0,-5.8396,-5.8945,-5.9324,-5.9539,-5.9836,-6.044,-6.0548,-6.0463,-6.0325,0.0,-6.042,-5.9848,-6.0163,-6.0463,-6.0022,-6.0581,-6.0961,0.0,0.0,0.0,-6.1119,-6.1119,-6.1251,-6.1682,-6.2643,-6.3481,0.0,-6.4829,-6.5745,-6.6548,-6.6865,-6.7593,-6.8744,-6.8732,-6.86,-6.8451,-6.855,-6.8501,-6.8351,-6.8351,-6.8351,-6.8351,-6.8501,-6.8841,-6.9353,-7.0282,-7.0982,-7.144,-7.2437,-7.3056,-7.3285,-7.3422,-7.3628,-7.3833,-7.3917,-7.3917,-7.3833,-7.3917,-7.4001,-7.4001,0.0,0.0,0.0,0.0,0.0,0.0,-6.1119,-6.1119,-6.1119,-6.1119,-6.1119,-6.1119,-6.1119,-6.1119,-6.1119,-6.1119,0.0,0.0,0.0,0.0,0.0,0.0,0.0,0.0,0.0,0.0,-5.9131,-5.8899,-5.8899,-5.8899,0.0,0.0,-5.8899,-5.8899,0.0,0.0,0.0,0.0,0.0,0.0,0.0,0.0,0.0,0.0,0.0,0.0,0.0,0.0,0.0,0.0,0.0,0.0,0.0,0.0,0.0,0.0,-5.9076,-5.975,-5.9792,-6.0017,-6.0282,-6.0717,-6.0633,-6.0463,0.0,0.0,-6.0548,-6.0022,-6.0335,-6.0591,-6.0282,-6.0666,-6.1002,0.0,0.0,-6.1119,-6.1119,-6.1119,-6.1384,-6.2122,0.0,-6.3614,-6.4299,-6.5149,-6.6118,-6.7407,-6.7438,-6.7955,-6.922,-6.9091,-6.8896,-6.8748,-6.8649,-6.8501,-6.8301,-6.8401,-6.8351,-6.8201,-6.8728,-6.9184,-6.9779,-7.0903,-7.1602,-7.1921,-7.2881,-7.3285,-7.3285,-7.3285,-7.3577,-7.3884,-7.3848,-7.3866,-7.3884,-7.3815,-7.3848,-7.3899,0.0,0.0,0.0,0.0,0.0,0.0,0.0,-6.1119,-6.1119,-6.1119,-6.1119,-6.1119,-6.1119,-6.1119,-6.1119,-6.1119,0.0,0.0,0.0,0.0,0.0,0.0,0.0,0.0,0.0,0.0,-5.9628,-5.8899,-5.8899,-5.8899,-5.8899,-5.8899,-5.8899,-5.8933,0.0,0.0,0.0,0.0,0.0,0.0,0.0,0.0,0.0,0.0,0.0,0.0,0.0,0.0,0.0,0.0,0.0,0.0,0.0,0.0,0.0,0.0,-5.9957,-6.076,-6.1002,-6.075,-6.0506,-6.0961,-6.0919,-6.0717,0.0,0.0,-6.0633,-6.042,-6.0548,-6.0633,-6.042,-6.0793,-6.1002,-6.0717,0.0,0.0,-6.1119,-6.1119,-6.1384,0.0,0.0,-6.3614,-6.4299,-6.5511,-6.645,-6.7128,-6.7695,-6.8321,-6.8961,-6.8994,-6.8994,-6.8994,-6.8748,-6.86,-6.86,-6.8847,-6.8748,-6.8201,-6.9216,-7.0066,-7.0833,-7.1551,-7.2248,-7.29,-7.3214,-7.3285,-7.3285,-7.3285,-7.3285,-7.337,-7.3661,-7.3609,-7.337,-7.3661,-7.4001,-7.4171,0.0,0.0,0.0,0.0,0.0,0.0,0.0,0.0,-6.1119,-6.1119,-6.1119,-6.1119,-6.1119,-6.1119,-6.1119,-6.1119,0.0,0.0,0.0,0.0,0.0,0.0,0.0,0.0,0.0,0.0,-6.0655,-6.0423,-6.0423,-6.0423,-6.0423,-6.0423,-6.0423,-6.0423,-6.0655,-6.0755,0.0,0.0,0.0,0.0,0.0,0.0,-6.1119,0.0,0.0,0.0,0.0,0.0,0.0,0.0,0.0,0.0,0.0,0.0,0.0,-6.0337,-6.0299,-6.041,-6.0919,-6.0538,-6.0109,-6.0877,-6.0793,-6.0548,-6.0675,0.0,-6.0877,-6.0463,-6.0708,-6.0919,-6.0633,-6.0877,-6.1044,-6.1002,0.0,0.0,0.0,0.0,0.0,-6.2818,-6.4001,-6.4829,-6.5061,-6.5865,-6.668,-6.744,-6.8121,-6.8719,-6.9252,-6.9285,-6.9188,-6.8994,-6.8748,-6.86,-6.86,-6.8501,-6.8351,-6.8201,-6.9047,-6.9914,-7.0866,-7.1583,-7.2248,-7.29,-7.3214,-7.3285,-7.3285,-7.311,-7.3299,-7.3609,-7.3473,-7.3525,-7.3609,-7.3473,-7.3661,-7.3866,0.0,0.0,0.0,0.0,0.0,0.0,0.0,0.0,-6.1119,-6.1119,-6.1119,-6.1119,-6.1119,-6.1119,-6.1119,-6.1119,0.0,0.0,0.0,0.0,0.0,0.0,0.0,0.0,0.0,-6.1119,-6.1119,-6.1119,-6.1119,-6.1119,-6.1119,-6.1119,-6.1119,-6.1119,-6.1119,-6.1119,0.0,0.0,0.0,0.0,0.0,0.0,-6.1119,0.0,0.0,0.0,0.0,0.0,0.0,0.0,0.0,0.0,0.0,0.0,0.0,0.0,-6.0581,-6.0368,0.0,-6.0623,-6.0239,-6.0919,-6.0793,-6.0548,0.0,0.0,0.0,-6.0708,-6.0877,-6.1044,-6.0877,-6.1002,-6.1119,-6.1119,-6.1119,0.0,0.0,0.0,0.0,-6.3107,0.0,0.0,-6.5823,-6.6485,-6.7202,-6.7837,-6.8564,-6.9064,-6.9237,-6.9334,-6.9285,-6.8994,-6.8748,-6.8649,-6.8748,-6.8501,-6.8351,-6.8351,-6.9357,-7.0174,-7.0815,-7.1688,-7.2404,-7.29,-7.3214,-7.3285,0.0,-7.311,-7.3266,-7.3609,-7.337,-7.337,-7.3454,-7.337,-7.3422,-7.3609,0.0,0.0,0.0,0.0,0.0,0.0,0.0,0.0,0.0,0.0,0.0,-6.1119,-6.1119,-6.1119,0.0,0.0,0.0,0.0,0.0,0.0,0.0,0.0,0.0,0.0,0.0,-6.1119,-6.1119,-6.1119,-6.1119,-6.1119,-6.1119,-6.1119,-6.1119,-6.1119,-6.1119,-6.1119,0.0,0.0,0.0,0.0,-6.1119,-6.1119,0.0,0.0,0.0,0.0,0.0,0.0,0.0,0.0,0.0,0.0,0.0,0.0,0.0,0.0,0.0,0.0,0.0,-6.0919,-6.076,-6.1002,-6.0919,-6.076,-6.1044,0.0,0.0,0.0,0.0,0.0,-6.1119,-6.1119,-6.1119,-6.1119,0.0,0.0,0.0,-6.1185,0.0,0.0,-6.4564,-6.569,-6.6452,-6.7181,-6.7817,-6.8276,-6.9035,-6.9285,-6.9042,-6.9285,-6.9285,-6.8994,-6.8748,-6.8748,-6.8994,-6.8699,-6.86,-6.86,-7.0048,-7.0815,-7.0815,-7.2019,-7.2668,-7.2932,-7.3162,-7.3285,-7.3285,-7.3318,-7.3285,-7.3285,-7.3285,-7.3162,-7.2985,-7.3214,-7.3318,-7.337,0.0,0.0,0.0,0.0,0.0,0.0,0.0,0.0,0.0,0.0,0.0,-6.1119,-6.1119,-6.1119,0.0,0.0,0.0,0.0,0.0,0.0,0.0,0.0,0.0,0.0,0.0,-6.1119,-6.1119,-6.1119,-6.1119,-6.1119,-6.1119,-6.1119,-6.1119,-6.1119,-6.1119,-6.1119,0.0,0.0,0.0,0.0,-6.1119,-6.1119,0.0,0.0,0.0,0.0,-6.1119,-6.1119,0.0,0.0,0.0,0.0,0.0,0.0,0.0,0.0,-6.0877,-6.0675,-6.1002,0.0,-6.0548,-6.0961,-6.0919,-6.076,0.0,0.0,0.0,0.0,0.0,0.0,0.0,0.0,0.0,0.0,0.0,-6.1119,-6.1119,0.0,0.0,-6.3968,-6.4862,-6.569,-6.6452,-6.7181,-6.7864,-6.8545,-6.9273,-6.9607,-6.9334,-6.9559,-6.9415,-6.8699,-6.9042,-6.914,-6.8994,-6.855,-6.8401,-6.8633,-6.9895,-7.061,-7.0815,-7.2019,-7.2668,-7.2932,-7.2952,-7.311,-7.3285,-7.3057,-7.311,-7.3285,-7.3285,-7.3266,-7.3214,-7.3318,-7.3473,-7.3661,0.0,0.0,0.0,0.0,0.0,0.0,0.0,0.0,0.0,0.0,0.0,0.0,0.0,0.0,0.0,0.0,0.0,0.0,0.0,0.0,0.0,0.0,0.0,0.0,-6.1119,-6.1119,-6.1119,-6.1119,-6.1119,-6.1119,-6.1119,-6.1119,-6.1119,-6.1119,-6.145,-6.1417,-6.1119,-6.145,-6.1417,-6.1119,-6.1119,0.0,0.0,0.0,0.0,0.0,-6.1119,-6.1119,0.0,-6.1119,-6.1119,-6.1119,0.0,0.0,0.0,0.0,-6.1002,-6.0919,-6.1077,-6.0835,-6.0633,-6.1035,-6.0919,-6.076,-6.1044,0.0,0.0,0.0,0.0,0.0,0.0,0.0,0.0,0.0,-6.1119,0.0,0.0,0.0,-6.3537,-6.4266,-6.4962,-6.5823,-6.6916,-6.7334,-6.8076,-6.9103,-6.9471,-6.9607,-6.9574,-6.9574,-6.9334,-6.8797,-6.9188,-6.9285,-6.8994,-6.86,-6.8501,-6.883,-6.9997,-7.061,-7.0642,-7.2071,-7.2721,-7.2721,-7.2952,-7.3162,-7.3285,-7.3162,-7.3266,-7.3473,-7.337,-7.3214,-7.311,-7.3233,-7.3266,-7.3194,0.0,0.0,0.0,0.0,0.0,0.0,0.0,0.0,0.0,0.0,0.0,0.0,0.0,0.0,0.0,0.0,0.0,0.0,0.0,0.0,0.0,0.0,0.0,-6.1119,-6.1119,-6.1119,-6.1119,-6.1119,-6.1119,-6.1119,-6.1119,-6.1119,-6.1152,-6.1318,-6.1914,-6.1914,-6.1483,-6.208,-6.1914,-6.1285,-6.1285,0.0,0.0,0.0,0.0,0.0,0.0,0.0,0.0,-6.1119,-6.1119,-6.1119,-6.1119,0.0,0.0,0.0,0.0,0.0,-6.1119,-6.0919,-6.0835,-6.1044,-6.0919,-6.0802,0.0,0.0,0.0,0.0,0.0,0.0,0.0,-6.1119,0.0,0.0,0.0,0.0,-6.2288,-6.3017,-6.3703,-6.4432,-6.516,-6.6121,-6.7466,-6.7665,-6.8341,-6.9699,-6.9607,-6.9559,-6.9798,-6.9574,-6.9334,-6.8994,-6.9285,-6.9285,-6.8945,-6.8699,-6.8748,-6.9026,-7.0217,-7.0629,-7.0468,-7.2124,-7.2774,-7.2562,-7.3057,-7.3285,-7.3285,-7.3285,-7.3473,-7.3797,-7.3422,-7.3214,-7.309,-7.3266,-7.3057,-7.2774,0.0,0.0,0.0,0.0,0.0,0.0,0.0,0.0,0.0,0.0,0.0,0.0,0.0,0.0,0.0,0.0,0.0,0.0,0.0,0.0,0.0,0.0,-6.1119,-6.1119,-6.1119,-6.1119,-6.1119,-6.1119,-6.1119,-6.1119,-6.1119,-6.1119,-6.1417,-6.2056,-6.2155,-6.2487,-6.2984,-6.3073,-6.2719,-6.2056,-6.2056,0.0,0.0,0.0,0.0,0.0,0.0,0.0,0.0,-6.1119,-6.1119,-6.1119,-6.1119,0.0,0.0,0.0,0.0,0.0,-6.1119,-6.1077,-6.1044,-6.1119,-6.1077,-6.1044,0.0,0.0,0.0,0.0,0.0,0.0,0.0,0.0,-6.1119,0.0,0.0,-6.2321,0.0,0.0,-6.4432,-6.516,-6.5922,-6.6684,-6.7499,-6.8175,-6.8871,-6.9732,-6.9751,-6.9751,-6.9798,-6.9751,-6.9478,-6.8994,-6.9478,-6.9382,-6.8649,-6.86,-6.8748,-6.9026,-7.0217,-7.0629,-7.0468,-7.2124,-7.2774,-7.2562,-7.3057,-7.3285,-7.3285,-7.3285,-7.3473,-7.3797,-7.3422,-7.3422,-7.3609,-7.337,-7.3422,-7.3642,0.0,0.0,0.0,0.0,0.0,0.0,0.0,0.0,0.0,0.0,0.0,0.0,0.0,0.0,0.0,0.0,0.0,0.0,0.0,0.0,0.0,-6.1119,-6.1119,-6.1119,-6.1119,-6.1119,-6.1119,-6.1119,-6.1119,-6.1119,-6.1119,-6.1516,-6.189,-6.2255,-6.305,-6.3382,-6.3348,-6.3746,-6.3481,-6.2785,0.0,0.0,0.0,0.0,0.0,0.0,0.0,0.0,0.0,0.0,-6.1119,-6.1119,-6.1119,0.0,0.0,0.0,0.0,0.0,-6.1119,-6.1119,-6.1119,-6.1119,-6.1119,-6.1119,0.0,0.0,0.0,0.0,0.0,0.0,0.0,0.0,-6.1119,-6.1119,0.0,-6.2487,-6.3216,-6.3902,-6.4597,-6.5326,-6.6055,-6.6817,-6.7499,-6.8274,-6.9003,-6.9732,-6.9798,-6.9798,-6.9798,-6.9798,-6.9655,-6.9237,-6.9607,-6.9478,-6.8797,-6.8797,-6.8797,-6.883,-7.0267,-7.0782,-7.0468,-7.23,-7.2952,-7.2774,-7.3162,-7.3422,-7.3558,-7.337,-7.3577,-7.3968,-7.3473,-7.337,-7.3473,-7.3162,-7.3266,-7.3558,0.0,0.0,0.0,0.0,0.0,0.0,0.0,0.0,0.0,0.0,0.0,0.0,0.0,0.0,0.0,0.0,0.0,0.0,0.0,0.0,-6.1119,-6.1119,-6.1119,-6.1119,-6.1119,-6.1119,-6.1119,-6.1119,-6.1119,-6.1119,-6.1119,-6.1848,-6.2288,-6.252,-6.3846,-6.4167,-6.3802,-6.4365,-6.41,-6.3282,0.0,0.0,0.0,0.0,0.0,0.0,0.0,0.0,0.0,0.0,0.0,0.0,0.0,0.0,0.0,-6.1119,-6.1119,-6.1119,-6.1119,-6.1119,-6.1119,-6.1119,0.0,0.0,0.0,0.0,0.0,0.0,0.0,0.0,0.0,-6.1119,0.0,-6.1318,-6.1947,-6.2719,-6.3438,-6.4167,-6.4895,-6.5591,-6.632,-6.7082,-6.7811,-6.8506,-6.9169,-6.9765,-6.9798,-6.9798,-6.9798,-6.9798,-6.9703,-6.9382,-6.9655,-6.9478,-6.8896,-6.8945,-6.8896,-6.8699,-7.0368,-7.0935,-7.0572,-7.2508,-7.3214,-7.2932,-7.3266,-7.3558,-7.3661,-7.3473,-7.3679,-7.407,-7.3577,-7.3422,-7.3422,-7.3299,-7.3266,-7.3473,0.0,0.0,0.0,0.0,0.0,0.0,0.0,0.0,0.0,0.0,0.0,0.0,0.0,0.0,0.0,0.0,0.0,0.0,0.0,0.0,-6.1119,-6.1119,-6.1119,-6.1119,-6.1119,-6.1119,-6.1119,-6.1119,-6.1119,-6.1119,-6.1119,-6.1848,-6.2586,-6.3282,-6.4034,-6.4697,-6.526,-6.5326,-6.4531,-6.3315,-6.3249,0.0,0.0,0.0,0.0,0.0,0.0,0.0,0.0,0.0,0.0,0.0,0.0,0.0,-6.1119,-6.1119,-6.1119,-6.1119,-6.1119,-6.1119,-6.1119,-6.1119,-6.1119,0.0,-6.1119,-6.1119,0.0,-6.1119,0.0,0.0,0.0,-6.1119,-6.1318,-6.2022,-6.2752,-6.3481,-6.4243,-6.4895,-6.5624,-6.6353,-6.7082,-6.7811,-6.8539,-6.9268,-6.9732,-6.9798,-6.9798,-6.9798,-6.9798,-6.9798,-6.9703,-6.9382,-6.9655,-6.943,-6.8649,-6.8896,-6.8994,-6.9026,-7.0501,-7.1037,-7.0829,-7.2882,-7.3454,-7.2932,-7.3506,-7.3609,-7.337,-7.3661,-7.3797,-7.3848,-7.3797,-7.3797,-7.3797,-7.4019,-7.3968,-7.3797,0.0,0.0,0.0,0.0,0.0,0.0,0.0,0.0,0.0,0.0,0.0,0.0,0.0,0.0,0.0,0.0,0.0,0.0,0.0,0.0,-6.1119,-6.1119,-6.1119,-6.1119,-6.1119,-6.1119,-6.1119,-6.1119,-6.155,-6.1748,-6.1781,-6.2974,-6.367,-6.4001,-6.4697,-6.516,-6.5425,-6.5425,-6.4862,-6.3935,-6.3471,-6.2676,0.0,0.0,0.0,0.0,0.0,0.0,0.0,0.0,-6.1119,0.0,0.0,0.0,-6.1119,-6.1119,-6.1119,-6.1119,-6.1119,-6.1119,-6.1119,-6.1119,0.0,0.0,0.0,-6.1119,-6.1119,-6.1119,-6.1119,0.0,0.0,0.0,-6.189,-6.2155,-6.3216,-6.4067,-6.4332,-6.4962,-6.569,-6.6419,-6.7181,-6.791,-6.8606,-6.9368,-6.9798,-6.9798,-6.9798,-6.9798,-6.9798,-6.9798,-6.9751,-6.9655,-6.9751,-6.9478,-6.8847,-6.9091,-6.914,-6.8994,-7.0009,-7.0612,-7.0848,-7.2204,-7.2944,-7.3162,-7.337,-7.3628,-7.3833,-7.3815,-7.3899,-7.4019,-7.3899,-7.3797,-7.3797,-7.395,-7.3899,-7.3848,0.0,0.0,0.0,0.0,0.0,0.0,0.0,0.0,0.0,0.0,0.0,0.0,0.0,0.0,0.0,0.0,0.0,0.0,0.0,-6.1119,-6.1119,-6.1119,-6.1119,-6.1119,-6.1119,-6.1318,-6.145,-6.145,-6.2221,-6.2553,-6.2586,-6.3769,-6.4365,-6.4399,-6.5094,-6.5425,-6.5392,-6.5194,-6.4697,-6.3968,-6.3282,-6.252,0.0,0.0,0.0,0.0,0.0,0.0,0.0,0.0,0.0,0.0,0.0,0.0,0.0,0.0,-6.1119,-6.1119,-6.1119,-6.1119,-6.1119,0.0,0.0,0.0,0.0,-6.1119,-6.1119,-6.1119,-6.1285,-6.145,-6.145,0.0,0.0,-6.2884,-6.3746,-6.4465,-6.4664,-6.5127,-6.579,-6.6705,-6.7268,-6.8009,-6.8937,-6.95,-6.9798,-6.9798,-6.9751,-6.9703,-6.9798,-6.9751,-6.9703,-6.9798,-6.9798,-6.9607,-6.914,-6.9285,-6.9285,-6.914,-6.9534,-7.0172,-7.095,-7.1909,-7.2733,-7.3285,-7.3525,-7.3782,-7.407,-7.4001,-7.4019,-7.4171,-7.3968,-7.395,-7.395,-7.395,-7.395,-7.3917,0.0,0.0,0.0,0.0,0.0,0.0,0.0,0.0,0.0,0.0,0.0,0.0,0.0,0.0,0.0,0.0,0.0,0.0,-6.1119,-6.1119,-6.1119,-6.1119,-6.1119,-6.1119,-6.1119,-6.1815,-6.2221,-6.2221,-6.2984,-6.3315,-6.3348,-6.4034,-6.4399,-6.4432,-6.5094,-6.5392,-6.5359,-6.4664,-6.3935,-6.3249,-6.252,-6.1748,-6.1119,0.0,0.0,0.0,0.0,0.0,0.0,0.0,0.0,0.0,0.0,0.0,0.0,0.0,-6.1119,-6.1119,-6.1119,-6.1119,0.0,0.0,0.0,0.0,0.0,-6.1119,-6.1119,-6.1119,-6.1682,-6.2221,-6.2221,-6.2818,-6.358,-6.4266,-6.4399,-6.463,-6.5326,-6.5425,-6.5989,-6.74,-6.7599,-6.8208,-6.9666,-6.9798,-6.9798,-6.9798,-6.9526,-6.9526,-6.9798,-6.9559,-6.9559,-6.9798,-6.9798,-6.9703,-6.9382,-6.9382,-6.9382,-6.9382,-6.914,-6.978,-7.1254,-7.2196,-7.2919,-7.3337,-7.3935,-7.4019,-7.3848,-7.407,-7.4221,-7.4221,-7.4221,-7.4221,-7.4221,-7.4221,-7.4221,-7.4221,0.0,0.0,0.0,0.0,0.0,0.0,0.0,0.0,0.0,0.0,0.0,0.0,0.0,0.0,0.0,0.0,0.0,0.0,-6.1119,-6.1119,-6.1119,-6.1119,-6.1119,-6.1119,-6.1119,-6.2312,-6.2984,-6.2984,-6.3746,-6.4034,-6.4067,-6.4763,-6.5094,-6.5094,-6.4829,-6.4697,-6.463,-6.3902,-6.3216,-6.252,-6.2288,-6.1748,-6.1119,0.0,0.0,0.0,0.0,0.0,0.0,0.0,0.0,0.0,0.0,0.0,0.0,0.0,-6.1119,-6.1119,-6.1119,0.0,0.0,0.0,0.0,0.0,0.0,0.0,0.0,0.0,-6.1682,-6.2221,-6.2221,-6.3249,-6.4133,-6.4332,-6.4796,-6.5194,-6.5392,-6.5856,-6.6552,-6.7466,-6.8076,-6.8738,-6.9699,-6.9798,-6.9798,-6.9798,-6.9751,-6.9703,-6.9798,-6.9751,-6.9751,-6.9798,-6.9798,-6.9703,-6.9382,-6.9607,-6.9607,-6.9382,-6.9334,-6.9812,-7.0716,-7.139,-7.2112,-7.2937,-7.3617,-7.3968,-7.407,-7.4171,-7.4221,-7.4221,-7.4221,-7.4221,-7.4221,-7.4221,-7.4221,-7.4221,0.0,0.0,0.0,0.0,0.0,0.0,0.0,0.0,0.0,0.0,-6.1119,-6.1119,0.0,0.0,0.0,0.0,0.0,0.0,0.0,0.0,-6.1119,-6.1119,-6.1119,-6.1384,-6.1947,-6.2842,-6.3537,-6.4133,-6.4564,-6.4796,-6.4796,-6.5227,-6.526,-6.4995,-6.4564,-6.4233,-6.3902,-6.3183,-6.2619,-6.2188,-6.1848,-6.1483,-6.1119,0.0,0.0,0.0,0.0,0.0,0.0,0.0,0.0,0.0,0.0,0.0,0.0,-6.1119,-6.1119,-6.1119,-6.1119,0.0,0.0,0.0,0.0,0.0,0.0,0.0,0.0,0.0,-6.2113,-6.2752,-6.305,-6.4001,-6.4796,-6.4796,-6.516,-6.5425,-6.5425,-6.6055,-6.6784,-6.7499,-6.8241,-6.897,-6.9732,-6.9798,-6.9798,-6.9798,-6.9703,-6.9703,-6.9798,-6.9703,-6.9703,-6.9798,-6.9798,-6.9751,-6.9559,-6.9751,-6.9751,-6.9559,-6.943,-6.9661,-7.0253,-7.1029,-7.1834,-7.2742,-7.362,-7.4019,-7.4221,-7.4221,-7.4221,-7.4221,-7.4221,-7.4221,-7.4221,-7.4221,-7.4221,-7.4221,0.0,0.0,-6.1119,-6.1119,0.0,0.0,0.0,0.0,0.0,0.0,-6.1119,-6.1119,0.0,0.0,0.0,0.0,0.0,0.0,0.0,0.0,-6.1119,-6.1119,-6.1119,-6.1748,-6.3183,-6.3216,-6.3835,-6.5227,-6.5359,-6.5392,-6.5326,-6.5326,-6.4962,-6.431,-6.42,-6.3802,-6.3183,-6.242,-6.2122,-6.2056,-6.1384,-6.1119,-6.1119,-6.1119,0.0,0.0,0.0,0.0,0.0,0.0,0.0,0.0,0.0,0.0,0.0,-6.1119,-6.1119,-6.1119,0.0,0.0,0.0,0.0,0.0,0.0,0.0,0.0,0.0,-6.2089,0.0,-6.3547,-6.4233,-6.4962,-6.5425,-6.5425,-6.5425,-6.5425,-6.5492,-6.6154,-6.6837,-6.7599,-6.8341,-6.9036,-6.9732,-6.9798,-6.9798,-6.9798,-6.9574,-6.9559,-6.9798,-6.9559,-6.9559,-6.9798,-6.9798,-6.9798,-6.9798,-6.9798,-6.9798,-6.9798,-6.9526,-6.9526,-6.9831,-7.1078,-7.2018,-7.2892,-7.3772,-7.4221,-7.4221,-7.4221,-7.4221,-7.4221,-7.4221,-7.4221,-7.4221,-7.4221,-7.4221,-7.4221,0.0,0.0,-6.1119,-6.1119,0.0,0.0,0.0,0.0,0.0,0.0,0.0,0.0,0.0,-6.1119,0.0,0.0,0.0,0.0,0.0,0.0,-6.1119,-6.1119,-6.1119,-6.1516,-6.242,-6.2453,-6.2884,-6.3736,-6.4862,-6.5127,-6.4597,-6.4597,-6.42,-6.3514,-6.2951,-6.2619,-6.2387,-6.1649,-6.1351,-6.1318,-6.1152,-6.1119,-6.1119,-6.1119,-6.1119,0.0,0.0,0.0,0.0,0.0,0.0,0.0,0.0,-6.1119,-6.1119,-6.1119,-6.1119,0.0,0.0,0.0,0.0,0.0,0.0,0.0,0.0,0.0,0.0,-6.2188,-6.2818,-6.3547,-6.4233,-6.4962,-6.5425,-6.5425,-6.5425,-6.5624,-6.6187,-6.6916,-6.7645,-6.8374,-6.9103,-6.9633,-6.9765,-6.9798,-6.9798,-6.9798,-6.9751,-6.9751,-6.9798,-6.9751,-6.9751,-6.9798,-6.9798,-6.9798,-6.9798,-6.9798,-6.9798,-6.9798,-6.9751,-6.9751,-6.9831,-7.1078,-7.2464,-7.3889,-7.4105,-7.4221,-7.4221,-7.4221,-7.4221,-7.4221,-7.4221,-7.4221,-7.4221,-7.4221,-7.4221,-7.4221,0.0,0.0,0.0,0.0,0.0,0.0,0.0,0.0,0.0,0.0,0.0,0.0,0.0,-6.1119,0.0,0.0,-6.1119,0.0,0.0,0.0,-6.1119,-6.1119,-6.1119,-6.145,-6.2188,-6.2221,-6.2586,-6.3315,-6.4034,-6.42,-6.3879,-6.3879,-6.3481,-6.2785,-6.2387,-6.2022,-6.1649,-6.1251,-6.1119,-6.1119,-6.1119,-6.1119,-6.1119,-6.1119,-6.1119,-6.1119,-6.1119,0.0,0.0,0.0,0.0,0.0,0.0,0.0,-6.1119,-6.1119,-6.1119,-6.1119,0.0,0.0,0.0,0.0,0.0,0.0,0.0,0.0,0.0,-6.2652,-6.3315,-6.4034,-6.473,-6.516,-6.5425,-6.5425,-6.5425,-6.5657,-6.6419,-6.7102,-6.7877,-6.8606,-6.9334,-6.9798,-6.9798,-6.9798,-6.9798,-6.9798,-6.9798,-6.9798,-6.9798,-6.9798,-6.9798,-6.9798,-6.9798,-6.9798,-6.9798,-6.9798,-6.9798,-6.9798,-6.9798,-6.9964,-7.0361,-7.1341,-7.2465,-7.3674,-7.4038,-7.4221,-7.4221,-7.4221,-7.4221,-7.4221,-7.4221,-7.4221,-7.4221,-7.4221,-7.4221,-7.4221,0.0,0.0,0.0,0.0,0.0,0.0,0.0,0.0,0.0,0.0,0.0,0.0,0.0,0.0,-6.1119,0.0,0.0,0.0,0.0,-6.1119,-6.1119,-6.1119,-6.1119,-6.1384,-6.2022,-6.2022,-6.2278,-6.2908,-6.2908,-6.2908,-6.2908,-6.3083,-6.2719,-6.2022,-6.2022,-6.1649,-6.1119,-6.1119,-6.1119,-6.1119,-6.1119,-6.1119,-6.1119,-6.1119,-6.1119,-6.1119,-6.1119,-6.1119,-6.1119,-6.1119,0.0,0.0,0.0,0.0,-6.1119,-6.1119,-6.1119,-6.1119,0.0,0.0,0.0,0.0,0.0,0.0,0.0,0.0,0.0,-6.3348,-6.4011,-6.4597,-6.5293,-6.5425,-6.5425,-6.5425,-6.5525,-6.5856,-6.6618,-6.7347,-6.8076,-6.8804,-6.9434,-6.9798,-6.9798,-6.9798,-6.9798,-6.9798,-6.9798,-6.9798,-6.9798,-6.9798,-6.9798,-6.9798,-6.9798,-6.9798,-6.9798,-6.9798,-6.9798,-6.9798,-6.9798,-7.0096,-7.0726,-7.162,-7.2415,-7.3144,-7.3873,-7.4221,-7.4221,-7.4221,-7.4221,-7.4221,-7.4221,-7.4221,-7.4221,-7.4221,-7.4221,-7.4221,0.0,0.0,0.0,0.0,0.0,0.0,0.0,0.0,0.0,0.0,-6.1119,-6.1119,0.0,0.0,0.0,-6.1119,-6.1119,0.0,-6.1119,0.0,0.0,-6.1119,-6.1119,-6.1152,-6.1251,-6.1251,-6.1318,-6.1384,-6.1384,-6.1384,0.0,-6.2047,-6.1947,-6.1251,-6.1251,-6.1185,-6.1119,-6.1119,-6.1119,-6.1119,-6.1119,-6.1119,-6.1119,-6.1119,-6.1119,-6.1119,-6.1119,-6.1119,-6.1119,-6.1119,-6.1119,0.0,0.0,0.0,-6.1119,-6.1119,-6.1119,0.0,0.0,0.0,0.0,0.0,0.0,0.0,0.0,0.0,0.0,0.0,-6.4299,-6.4597,-6.5293,-6.5425,-6.5425,-6.5425,-6.5955,-6.6618,-6.7334,-6.8109,-6.8837,-6.9566,-6.9732,-6.9798,-6.9798,-6.9798,-6.9798,-6.9798,-6.9798,-6.9798,-6.9798,-6.9798,-6.9798,-6.9798,-6.9798,-6.9798,-6.9798,-6.9798,-6.9798,-6.9798,-6.9798,-6.9831,-6.9997,-7.1355,-7.2415,-7.3144,-7.3873,-7.4221,-7.4221,-7.4221,-7.4221,-7.4221,-7.4221,-7.4221,-7.4221,-7.4221,-7.4221,-7.4221,0.0,0.0,0.0,0.0,0.0,0.0,0.0,0.0,0.0,0.0,0.0,-6.1119,0.0,0.0,0.0,0.0,0.0,0.0,-6.1119,-6.1119,0.0,-6.1119,-6.1119,-6.1119,-6.1119,-6.1119,-6.1119,-6.1119,-6.1119,0.0,0.0,-6.1417,-6.1417,-6.1119,-6.1119,-6.1119,-6.1119,-6.1119,-6.1119,-6.1119,-6.1119,-6.1119,-6.1119,-6.1119,-6.1119,-6.1119,-6.1119,-6.1119,-6.1119,-6.1119,-6.1119,-6.1119,-6.1119,0.0,0.0,0.0,-6.1119,0.0,0.0,0.0,0.0,0.0,0.0,0.0,0.0,0.0,-6.3514,-6.42,-6.4664,-6.5061,-6.5359,-6.5425,-6.5425,-6.5425,-6.6022,-6.6784,-6.7466,-6.8241,-6.897,-6.9699,-6.9798,-6.9798,-6.9798,-6.9798,-6.9798,-6.9798,-6.9798,-6.9798,-6.9798,-6.9798,-6.9798,-6.9798,-6.9798,-6.9798,-6.9798,-6.9798,-6.9798,-6.9798,-6.9798,-6.9798,-6.9831,-7.1322,-7.2183,-7.2548,-7.3674,-7.4221,-7.4221,-7.4221,-7.4221,-7.4221,-7.4221,-7.4221,-7.4221,-7.4221,-7.4221,-7.4221,0.0,0.0,0.0,0.0,0.0,0.0,0.0,0.0,0.0,0.0,0.0,0.0,0.0,0.0,0.0,0.0,0.0,0.0,-6.1119,0.0,0.0,-6.1119,-6.1119,-6.1119,-6.1119,-6.1119,-6.1119,-6.1119,0.0,0.0,-6.1119,-6.1119,-6.1119,-6.1119,-6.1119,-6.1119,-6.1119,-6.1119,-6.1119,-6.1119,-6.1119,-6.1119,-6.1119,-6.1119,-6.1119,-6.1119,-6.1119,-6.1119,-6.1119,-6.1119,-6.1119,-6.1152,-6.1318,-6.1384,0.0,0.0,0.0,0.0,0.0,0.0,0.0,0.0,0.0,0.0,0.0,0.0,-6.3769,0.0,-6.5028,-6.5425,-6.5425,-6.5425,-6.5425,-6.5425,-6.6187,-6.6937,-6.7499,-6.8407,-6.9169,-6.9732,-6.9798,-6.9798,-6.9798,-6.9798,-6.9798,-6.9798,-6.9798,-6.9798,-6.9798,-6.9798,-6.9798,-6.9798,-6.9798,-6.9798,-6.9798,-6.9798,-6.9798,-6.9798,-6.9798,-6.9798,-6.9831,-7.1322,-7.2018,-7.2084,-7.3541,-7.4221,-7.4221,-7.4221,-7.4221,-7.4221,-7.4221,-7.4221,-7.4221,-7.4221,-7.4221,-7.4221,0.0,0.0,0.0,0.0,0.0,0.0,0.0,0.0,0.0,0.0,0.0,0.0,0.0,-6.1119,-6.1119,-6.1119,0.0,0.0,0.0,0.0,0.0,-6.1119,-6.1119,0.0,-6.1119,-6.1119,0.0,0.0,0.0,0.0,-6.1119,-6.1119,-6.1119,-6.1119,-6.1119,-6.1119,-6.1119,-6.1119,-6.1119,-6.1119,-6.1119,-6.1119,-6.1119,-6.1119,-6.1119,-6.1119,-6.1119,-6.1119,-6.1119,-6.1119,-6.1119,-6.1218,-6.1914,-6.2155,-6.2288,0.0,0.0,0.0,0.0,0.0,0.0,0.0,0.0,0.0,0.0,0.0,-6.4531,-6.5227,-6.5392,-6.5425,-6.5425,-6.5425,-6.5425,-6.5425,-6.6618,-6.7533,-6.7566,-6.8837,-6.9765,-6.9798,-6.9798,-6.9798,-6.9798,-6.9798,-6.9798,-6.9798,-6.9798,-6.9798,-6.9798,-6.9798,-6.9798,-6.9798,-6.9798,-6.9798,-6.9798,-6.9798,-6.9798,-6.9798,-6.9798,-6.9798,-6.9831,-7.1322,-7.2018,-7.2084,-7.3541,-7.4221,-7.4221,-7.4221,-7.4221,-7.4221,-7.4221,-7.4221,-7.4221,-7.4221,-7.4221,-7.4221,0.0,0.0,0.0,0.0,0.0,0.0,0.0,0.0,0.0,0.0,0.0,0.0,0.0,-6.1119,-6.1119,-6.1119,-6.1119,0.0,0.0,0.0,0.0,-6.1119,-6.1119,-6.1119,-6.1119,-6.1119,0.0,0.0,0.0,-6.1119,-6.1119,-6.1119,-6.1119,-6.1119,-6.1119,-6.1119,-6.1119,-6.1119,-6.1119,-6.1119,-6.1119,-6.1119,-6.1119,-6.1119,-6.1119,-6.1119,-6.1119,-6.1119,-6.1119,-6.1119,-6.1417,-6.1848,-6.2122,-6.2553,-6.2984,-6.3249,-6.3315,0.0,0.0,0.0,0.0,0.0,0.0,0.0,0.0,-6.4167,-6.4531,-6.526,-6.5425,-6.5425,-6.5425,-6.5425,-6.5425,-6.5425,-6.6651,-6.7566,-6.7566,-6.8871,-6.9798,-6.9798,-6.9798,-6.9798,-6.9798,-6.9798,-6.9798,-6.9798,-6.9798,-6.9798,-6.9798,-6.9798,-6.9798,-6.9798,-6.9798,-6.9798,-6.9798,-6.9798,-6.9798,-6.9798,-6.9798,-6.9798,-6.9831,-7.1322,-7.2018,-7.2084,-7.3541,-7.4221,-7.4221,-7.4221,-7.4221,-7.4221,-7.4221,-7.4221,-7.4221,-7.4221,-7.4221,-7.4221,0.0,0.0,0.0,0.0,0.0,0.0,0.0,0.0,0.0,0.0,0.0,0.0,0.0,0.0,-6.1119,-6.1119,-6.1119,-6.1119,-6.1119,-6.1119,-6.1119,-6.1119,-6.1119,-6.1119,-6.1119,0.0,0.0,0.0,0.0,0.0,0.0,-6.1119,-6.1119,-6.1119,-6.1119,-6.1119,-6.1119,-6.1119,-6.1119,-6.1119,-6.1119,-6.1119,-6.1119,-6.1119,-6.1119,-6.1119,-6.1119,-6.1119,-6.1119,-6.1119,-6.1583,-6.2255,-6.252,-6.3206,-6.4001,-6.4001,-6.4001,-6.3935,-6.3703,0.0,0.0,0.0,0.0,0.0,0.0,0.0,-6.4829,-6.5326,-6.5425,-6.5425,-6.5425,-6.5425,-6.5425,-6.5425,-6.6651,-6.7566,-6.7566,-6.8871,-6.9798,-6.9798,-6.9798,-6.9798,-6.9798,-6.9798,-6.9798,-6.9798,-6.9798,-6.9798,-6.9798,-6.9798,-6.9798,-6.9798,-6.9798,-6.9798,-6.9798,-6.9798,-6.9798,-6.9798,-6.9798,-6.9798,-6.9831,-7.1322,-7.2018,-7.2084,-7.3541,-7.4221,-7.4221,-7.4221,-7.4221,-7.4221,-7.4221,-7.4221,-7.4221,-7.4221,-7.4221,-7.4221,0.0,0.0,0.0,0.0,0.0,0.0,0.0,0.0,0.0,-6.1119,0.0,0.0,0.0,0.0,0.0,-6.1119,-6.1119,-6.1119,-6.1119,-6.1119,-6.1119,-6.1119,0.0,0.0,0.0,0.0,0.0,0.0,0.0,0.0,0.0,0.0,-6.1119,-6.1119,-6.1119,-6.1119,-6.1119,-6.1119,-6.1119,-6.1119,-6.1119,-6.1119,-6.1119,-6.1119,-6.1119,-6.1119,-6.1119,-6.1119,-6.1119,-6.1119,-6.1616,-6.2387,-6.315,-6.4299,-6.5425,-6.5425,-6.5425,-6.526,0.0,0.0,0.0,0.0,0.0,0.0,-6.4399,0.0,-6.5425,-6.5425,-6.5425,-6.5425,-6.5425,-6.5425,-6.5425,-6.5425,-6.6651,-6.7566,-6.7566,-6.8871,-6.9798,-6.9798,-6.9798,-6.9798,-6.9798,-6.9798,-6.9798,-6.9798,-6.9798,-6.9798,-6.9798,-6.9798,-6.9798,-6.9798,-6.9798,-6.9798,-6.9798,-6.9798,-6.9798,-6.9798,-6.9798,-6.9798,-6.9831,-7.1322,-7.2018,-7.2084,-7.3541,-7.4221,-7.4221,-7.4221,-7.4221,-7.4221,-7.4221,-7.4221,-7.4221,-7.4221,-7.4221,-7.4221,0.0,0.0,0.0,0.0,0.0,0.0,0.0,0.0,0.0,0.0,0.0,0.0,-6.1119,-6.1119,-6.1119,-6.1119,-6.1119,-6.1119,-6.1119,-6.1119,-6.1119,-6.1119,0.0,0.0,0.0,0.0,0.0,0.0,0.0,0.0,0.0,0.0,0.0,-6.1119,-6.1119,-6.1119,-6.1119,-6.1119,-6.1119,-6.1119,-6.1119,-6.1119,-6.1119,-6.1119,-6.1119,-6.1119,-6.1119,-6.1119,-6.1185,-6.1715,-6.242,-6.3216,-6.4432,-6.5094,-6.5425,-6.5425,-6.5425,-6.5359,-6.5194,0.0,0.0,0.0,0.0,0.0,-6.5127,-6.5293,-6.5425,-6.5425,-6.5425,-6.5425,-6.5425,-6.5425,-6.5425,-6.5425,-6.6651,-6.7566,-6.7566,-6.8871,-6.9798,-6.9798,-6.9798,-6.9798,-6.9798,-6.9798,-6.9798,-6.9798,-6.9798,-6.9798,-6.9798,-6.9798,-6.9798,-6.9798,-6.9798,-6.9798,-6.9798,-6.9798,-6.9798,-6.9798,-6.9798,-6.9798,-6.9831,-7.1322,-7.2018,-7.2084,-7.3541,-7.4221,-7.4221,-7.4221,-7.4221,-7.4221,-7.4221,-7.4221,-7.4221,-7.4221,-7.4221,-7.4288,0.0,0.0,0.0,0.0,0.0,0.0,0.0,0.0,0.0,0.0,0.0,0.0,-6.1119,-6.1119,-6.1119,-6.1119,-6.1119,-6.1119,-6.1119,-6.1119,-6.1119,-6.1119,0.0,0.0,0.0,0.0,0.0,0.0,0.0,0.0,0.0,0.0,0.0,0.0,-6.1119,-6.1119,-6.1119,-6.1119,-6.1119,-6.1119,-6.1119,-6.1119,-6.1119,-6.1119,-6.1119,-6.1152,-6.145,-6.155,-6.1649,-6.242,-6.315,-6.3935,-6.5061,-6.5425,-6.5425,-6.5425,-6.5425,-6.5425,-6.5425,-6.5425,-6.5425,-6.5425,0.0,0.0,-6.5425,-6.5425,-6.5425,-6.5425,-6.5425,-6.5425,-6.5425,-6.5425,-6.5425,-6.5425,-6.6386,-6.7235,-6.7533,-6.8606,-6.9434,-6.9765,-6.9798,-6.9798,-6.9798,-6.9798,-6.9798,-6.9798,-6.9798,-6.9798,-6.9798,-6.9798,-6.9798,-6.9798,-6.9798,-6.9798,-6.9798,-6.9798,-6.9798,-6.9798,-6.9798,-6.9798,-6.9831,-7.1322,-7.2018,-7.2084,-7.3541,-7.4221,-7.4221,-7.4221,-7.4221,-7.4221,-7.4221,-7.4221,-7.4221,-7.4221,-7.4221,-7.4321,0.0,0.0,-6.1119,-6.1119,-6.1119,0.0,0.0,0.0,0.0,0.0,0.0,0.0,-6.1119,-6.1119,-6.1119,-6.1119,-6.1119,-6.1119,-6.1119,-6.1119,-6.1119,0.0,0.0,0.0,0.0,0.0,0.0,0.0,0.0,0.0,0.0,0.0,0.0,0.0,-6.1119,-6.1119,-6.1119,-6.1119,-6.1119,-6.1119,-6.1119,-6.1119,-6.1119,-6.1119,-6.1152,-6.1318,-6.1947,-6.2255,-6.2453,-6.3183,-6.3902,-6.4597,-6.5227,-6.5425,-6.5425,-6.5425,-6.5425,-6.5425,-6.5425,-6.5425,-6.5425,-6.5425,-6.5425,0.0,-6.5425,-6.5425,-6.5425,-6.5425,-6.5425,-6.5425,-6.5425,-6.5425,-6.5425,-6.5425,-6.5955,-6.6684,-6.7466,-6.8241,-6.897,-6.9699,-6.9798,-6.9798,-6.9798,-6.9798,-6.9798,-6.9798,-6.9798,-6.9798,-6.9798,-6.9798,-6.9798,-6.9798,-6.9798,-6.9798,-6.9798,-6.9798,-6.9798,-6.9798,-6.9798,-6.9798,-6.9831,-7.1322,-7.2018,-7.2084,-7.3541,-7.4221,-7.4221,-7.4221,-7.4221,-7.4221,-7.4221,-7.4221,-7.4221,-7.4221,-7.4255,-7.4453,-6.1119,-6.1119,-6.1119,-6.1119,0.0,0.0,0.0,0.0,0.0,0.0,0.0,0.0,-6.1119,-6.1119,-6.1119,-6.1119,-6.1119,-6.1119,-6.1119,-6.1119,0.0,0.0,0.0,0.0,0.0,0.0,0.0,0.0,0.0,0.0,0.0,0.0,0.0,0.0,-6.1119,-6.1119,-6.1119,-6.1119,-6.1119,-6.1119,-6.1119,-6.1119,-6.1119,-6.1119,-6.145,-6.2022,-6.2155,-6.2586,-6.3216,-6.3935,-6.463,-6.5227,-6.5359,-6.5425,-6.5425,-6.5425,-6.5425,-6.5425,-6.5425,-6.5425,-6.5425,-6.5425,-6.5425,0.0,-6.5425,-6.5425,-6.5425,-6.5425,-6.5425,-6.5425,-6.5425,-6.5425,-6.5425,-6.5425,-6.5525,-6.6088,-6.74,-6.8241,-6.897,-6.9699,-6.9798,-6.9798,-6.9798,-6.9798,-6.9798,-6.9798,-6.9798,-6.9798,-6.9798,-6.9798,-6.9798,-6.9798,-6.9798,-6.9798,-6.9798,-6.9798,-6.9798,-6.9798,-6.9798,-6.9798,-6.9831,-7.1322,-7.2018,-7.2084,-7.3541,-7.4221,-7.4221,-7.4221,-7.4221,-7.4221,-7.4221,-7.4221,-7.4221,-7.4221,-7.4586,-7.5165,-6.1119,-6.1119,-6.1119,-6.1119,0.0,0.0,0.0,0.0,0.0,0.0,0.0,-6.1119,-6.1119,-6.1119,-6.1119,-6.1119,-6.1119,-6.1119,-6.1119,-6.1119,0.0,0.0,0.0,0.0,0.0,0.0,0.0,0.0,0.0,0.0,0.0,0.0,0.0,0.0,0.0,-6.1119,-6.1119,-6.1119,-6.1119,-6.1119,-6.1119,-6.1318,-6.1649,-6.1649,-6.208,-6.2818,-6.3183,-6.3736,-6.4399,-6.4763,-6.5127,-6.5425,-6.5425,-6.5425,-6.5425,-6.5425,-6.5425,-6.5425,-6.5425,-6.5425,-6.5425,-6.5425,-6.5425,0.0,0.0,-6.5425,-6.5425,-6.5425,-6.5425,-6.5425,-6.5425,-6.5425,-6.5425,-6.5425,-6.5724,-6.6353,-6.7433,-6.7943,-6.8572,-6.9666,-6.9798,-6.9798,-6.9798,-6.9798,-6.9798,-6.9798,-6.9798,-6.9798,-6.9798,-6.9798,-6.9798,-6.9798,-6.9798,-6.9798,-6.9798,-6.9798,-6.9798,-6.9798,-6.9798,-6.9798,-6.9831,-7.1322,-7.2018,-7.2084,-7.3541,-7.4221,-7.4221,-7.4221,-7.4221,-7.4221,-7.4221,-7.4221,-7.4255,-7.4619,-7.4966,-7.543,-6.1119,-6.1119,-6.1119,-6.1119,0.0,0.0,0.0,0.0,0.0,0.0,0.0,-6.1119,-6.1119,-6.1119,-6.1119,-6.1119,-6.1119,-6.1119,-6.1119,-6.1119,-6.1119,0.0,0.0,-6.1119,0.0,0.0,0.0,0.0,0.0,0.0,0.0,0.0,0.0,0.0,0.0,0.0,0.0,-6.1251,-6.1318,-6.1318,-6.1483,-6.1715,-6.2022,-6.2155,-6.2685,-6.3415,-6.4266,-6.4929,-6.5425,-6.5425,-6.5425,-6.5425,-6.5425,-6.5425,-6.5425,-6.5425,-6.5425,-6.5425,-6.5425,-6.5425,-6.5425,-6.5425,-6.5425,-6.5425,0.0,0.0,0.0,-6.5425,-6.5425,-6.5425,-6.5425,-6.5425,-6.5359,-6.5227,-6.5823,-6.6585,-6.7268,-6.7499,-6.8175,-6.9633,-6.9798,-6.9798,-6.9798,-6.9798,-6.9798,-6.9798,-6.9798,-6.9798,-6.9798,-6.9798,-6.9798,-6.9798,-6.9798,-6.9798,-6.9798,-6.9798,-6.9798,-6.9798,-6.9798,-6.9798,-6.9831,-7.1322,-7.2018,-7.2084,-7.3541,-7.4221,-7.4221,-7.4221,-7.4221,-7.4221,-7.4221,-7.4321,-7.452,-7.5065,-7.5463,-7.586,-6.1119,-6.1119,-6.1119,-6.1119,0.0,0.0,0.0,0.0,0.0,0.0,0.0,-6.1119,-6.1119,-6.1119,-6.1119,-6.1119,-6.1119,-6.1119,-6.1119,-6.1119,-6.1119,-6.1119,0.0,-6.1119,-6.1119,0.0,0.0,0.0,0.0,0.0,0.0,0.0,0.0,0.0,-6.1119,0.0,0.0,-6.1781,-6.2089,-6.2155,-6.2818,-6.2312,-6.1318,-6.1956,-6.2685,-6.3438,-6.4796,-6.5359,-6.5425,-6.5425,-6.5425,-6.5425,-6.5425,-6.5425,-6.5425,-6.5425,-6.5425,-6.5425,-6.5425,-6.5425,-6.5425,-6.5425,-6.5425,-6.5425,-6.5425,0.0,-6.5425,-6.5425,0.0,-6.5425,-6.5425,0.0,0.0,-6.4597,-6.5094,-6.579,-6.6552,-6.7168,-6.8175,-6.9633,-6.9798,-6.9798,-6.9798,-6.9798,-6.9798,-6.9798,-6.9798,-6.9798,-6.9798,-6.9798,-6.9798,-6.9798,-6.9798,-6.9798,-6.9798,-6.9798,-6.9798,-6.9798,-6.9798,-6.9798,-6.9831,-7.1322,-7.2018,-7.2084,-7.3541,-7.4221,-7.4221,-7.4221,-7.4221,-7.4221,-7.4221,-7.4619,-7.5165,-7.5231,-7.6092,-7.7185,-6.1119,-6.1119,-6.1119,-6.1119,0.0,0.0,0.0,0.0,0.0,0.0,0.0,-6.1119,-6.1119,-6.1119,-6.1119,-6.1119,-6.1119,-6.1119,-6.1119,-6.1119,-6.1119,-6.1119,-6.1119,-6.1334,-6.1797,0.0,0.0,0.0,-6.2003,0.0,0.0,0.0,0.0,0.0,-6.2378,0.0,-6.2378,-6.2719,-6.2851,-6.2884,-6.3183,-6.2908,-6.2444,-6.314,-6.3868,-6.4597,-6.5194,-6.5425,-6.5425,-6.5425,-6.5425,-6.5425,-6.5425,-6.5425,-6.5425,-6.5425,-6.5425,-6.5425,-6.5425,-6.5425,-6.5425,-6.5425,-6.5425,-6.5425,-6.5425,-6.5425,-6.5425,-6.5425,0.0,0.0,0.0,0.0,0.0,0.0,-6.5591,-6.632,-6.7003,-6.7777,-6.8639,-6.9666,-6.9798,-6.9798,-6.9798,-6.9798,-6.9798,-6.9798,-6.9798,-6.9798,-6.9798,-6.9798,-6.9798,-6.9798,-6.9798,-6.9798,-6.9798,-6.9798,-6.9798,-6.9798,-6.9798,-7.003,-7.0461,-7.1521,-7.225,-7.2713,-7.374,-7.4221,-7.4221,-7.4221,-7.4487,-7.48,-7.48,-7.4999,-7.5363,-7.6225,-7.6887,-7.7484,-6.1119,-6.1119,-6.1119,-6.1119,0.0,0.0,0.0,0.0,0.0,-6.1119,-6.1119,-6.1119,-6.1119,-6.1119,-6.1119,-6.1119,-6.1119,-6.1119,-6.1119,-6.1119,-6.1119,-6.1119,-6.1119,-6.1465,-6.2279,-6.2082,0.0,0.0,0.0,0.0,0.0,0.0,0.0,0.0,0.0,-6.3496,-6.3315,-6.3547,-6.3614,-6.3647,-6.3769,-6.3868,-6.3902,-6.42,-6.4763,-6.5425,-6.5425,-6.5425,-6.5425,-6.5425,-6.5425,-6.5425,-6.5425,-6.5425,-6.5425,-6.5425,-6.5425,-6.5425,-6.5425,-6.5425,-6.5425,-6.5425,-6.5425,-6.5425,-6.5425,-6.5425,-6.5425,-6.5425,-6.5591,0.0,0.0,0.0,-6.5955,-6.5757,0.0,-6.7016,-6.7499,-6.8241,-6.897,-6.9699,-6.9798,-6.9798,-6.9798,-6.9798,-6.9798,-6.9798,-6.9798,-6.9798,-6.9798,-6.9798,-6.9798,-6.9798,-6.9798,-6.9798,-6.9798,-6.9798,-6.9798,-6.9798,-6.9798,-7.0196,-7.0924,-7.1653,-7.2415,-7.3144,-7.3873,-7.4221,-7.4221,-7.4221,-7.4602,-7.5297,-7.5496,-7.5695,-7.5993,-7.702,-7.755,-7.7782,-6.1119,-6.1119,-6.1119,-6.1119,-6.1119,0.0,0.0,-6.1119,-6.1119,-6.1119,-6.1119,-6.1119,-6.1119,-6.1119,-6.1119,-6.1119,-6.1119,-6.1119,-6.1119,-6.1119,-6.1119,-6.1119,-6.1119,-6.1465,-6.2279,-6.1547,-6.184,0.0,0.0,0.0,0.0,0.0,0.0,0.0,-6.4102,-6.4019,-6.3382,-6.4078,-6.4332,-6.4399,-6.5061,-6.5359,-6.526,-6.463,-6.4796,-6.5425,-6.5425,-6.5425,-6.5425,-6.5425,-6.5425,-6.5425,-6.5425,-6.5425,-6.5425,-6.5425,-6.5425,-6.5425,-6.5425,-6.5425,-6.5425,-6.5425,-6.5425,-6.5425,-6.5425,-6.5425,-6.5425,-6.5425,-6.5989,-6.644,-6.644,-6.7036,-6.7268,-6.6585,-6.7069,0.0,0.0,-6.8241,-6.897,-6.9699,-6.9798,-6.9798,-6.9798,-6.9798,-6.9798,-6.9798,-6.9798,-6.9798,-6.9798,-6.9798,-6.9798,-6.9798,-6.9798,-6.9798,-6.9798,-6.9798,-6.9798,-6.9798,-6.9798,-7.0196,-7.0924,-7.1653,-7.2415,-7.3144,-7.3873,-7.4221,-7.4221,-7.4221,-7.4602,-7.533,-7.6026,-7.6722,-7.7351,-7.7384,-7.7881,-7.8477,-6.1119,-6.1119,-6.1119,-6.1119,-6.1119,-6.1119,-6.1119,-6.1119,-6.1119,-6.1119,-6.1119,-6.1119,-6.1119,-6.1119,-6.1119,-6.1119,-6.1119,-6.1119,-6.1119,-6.1119,-6.1119,-6.1119,-6.1119,-6.1465,-6.2279,-6.2474,-6.3367,-6.4973,0.0,0.0,0.0,0.0,0.0,0.0,0.0,-6.5283,-6.5538,-6.5193,-6.5061,-6.5094,-6.5326,-6.5425,-6.5392,-6.516,-6.5194,-6.5425,-6.5425,-6.5425,-6.5425,-6.5425,-6.5425,-6.5425,-6.5425,-6.5425,-6.5425,-6.5425,-6.5425,-6.5425,-6.5425,-6.5425,-6.5525,-6.6022,-6.6154,-6.6287,-6.6705,-6.6837,-6.6837,-6.6837,-6.7036,-6.7247,-6.7247,-6.74,-6.7499,-6.7235,-6.7433,-6.7777,0.0,-6.897,-6.95,-6.9765,-6.9798,-6.9798,-6.9798,-6.9798,-6.9798,-6.9798,-6.9798,-6.9798,-6.9798,-6.9798,-6.9798,-6.9798,-6.9798,-6.9798,-6.9798,-6.9798,-6.9798,-6.9798,-7.0295,-7.0924,-7.1653,-7.2382,-7.3144,-7.3807,-7.4122,-7.4221,-7.4255,-7.4701,-7.533,-7.6026,-7.6755,-7.7484,-7.8146,-7.8146,-7.8312,-7.8511,-6.1119,-6.1119,-6.1119,-6.1119,-6.1119,-6.1119,-6.1119,-6.1119,-6.1119,-6.1119,-6.1119,-6.1119,-6.1119,-6.1119,-6.1119,-6.1119,-6.1119,-6.1119,-6.1119,-6.1119,-6.1119,-6.1119,-6.1351,-6.1865,-6.2651,-6.3074,-6.4268,-6.6172,-6.5495,-6.575,0.0,0.0,0.0,0.0,0.0,-6.6158,-6.6669,-6.579,-6.5425,-6.5425,-6.5425,-6.5425,-6.5425,-6.5425,-6.5425,-6.5425,-6.5425,-6.5425,-6.5425,-6.5425,-6.5425,-6.5425,-6.5425,-6.5425,-6.5459,-6.5724,-6.5823,-6.5856,-6.6121,-6.6187,-6.632,-6.6784,-6.687,-6.7003,-6.7466,-6.7566,-6.7566,-6.7566,-6.7811,-6.8009,-6.8009,-6.8208,-6.8407,-6.8407,-6.8407,-6.8572,0.0,-6.95,-6.9798,-6.9798,-6.9798,-6.9798,-6.9798,-6.9798,-6.9798,-6.9798,-6.9798,0.0,0.0,-6.9798,-6.9798,-6.9798,-6.9798,-6.9798,-6.9798,-6.9798,-6.9931,-7.0196,-7.0659,-7.1421,-7.2415,-7.2879,-7.3508,-7.4221,-7.4221,-7.4354,-7.4652,-7.5065,-7.5827,-7.6755,-7.7219,-7.7881,-7.8511,-7.8511,-7.8511,-7.8511,-6.1119,-6.1119,-6.1119,-6.1119,-6.1119,-6.1119,-6.1119,-6.1119,-6.1119,-6.1119,-6.1119,-6.1119,-6.1119,-6.1119,-6.1119,-6.1119,-6.1119,-6.1119,-6.1119,-6.1152,-6.1152,-6.1152,-6.1848,-6.2599,-6.3275,-6.3333,-6.4464,-6.6764,-6.5211,0.0,0.0,0.0,0.0,0.0,-6.6753,0.0,-6.6677,-6.5757,-6.5425,-6.5425,-6.5425,-6.5425,-6.5425,-6.5425,-6.5425,-6.5425,-6.5425,-6.5425,-6.5425,-6.5425,-6.5425,-6.5459,-6.5459,-6.5492,-6.5657,-6.6353,-6.6585,-6.6717,-6.74,-6.7566,-6.7599,-6.7678,-6.7632,-6.7632,-6.7665,-6.7744,-6.7744,-6.7744,-6.8274,-6.8738,-6.8738,-6.9334,-6.9798,-6.9798,-6.9798,-6.9798,-6.9798,-6.9798,-6.9798,-6.9798,-6.9798,-6.9798,-6.9798,-6.9798,-6.9798,-6.9798,-6.9798,0.0,0.0,-6.9798,-6.9798,-6.9798,-6.9798,-6.9798,-6.9798,-6.9798,-7.0163,-7.0891,-7.0924,-7.172,-7.3111,-7.3144,-7.3541,-7.4221,-7.4255,-7.4635,-7.5349,-7.5363,-7.6192,-7.7417,-7.745,-7.7914,-7.8511,-7.8511,-7.8511,-7.8511,-6.1119,-6.1119,-6.1119,-6.1119,-6.1119,-6.1119,-6.1119,-6.1119,-6.1119,-6.1119,-6.1119,-6.1119,-6.1119,-6.1119,-6.1119,-6.1119,-6.1119,-6.1119,-6.1119,-6.1616,-6.1914,-6.1914,-6.2652,-6.3102,-6.3282,-6.3833,-6.4738,-6.5929,-6.6677,0.0,-6.7702,0.0,0.0,0.0,0.0,0.0,-6.7582,-6.6062,-6.5425,-6.5425,-6.5425,-6.5425,-6.5425,-6.5425,-6.5425,-6.5425,-6.5425,-6.5425,-6.5425,-6.5425,-6.579,-6.6254,-6.6254,-6.6618,-6.7082,-6.7235,-6.7301,-6.7334,-6.7533,-6.7566,-6.7744,-6.8274,-6.8407,-6.8572,-6.9103,-6.9235,-6.9235,-6.9235,-6.9401,-6.95,-6.95,-6.9666,-6.9798,-6.9798,-6.9798,-6.9798,-6.9798,-6.9798,-6.9798,-6.9798,-6.9798,-6.9798,-6.9798,-6.9798,-6.9798,-6.9798,-6.9798,0.0,-6.9798,-6.9798,-6.9798,-6.9798,-6.9798,-6.9798,-6.9798,-6.9798,-7.0163,-7.0891,-7.1455,-7.2216,-7.3144,-7.3674,-7.4005,-7.4255,-7.4818,-7.5098,-7.5363,-7.6424,-7.7086,-7.745,-7.8014,-7.8345,-7.8511,-7.8511,-7.8511,-7.8511,-6.1119,-6.1119,-6.1119,-6.1119,-6.1119,-6.1119,-6.1119,-6.1119,-6.1119,-6.1119,-6.1119,-6.1119,-6.1119,-6.1119,-6.1119,-6.1119,-6.1119,-6.1251,-6.155,-6.1989,-6.2354,-6.2685,-6.3415,-6.3769,-6.3736,-6.4465,-6.5277,-6.6068,-6.7012,0.0,-6.8019,0.0,0.0,0.0,0.0,-6.7742,-6.8409,-6.6711,-6.5746,-6.5425,-6.5425,-6.5425,0.0,-6.5425,-6.5624,-6.5889,-6.5889,-6.5889,-6.5889,-6.5889,-6.6386,-6.697,-6.697,-6.7235,-6.7678,-6.8009,-6.8076,-6.8175,-6.8473,-6.8572,-6.8672,-6.9069,-6.9169,-6.9268,-6.9699,-6.9798,-6.9798,-6.9798,-6.9798,-6.9798,-6.9798,-6.9798,-6.9798,-6.9798,-6.9798,-6.9798,-6.9798,-6.9798,-6.9798,-6.9798,-6.9798,-6.9798,-6.9798,-6.9798,-6.9798,-6.9798,-6.9798,-6.9798,-6.9798,-6.9798,-6.9798,-6.9798,-6.9798,-6.9798,-6.9798,-7.0096,-7.0659,-7.1388,-7.2117,-7.2879,-7.3575,-7.4005,-7.4221,-7.4255,-7.4966,-7.5463,-7.5827,-7.6954,-7.7616,-7.7947,-7.8345,-7.8511,-7.8511,-7.8511,-7.8511,-7.8511,-6.1119,-6.1119,-6.1119,-6.1119,-6.1119,-6.1119,-6.1119,-6.1119,-6.1119,-6.1119,-6.1119,-6.1119,-6.1119,-6.1185,-6.1251,-6.1251,-6.1318,-6.1649,-6.2321,-6.2453,-6.2785,-6.3448,-6.4133,-6.4498,-6.4465,-6.5094,-6.5757,-6.6542,-6.6761,0.0,0.0,0.0,0.0,0.0,0.0,0.0,0.0,-6.7216,-6.6105,-6.5425,-6.5425,-6.5425,-6.5425,-6.5525,-6.5955,-6.6519,-6.6618,-6.6651,-6.6651,-6.6651,-6.7102,-6.7777,-6.7777,-6.7844,-6.8042,-6.8639,-6.8837,-6.897,-6.9633,-6.9798,-6.9798,-6.9798,-6.9798,-6.9798,-6.9798,-6.9798,-6.9798,-6.9798,-6.9798,-6.9798,-6.9798,-6.9798,-6.9798,-6.9798,-6.9798,-6.9798,-6.9798,-6.9798,-6.9798,-6.9798,-6.9798,0.0,-6.9798,-6.9798,-6.9798,-6.9798,-6.9798,-6.9798,-6.9798,-6.9798,-6.9798,-6.9798,-6.9798,-6.9798,-6.9798,-7.0527,-7.1289,-7.2018,-7.2746,-7.3475,-7.4221,-7.4221,-7.4255,-7.442,-7.5098,-7.5827,-7.6523,-7.7252,-7.7947,-7.8511,-7.8511,-7.8511,-7.8511,-7.8511,-7.8511,-7.8511,-6.1119,-6.1119,-6.1119,-6.1119,-6.1119,-6.1119,-6.1119,-6.1119,-6.1119,-6.1119,-6.1119,-6.1119,-6.1119,-6.1616,-6.2022,-6.2022,-6.2543,-6.2984,-6.3116,-6.3713,-6.4034,-6.4167,-6.4862,-6.5227,-6.5227,-6.5359,-6.5481,-6.5614,-6.7052,-6.7861,0.0,0.0,0.0,0.0,0.0,0.0,-6.7093,-6.6062,-6.5526,-6.5425,-6.5425,-6.5425,-6.5492,-6.6088,-6.6419,-6.6585,-6.7168,-6.74,-6.74,-6.74,-6.791,-6.8506,-6.8506,-6.8904,-6.9434,-6.9566,-6.9599,-6.9633,-6.9765,-6.9798,-6.9798,-6.9798,-6.9798,-6.9798,-6.9798,-6.9798,-6.9798,-6.9798,-6.9798,-6.9798,-6.9798,-6.9798,-6.9798,-6.9798,-6.9798,-6.9798,-6.9798,-6.9798,-6.9798,-6.9798,-6.9798,-6.9798,-6.9798,-6.9798,-6.9798,-6.9798,-6.9798,-6.9798,-6.9798,-6.9798,-6.9798,-6.9798,-6.9798,-6.9798,-6.9798,-7.0527,-7.1289,-7.2018,-7.2746,-7.3475,-7.4221,-7.4221,-7.4553,-7.5183,-7.5827,-7.6556,-7.7285,-7.8014,-7.8411,-7.8511,-7.8511,-7.8511,-7.8511,-7.8511,-7.8511,-7.8511,-6.1119,-6.1119,-6.1119,-6.1119,-6.1119,-6.1119,-6.1119,-6.1417,-6.1516,-6.1152,-6.1417,-6.1649,-6.1649,-6.2354,-6.2785,-6.2785,-6.3116,-6.3481,-6.3835,-6.4167,-6.4531,-6.4895,-6.5227,-6.5425,-6.5425,-6.5425,-6.5614,-6.6062,-6.7379,-6.8215,0.0,0.0,0.0,0.0,0.0,-6.8258,0.0,0.0,-6.5801,-6.5459,-6.5823,-6.5989,-6.6055,-6.6817,-6.7314,-6.7678,-6.8042,-6.844,-6.8705,-6.8307,-6.8672,-6.9268,-6.9268,-6.95,-6.9798,-6.9798,-6.9798,-6.9798,-6.9798,-6.9798,-6.9798,-6.9798,-6.9798,-6.9798,-6.9798,-6.9798,-6.9798,-6.9798,-6.9798,-6.9798,-6.9798,-6.9798,-6.9798,-6.9798,-6.9798,-6.9798,-6.9798,-6.9798,-6.9798,-6.9798,-6.9798,-6.9798,-6.9798,-6.9798,-6.9798,-6.9798,-6.9798,-6.9798,-6.9798,-6.9798,-6.9798,-6.9798,-6.9798,-6.9964,-7.0361,-7.109,-7.1852,-7.2581,-7.331,-7.384,-7.4221,-7.4619,-7.4933,-7.533,-7.6424,-7.7086,-7.7484,-7.8212,-7.8511,-7.8511,-7.8511,-7.8511,-7.8511,-7.8511,-7.8776,-7.9107,-6.1119,-6.1119,-6.1119,-6.1119,-6.1119,-6.1152,-6.1318,-6.1815,-6.198,-6.1417,-6.1947,-6.2453,-6.2453,-6.3116,-6.3504,-6.3504,-6.3637,-6.3968,-6.4564,-6.4597,-6.4829,-6.5392,-6.5425,-6.5425,-6.5425,-6.5425,-6.5746,-6.6415,-6.7501,-6.8401,0.0,0.0,0.0,0.0,0.0,0.0,0.0,-6.65,-6.6119,-6.569,-6.6287,-6.6618,-6.6804,-6.7579,-6.8208,-6.8705,-6.8871,-6.9301,-6.9699,-6.9103,-6.9301,-6.9798,-6.9798,-6.9798,-6.9798,-6.9798,-6.9798,-6.9798,-6.9798,-6.9798,-6.9798,-6.9798,-6.9798,-6.9798,-6.9798,-6.9798,-6.9798,-6.9798,-6.9798,-6.9798,-6.9798,-6.9798,-6.9798,-6.9798,-6.9798,-6.9798,-6.9798,-6.9798,-6.9798,-6.9798,-6.9798,-6.9798,-6.9798,-6.9798,-6.9798,-6.9798,-6.9798,-6.9798,-6.9798,-6.9798,-6.9798,-6.9798,-6.9931,-7.0295,-7.0891,-7.1786,-7.2548,-7.3111,-7.384,-7.4288,-7.4487,-7.505,-7.543,-7.5794,-7.692,-7.7517,-7.7682,-7.8279,-7.8511,-7.8511,-7.8511,-7.8511,-7.8544,-7.8709,-7.914,-7.9616,-6.1119,-6.1119,-6.1119,-6.1119,-6.1119,-6.1318,-6.198,-6.2188,-6.2188,-6.2122,-6.2752,-6.3216,-6.3216,-6.3879,-6.431,-6.431,-6.4862,-6.5227,-6.5326,-6.5326,-6.5326,-6.5425,-6.5425,-6.5425,-6.5425,-6.5425,-6.547,-6.5526,-6.7175,-6.8404,-6.9105,0.0,0.0,0.0,0.0,-6.7582,-6.6669,-6.5845,-6.5835,-6.6419,-6.6485,-6.6916,-6.7566,-6.8307,-6.8639,-6.8771,-6.9434,-6.9732,-6.9765,-6.9699,-6.9732,-6.9798,-6.9798,-6.9798,-6.9798,-6.9798,-6.9798,-6.9798,-6.9798,-6.9798,-6.9798,-6.9798,-6.9798,-6.9798,-6.9798,-6.9798,-6.9798,-6.9798,-6.9798,-6.9798,-6.9798,-6.9798,-6.9798,-6.9798,-6.9798,-6.9798,-6.9798,-6.9798,-6.9798,-6.9798,-6.9798,-6.9798,-6.9798,-6.9798,-6.9798,-6.9798,-6.9798,-6.9798,-6.9798,-6.9798,-6.9798,-6.9798,-7.0461,-7.0825,-7.0891,-7.2283,-7.3045,-7.3111,-7.384,-7.4586,-7.5165,-7.5231,-7.5993,-7.7219,-7.7351,-7.7782,-7.8411,-7.8477,-7.8511,-7.8511,-7.8511,-7.8511,-7.861,-7.9272,-7.9571,-7.9802,-6.1119,-6.1119,-6.1251,-6.1682,-6.1748,-6.198,-6.2752,-6.3249,-6.3547,-6.3547,-6.3736,-6.3902,-6.3935,-6.4564,-6.4995,-6.4995,-6.526,-6.5425,-6.5425,-6.5425,-6.5425,-6.5425,-6.5425,-6.5425,-6.5425,-6.5425,-6.5658,-6.6192,-6.742,-6.8392,-6.9168,-6.9192,-6.8486,-6.7216,-6.7216,-6.699,-6.6556,-6.619,-6.6519,-6.7214,-6.7645,-6.8009,-6.8341,-6.9069,-6.9334,-6.9401,-6.9666,-6.9798,-6.9798,-6.9798,-6.9798,-6.9798,-6.9798,-6.9798,-6.9798,-6.9798,-6.9798,-6.9798,-6.9798,-6.9798,-6.9798,-6.9798,-6.9798,-6.9798,-6.9798,-6.9798,-6.9798,-6.9798,-6.9798,-6.9798,-6.9798,-6.9798,-6.9798,-6.9798,-6.9798,-6.9798,-6.9798,-6.9798,-6.9798,-6.9798,-6.9798,-6.9798,-6.9798,-6.9798,-6.9798,-6.9798,-6.9798,-6.9798,-6.9798,-6.9798,-6.9798,-6.9798,-7.0527,-7.1123,-7.1554,-7.2581,-7.331,-7.374,-7.4089,-7.4619,-7.5297,-7.5695,-7.6689,-7.808,-7.808,-7.8246,-7.8511,-7.8511,-7.8511,-7.8511,-7.8511,-7.8776,-7.9206,-7.9504,-8.0167,-8.0995,-6.1384,-6.1417,-6.1649,-6.242,-6.2553,-6.2785,-6.3514,-6.4034,-6.4465,-6.4664,-6.4664,-6.4664,-6.4697,-6.5127,-6.5425,-6.5425,-6.5425,-6.5425,-6.5425,-6.5425,-6.5425,-6.5425,-6.5425,-6.5425,-6.5425,-6.5425,-6.5702,-6.633,-6.7175,-6.8044,-6.8798,-6.9272,-6.8457,-6.6666,-6.7125,-6.7175,-6.6804,-6.6804,-6.7281,-6.7976,-6.8473,-6.8804,-6.9069,-6.9599,-6.9798,-6.9798,-6.9798,-6.9798,-6.9798,-6.9798,-6.9798,-6.9798,-6.9798,-6.9798,-6.9798,-6.9798,-6.9798,-6.9798,-6.9798,-6.9798,-6.9798,-6.9798,-6.9798,-6.9798,-6.9798,-6.9798,-6.9798,-6.9798,-6.9798,-6.9798,-6.9798,-6.9798,-6.9798,-6.9798,-6.9798,-6.9798,-6.9798,-6.9798,-6.9798,-6.9798,-6.9798,-6.9798,-6.9798,-6.9798,-6.9798,-6.9798,-6.9798,-6.9798,-6.9798,-6.9798,-6.9898,-7.0096,-7.0825,-7.1587,-7.2316,-7.3045,-7.3674,-7.4221,-7.4453,-7.4867,-7.5595,-7.6523,-7.755,-7.8511,-7.8511,-7.8511,-7.8511,-7.8511,-7.8511,-7.8544,-7.8776,-7.9173,-7.967,-8.0101,-8.0929,-8.1823,-6.2056,-6.2188,-6.242,-6.3183,-6.3315,-6.3547,-6.4266,-6.4365,-6.463,-6.5326,-6.5392,-6.5392,-6.5392,-6.5425,-6.5425,-6.5425,-6.5425,-6.5425,-6.5425,-6.5425,-6.5425,-6.5425,-6.5425,-6.5425,-6.5425,-6.5425,-6.5425,-6.5425,-6.6287,-6.7125,-6.7955,-6.944,-6.8897,-6.6564,-6.8169,-6.8372,-6.7566,-6.7566,-6.8009,-6.8672,-6.8672,-6.9136,-6.9765,-6.9798,-6.9798,-6.9798,-6.9798,-6.9798,-6.9798,-6.9798,-6.9798,-6.9798,-6.9798,-6.9798,-6.9798,-6.9798,-6.9798,-6.9798,-6.9798,-6.9798,-6.9798,-6.9798,-6.9798,-6.9798,-6.9798,-6.9798,-6.9798,-6.9798,-6.9798,-6.9798,-6.9798,-6.9798,-6.9798,-6.9798,-6.9798,-6.9798,-6.9798,-6.9798,-6.9798,-6.9798,-6.9798,-6.9798,-6.9798,-6.9798,-6.9798,-6.9798,-6.9798,-6.9798,-6.9798,-6.9798,-7.0129,-7.0858,-7.162,-7.2349,-7.3078,-7.3807,-7.4221,-7.4221,-7.4951,-7.5628,-7.6357,-7.7815,-7.8511,-7.8511,-7.8511,-7.8511,-7.8511,-7.8511,-7.8511,-7.861,-7.9339,-7.9604,-7.9802,-8.1227,-8.179,-8.1889,-6.2917,-6.2984,-6.3216,-6.3902,-6.4034,-6.4266,-6.4995,-6.5094,-6.516,-6.5392,-6.5425,-6.5591,-6.6121,-6.5724,-6.5624,-6.6121,-6.6154,-6.6386,-6.6883,-6.6916,-6.6916,-6.6916,-6.6916,-6.6916,-6.6916,-6.6916,-6.6916,-6.6916,-6.7789,-6.8325,-6.8605,-6.9067,-6.8547,-6.7281,-6.7754,-6.8153,-6.8341,-6.8341,-6.8771,-6.9434,-6.9434,-6.9599,-6.9798,-6.9798,-6.9798,-6.9798,-6.9798,-6.9798,-6.9798,-6.9798,-6.9798,-6.9798,-6.9798,-6.9798,-6.9798,-6.9798,-6.9798,-6.9798,-6.9798,-6.9798,-6.9798,-6.9798,-6.9798,-6.9798,-6.9798,-6.9798,-6.9798,-6.9798,-6.9798,-6.9798,-6.9798,-6.9798,-6.9798,-6.9798,-6.9798,-6.9798,-6.9798,-6.9798,-6.9798,-6.9798,-6.9798,-6.9798,-6.9798,-6.9798,-6.9798,-6.9798,-6.9798,-6.9798,-6.9798,-7.0262,-7.0659,-7.0891,-7.2117,-7.2879,-7.3111,-7.3807,-7.4487,-7.4933,-7.5165,-7.5894,-7.7086,-7.808,-7.8511,-7.8511,-7.8511,-7.8511,-7.8511,-7.8511,-7.8809,-7.9306,-7.9537,-8.0233,-8.1161,-8.1624,-8.2121,-8.2585,-6.368,-6.3746,-6.3935,-6.463,-6.4763,-6.4929,-6.5359,-6.5425,-6.5525,-6.579,-6.5823,-6.6121,-6.685,-6.6519,-6.6419,-6.6837,-6.6916,-6.7102,-6.7566,-6.7566,-6.7566,-6.7566,-6.7566,-6.7566,-6.7566,-6.7566,-6.7566,-6.7566,-6.8171,-6.8406,-6.8406,-6.8708,-6.8526,-6.8042,-6.8307,-6.8672,-6.9103,-6.9103,-6.9368,-6.9798,-6.9798,-6.9798,-6.9798,-6.9798,-6.9798,-6.9798,-6.9798,-6.9798,-6.9798,-6.9798,-6.9798,-6.9798,-6.9798,-6.9798,-6.9798,-6.9798,-6.9798,-6.9798,-6.9798,-6.9798,-6.9798,-6.9798,-6.9798,-6.9798,-6.9798,-6.9798,-6.9798,-6.9798,-6.9798,-6.9798,-6.9798,-6.9798,-6.9798,-6.9798,-6.9798,-6.9798,-6.9798,-6.9798,-6.9798,-6.9798,-6.9798,-6.9798,-6.9798,-6.9798,-6.9798,-6.9798,-7.0063,-7.0196,-7.0196,-7.0659,-7.1156,-7.172,-7.2614,-7.3243,-7.3508,-7.4237,-7.48,-7.5349,-7.5827,-7.6689,-7.7848,-7.8312,-7.8511,-7.8511,-7.8511,-7.8511,-7.8544,-7.8809,-7.9152,-7.967,-8.0233,-8.0995,-8.1823,-8.2121,-8.2486,-8.2883,-6.4299,-6.4465,-6.4664,-6.5293,-6.5425,-6.5425,-6.5492,-6.5492,-6.5757,-6.6485,-6.6585,-6.6837,-6.7612,-6.7711,-6.7711,-6.7731,-6.7744,-6.7665,-6.7731,-6.7731,-6.7731,-6.7731,-6.7731,-6.7731,-6.7731,-6.7731,-6.7731,-6.7731,-6.7731,-6.7731,-6.7731,-6.844,-6.8771,-6.8804,-6.95,-6.9798,-6.9798,-6.9798,-6.9798,-6.9798,-6.9798,-6.9798,-6.9798,-6.9798,-6.9798,-6.9798,-6.9798,-6.9798,-6.9798,-6.9798,-6.9798,-6.9798,-6.9798,-6.9798,-6.9798,-6.9798,-6.9798,-6.9798,-6.9798,-6.9798,-6.9798,-6.9798,-6.9798,-6.9798,-6.9798,-6.9798,-6.9798,-6.9798,-6.9798,-6.9798,-6.9798,-6.9798,-6.9798,-6.9798,-6.9798,-6.9798,-6.9798,-6.9798,-6.9798,-6.9798,-6.9798,-6.9798,-6.9798,-6.9798,-6.9798,-6.9864,-7.0494,-7.0924,-7.1057,-7.1057,-7.1686,-7.3078,-7.3144,-7.3541,-7.4288,-7.4984,-7.533,-7.543,-7.6821,-7.7848,-7.8511,-7.8511,-7.8511,-7.8511,-7.8511,-7.8544,-7.8643,-7.9339,-7.9649,-7.9902,-8.126,-8.1823,-8.1956,-8.2651,-8.2883,-8.2883,-6.5127,-6.516,-6.5227,-6.5392,-6.5425,-6.5591,-6.6154,-6.6254,-6.6519,-6.7235,-6.7301,-6.7645,-6.8341,-6.844,-6.8672,-6.9235,-6.8771,-6.8672,-6.9235,-6.9268,-6.9268,-6.9268,-6.9268,-6.9268,-6.9268,-6.9268,-6.9268,-6.9268,-6.9268,-6.9268,-6.9268,-6.9467,-6.9533,-6.9533,-6.9699,-6.9798,-6.9798,-6.9798,-6.9798,-6.9798,-6.9798,-6.9798,-6.9798,-6.9798,-6.9798,-6.9798,-6.9798,-6.9798,-6.9798,-6.9798,-6.9798,-6.9798,-6.9798,-6.9798,-6.9798,-6.9798,-6.9798,-6.9798,-6.9798,-6.9798,-6.9798,-6.9798,-6.9798,-6.9798,-6.9798,-6.9798,-6.9798,-6.9798,-6.9798,-6.9798,-6.9798,-6.9798,-6.9798,-6.9798,-6.9798,-6.9798,-6.9798,-6.9798,-6.9798,-6.9798,-6.9798,-6.9798,-6.9798,-6.9798,-7.003,-7.0593,-7.0792,-7.1388,-7.2515,-7.2581,-7.2746,-7.3111,-7.3641,-7.427,-7.4999,-7.5198,-7.5827,-7.692,-7.7815,-7.8345,-7.8511,-7.8511,-7.8511,-7.8511,-7.8511,-7.8842,-7.9372,-7.9571,-8.0266,-8.1326,-8.1658,-8.2121,-8.2651,-8.285,-8.2883,-8.2883,-6.5425,-6.5425,-6.5425,-6.5425,-6.569,-6.6055,-6.6452,-6.6817,-6.7281,-6.8009,-6.8109,-6.8374,-6.9103,-6.9202,-6.9334,-6.9765,-6.9434,-6.9368,-6.9765,-6.9798,-6.9798,-6.9798,-6.9798,-6.9798,-6.9798,-6.9798,-6.9798,-6.9798,-6.9798,-6.9798,-6.9798,-6.9798,-6.9798,-6.9798,-6.9798,-6.9798,-6.9798,-6.9798,-6.9798,-6.9798,-6.9798,-6.9798,-6.9798,-6.9798,-6.9798,-6.9798,-6.9798,-6.9798,-6.9798,-6.9798,-6.9798,-6.9798,-6.9798,-6.9798,-6.9798,-6.9798,-6.9798,-6.9798,-6.9798,-6.9798,-6.9798,-6.9798,-6.9798,-6.9798,-6.9798,-6.9798,-6.9798,-6.9798,-6.9798,-6.9798,-6.9798,-6.9798,-6.9798,-6.9798,-6.9798,-6.9798,-6.9798,-6.9798,-6.9798,-6.9798,-6.9798,-6.9931,-7.0262,-7.0295,-7.0593,-7.1355,-7.172,-7.225,-7.3078,-7.3409,-7.3575,-7.3575,-7.4303,-7.4918,-7.5264,-7.5927,-7.6821,-7.7914,-7.8345,-7.8511,-7.8511,-7.8511,-7.8511,-7.8544,-7.8875,-7.9239,-7.967,-8.0332,-8.1094,-8.1823,-8.2154,-8.2552,-8.2883,-8.2883,-8.2883,-8.2883,-6.5425,-6.5492,-6.5591,-6.5591,-6.6187,-6.6672,-6.685,-6.738,-6.8042,-6.8771,-6.8871,-6.9103,-6.9732,-6.9798,-6.9798,-6.9798,-6.9798,-6.9798,-6.9798,-6.9798,-6.9798,-6.9798,-6.9798,-6.9798,-6.9798,-6.9798,-6.9798,-6.9798,-6.9798,-6.9798,-6.9798,-6.9798,-6.9798,-6.9798,-6.9798,-6.9798,-6.9798,-6.9798,-6.9798,-6.9798,-6.9798,-6.9798,-6.9798,-6.9798,-6.9798,-6.9798,-6.9798,-6.9798,-6.9798,-6.9798,-6.9798,-6.9798,-6.9798,-6.9798,-6.9798,-6.9798,-6.9798,-6.9798,-6.9798,-6.9798,-6.9798,-6.9798,-6.9798,-6.9798,-6.9798,-6.9798,-6.9798,-6.9798,-6.9798,-6.9798,-6.9798,-6.9798,-6.9798,-6.9798,-6.9798,-6.9798,-6.9798,-6.9798,-6.9798,-6.9798,-6.9898,-7.0196,-7.0825,-7.0991,-7.1355,-7.2117,-7.2746,-7.3144,-7.3276,-7.384,-7.4255,-7.4387,-7.4933,-7.5363,-7.5595,-7.692,-7.7914,-7.8511,-7.8511,-7.8511,-7.8511,-7.8511,-7.8577,-7.8709,-7.9372,-7.9736,-8.0034,-8.1293,-8.1856,-8.2022,-8.2651,-8.2883,-8.2883,-8.2883,-8.2883,-8.2883,-6.5425,-6.5922,-6.6353,-6.6353,-6.6904,-6.7645,-6.8274,-6.844,-6.8771,-6.9533,-6.9633,-6.9666,-6.9765,-6.9798,-6.9798,-6.9798,-6.9798,-6.9798,-6.9798,-6.9798,-6.9798,-6.9798,-6.9798,-6.9798,-6.9798,-6.9798,-6.9798,-6.9798,-6.9798,-6.9798,-6.9798,-6.9798,-6.9798,-6.9798,-6.9798,-6.9798,-6.9798,-6.9798,-6.9798,-6.9798,-6.9798,-6.9798,-6.9798,-6.9798,-6.9798,-6.9798,-6.9798,-6.9798,-6.9798,-6.9798,-6.9798,-6.9798,-6.9798,-6.9798,-6.9798,-6.9798,-6.9798,-6.9798,-6.9798,-6.9798,-6.9798,-6.9798,-6.9798,-6.9798,-6.9798,-6.9798,-6.9798,-6.9798,-6.9798,-6.9798,-6.9798,-6.9798,-6.9798,-6.9798,-6.9798,-6.9798,-6.9798,-6.9798,-6.9798,-6.9798,-7.0361,-7.0759,-7.0891,-7.1455,-7.215,-7.2879,-7.3045,-7.3376,-7.3972,-7.4155,-7.452,-7.5098,-7.5231,-7.586,-7.7053,-7.7914,-7.8411,-7.8511,-7.8511,-7.8511,-7.8511,-7.8511,-7.8875,-7.9417,-7.9516,-8.0332,-8.1492,-8.1691,-8.2154,-8.2751,-8.285,-8.2883,-8.2883,-8.2883,-8.2883,-8.2883,-6.6519,-6.6837,-6.7069,-6.7069,-6.7711,-6.8307,-6.8639,-6.9036,-6.9401,-6.9765,-6.9798,-6.9798,-6.9798,-6.9798,-6.9798,-6.9798,-6.9798,-6.9798,-6.9798,-6.9798,-6.9798,-6.9798,-6.9798,-6.9798,-6.9798,-6.9798,-6.9798,-6.9798,-6.9798,-6.9798,-6.9798,-6.9798,-6.9798,-6.9798,-6.9798,-6.9798,-6.9798,-6.9798,-6.9798,-6.9798,-6.9798,-6.9798,-6.9798,-6.9798,-6.9798,-6.9798,-6.9798,-6.9798,-6.9798,-6.9798,-6.9798,-6.9798,-6.9798,-6.9798,-6.9798,-6.9798,-6.9798,-6.9798,-6.9798,-6.9798,-6.9798,-6.9798,-6.9798,-6.9798,-6.9798,-6.9798,-6.9798,-6.9798,-6.9798,-6.9798,-6.9798,-6.9798,-6.9798,-6.9798,-6.9798,-6.9798,-6.9798,-7.0129,-7.0394,-7.0394,-7.1024,-7.1653,-7.2051,-7.2382,-7.2912,-7.3641,-7.3674,-7.3807,-7.4188,-7.4586,-7.4933,-7.5264,-7.6026,-7.692,-7.8014,-7.8345,-7.8511,-7.8511,-7.8511,-7.8511,-7.8544,-7.8941,-7.9251,-7.9616,-8.0465,-8.1161,-8.1823,-8.2221,-8.2585,-8.2883,-8.2883,-8.2883,-8.2883,-8.2883,-8.2883,-8.2883,-6.7466,-6.7777,-6.7877,-6.7877,-6.8473,-6.8937,-6.8937,-6.9434,-6.9798,-6.9798,-6.9798,-6.9798,-6.9798,-6.9798,-6.9798,-6.9798,-6.9798,-6.9798,-6.9798,-6.9798,-6.9798,-6.9798,-6.9798,-6.9798,-6.9798,-6.9798,-6.9798,-6.9798,-6.9798,-6.9798,-6.9798,-6.9798,-6.9798,-6.9798,-6.9798,-6.9798,-6.9798,-6.9798,-6.9798,-6.9798,-6.9798,-6.9798,-6.9798,-6.9798,-6.9798,-6.9798,-6.9798,-6.9798,-6.9798,-6.9798,-6.9798,-6.9798,-6.9798,-6.9798,-6.9798,-6.9798,-6.9798,-6.9798,-6.9798,-6.9798,-6.9798,-6.9798,-6.9798,-6.9798,-6.9798,-6.9798,-6.9798,-6.9798,-6.9798,-6.9798,-6.9798,-6.9798,-6.9798,-6.9798,-6.9798,-6.9864,-7.003,-7.0527,-7.0958,-7.1123,-7.1819,-7.2481,-7.3045,-7.3276,-7.3575,-7.4188,-7.4221,-7.4288,-7.4487,-7.5017,-7.543,-7.5761,-7.6854,-7.7782,-7.8511,-7.8511,-7.8511,-7.8511,-7.8511,-7.861,-7.8776,-7.9318,-7.9802,-8.02,-8.1326,-8.1889,-8.2088,-8.2651,-8.2883,-8.2883,-8.2883,-8.2883,-8.2883,-8.2883,-8.2883,-8.2883,-6.7566,-6.8142,-6.8606,-6.8606,-6.9235,-6.9699,-6.9699,-6.9765,-6.9798,-6.9798,-6.9798,-6.9798,-6.9798,-6.9798,-6.9798,-6.9798,-6.9798,-6.9798,-6.9798,-6.9798,-6.9798,-6.9798,-6.9798,-6.9798,-6.9798,-6.9798,-6.9798,-6.9798,-6.9798,-6.9798,-6.9798,-6.9798,-6.9798,-6.9798,-6.9798,-6.9798,-6.9798,-6.9798,-6.9798,-6.9798,-6.9798,-6.9798,-6.9798,-6.9798,-6.9798,-6.9798,-6.9798,-6.9798,-6.9798,-6.9798,-6.9798,-6.9798,-6.9798,-6.9798,-6.9798,-6.9798,-6.9798,-6.9798,-6.9798,-6.9798,-6.9798,-6.9798,-6.9798,-6.9798,-6.9798,-6.9798,-6.9798,-6.9798,-6.9798,-6.9798,-6.9798,-6.9798,-6.9798,-6.9798,-6.9798,-7.003,-7.0726,-7.0858,-7.1156,-7.1852,-7.2581,-7.3045,-7.3111,-7.3707,-7.4155,-7.4221,-7.4221,-7.452,-7.5165,-7.5231,-7.5894,-7.7219,-7.7351,-7.7782,-7.8511,-7.8511,-7.8511,-7.8511,-7.8511,-7.8875,-7.9483,-7.9604,-8.0366,-8.1624,-8.1757,-8.2188,-8.2817,-8.2883,-8.2883,-8.2883,-8.2883,-8.2883,-8.2883,-8.2883,-8.2883,-8.2883,-6.8871,-6.9202,-6.9368,-6.9368,-6.9599,-6.9798,-6.9798,-6.9798,-6.9798,-6.9798,-6.9798,-6.9798,-6.9798,-6.9798,-6.9798,-6.9798,-6.9798,-6.9798,-6.9798,-6.9798,-6.9798,-6.9798,-6.9798,-6.9798,-6.9798,-6.9798,-6.9798,-6.9798,-6.9798,-6.9798,-6.9798,-6.9798,-6.9798,-6.9798,-6.9798,-6.9798,-6.9798,-6.9798,-6.9798,-6.9798,-6.9798,-6.9798,-6.9798,-6.9798,-6.9798,-6.9798,-6.9798,-6.9798,-6.9798,-6.9798,-6.9798,-6.9798,-6.9798,-6.9798,-6.9798,-6.9798,-6.9798,-6.9798,-6.9798,-6.9798,-6.9798,-6.9798,-6.9798,-6.9798,-6.9798,-6.9798,-6.9798,-6.9798,-6.9798,-6.9798,-6.9798,-6.9798,-6.9931,-7.0394,-7.0461,-7.0726,-7.1488,-7.1985,-7.2382,-7.2647,-7.331,-7.3773,-7.3773,-7.4005,-7.4221,-7.4221,-7.4652,-7.4966,-7.5264,-7.6125,-7.7053,-7.808,-7.8113,-7.8246,-7.8511,-7.8511,-7.8511,-7.8511,-7.8511,-7.8908,-7.9637,-8.0067,-8.0829,-8.1823,-8.2287,-8.2651,-8.2883,-8.2883,-8.2883,-8.2883,-8.2883,-8.2883,-8.2883,-8.2883,-8.2883,-8.2883,-6.9699,-6.9798,-6.9798,-6.9798,-6.9798,-6.9798,-6.9798,-6.9798,-6.9798,-6.9798,-6.9798,-6.9798,-6.9798,-6.9798,-6.9798,-6.9798,-6.9798,-6.9798,-6.9798,-6.9798,-6.9798,-6.9798,-6.9798,-6.9798,-6.9798,-6.9798,-6.9798,-6.9798,-6.9798,-6.9798,-6.9798,-6.9798,-6.9798,-6.9798,-6.9798,-6.9798,-6.9798,-6.9798,-6.9798,-6.9798,-6.9798,-6.9798,-6.9798,-6.9798,-6.9798,-6.9798,-6.9798,-6.9798,-6.9798,-6.9798,-6.9798,-6.9798,-6.9798,-6.9798,-6.9798,-6.9798,-6.9798,-6.9798,-6.9798,-6.9798,-6.9798,-6.9798,-6.9798,-6.9798,-6.9798,-6.9798,-6.9798,-6.9798,-6.9964,-7.0129,-7.0129,-7.0328,-7.0659,-7.1156,-7.1256,-7.1488,-7.225,-7.278,-7.321,-7.3409,-7.3873,-7.4221,-7.4221,-7.4221,-7.4321,-7.4553,-7.4999,-7.5463,-7.5927,-7.7086,-7.8014,-7.8511,-7.8511,-7.8511,-7.8511,-7.8511,-7.8511,-7.8511,-7.8742,-7.9239,-7.9968,-8.0697,-8.1459,-8.2154,-8.2684,-8.2883,-8.2883,-8.2883,-8.2883,-8.2883,-8.2883,-8.2883,-8.2883,-8.2883,-8.2883,-8.2883,-6.9798,-6.9798,-6.9798,-6.9798,-6.9798,-6.9798,-6.9798,-6.9798,-6.9798,-6.9798,-6.9798,-6.9798,-6.9798,-6.9798,-6.9798,-6.9798,-6.9798,-6.9798,-6.9798,-6.9798,-6.9798,-6.9798,-6.9798,-6.9798,-6.9798,-6.9798,-6.9798,-6.9798,-6.9798,-6.9798,-6.9798,-6.9798,-6.9798,-6.9798,-6.9798,-6.9798,-6.9798,-6.9798,-6.9798,-6.9798,-6.9798,-6.9798,-6.9798,-6.9798,-6.9798,-6.9798,-6.9798,-6.9798,-6.9798,-6.9798,-6.9798,-6.9798,-6.9798,-6.9798,-6.9798,-6.9798,-6.9798,-6.9798,-6.9798,-6.9798,-6.9798,-6.9798,-6.9798,-6.9798,-6.9798,-6.9798,-6.9798,-6.9798,-7.0394,-7.0924,-7.0924,-7.1521,-7.2018,-7.2018,-7.2018,-7.2283,-7.3011,-7.3111,-7.3376,-7.4122,-7.4221,-7.4221,-7.4221,-7.4221,-7.452,-7.5231,-7.5297,-7.5927,-7.7351,-7.8113,-7.8511,-7.8511,-7.8511,-7.8511,-7.8511,-7.8511,-7.8511,-7.8544,-7.9272,-8.0001,-8.073,-8.1459,-8.2188,-8.2883,-8.2883,-8.2883,-8.2883,-8.2883,-8.2883,-8.2883,-8.2883,-8.2883,-8.2883,-8.2883,-8.2883,-8.2883,-6.9798,-6.9798,-6.9798,-6.9798,-6.9798,-6.9798,-6.9798,-6.9798,-6.9798,-6.9798,-6.9798,-6.9798,-6.9798,-6.9798,-6.9798,-6.9798,-6.9798,-6.9798,-6.9798,-6.9798,-6.9798,-6.9798,-6.9798,-6.9798,-6.9798,-6.9798,-6.9798,-6.9798,-6.9798,-6.9798,-6.9798,-6.9798,-6.9798,-6.9798,-6.9798,-6.9798,-6.9798,-6.9798,-6.9798,-6.9798,-6.9798,-6.9798,-6.9798,-6.9798,-6.9798,-6.9798,-6.9798,-6.9798,-6.9798,-6.9798,-6.9798,-6.9798,-6.9798,-6.9798,-6.9798,-6.9798,-6.9798,-6.9898,-7.0428,-7.056,-7.0461,-6.9931,-6.9798,-6.9931,-7.0461,-7.056,-7.0726,-7.1223,-7.1521,-7.1686,-7.1686,-7.1852,-7.2183,-7.2713,-7.278,-7.3045,-7.374,-7.384,-7.3939,-7.4188,-7.4221,-7.4221,-7.4221,-7.4686,-7.5032,-7.5264,-7.6225,-7.7185,-7.8146,-7.8411,-7.8511,-7.8511,-7.8511,-7.8511,-7.8511,-7.8511,-7.8776,-7.9306,-7.9504,-8.0266,-8.1459,-8.1691,-8.2188,-8.2883,-8.2883,-8.2883,-8.2883,-8.2883,-8.2883,-8.2883,-8.2883,-8.2883,-8.2883,-8.2883,-8.2883,-8.2883,-6.9798,-6.9798,-6.9798,-6.9798,-6.9798,-6.9798,-6.9798,-6.9798,-6.9798,-6.9798,-6.9798,-6.9798,-6.9798,-6.9798,-6.9798,-6.9798,-6.9798,-6.9798,-6.9798,-6.9798,-6.9798,-6.9798,-6.9798,-6.9798,-6.9798,-6.9798,-6.9798,-6.9798,-6.9798,-6.9798,-6.9798,-6.9798,-6.9798,-6.9798,-6.9798,-6.9798,-6.9798,-6.9798,-6.9798,-6.9798,-6.9798,-6.9798,-6.9798,-6.9798,-6.9798,-6.9798,-6.9798,-6.9798,-6.9798,-6.9798,-6.9798,-6.9798,-6.9798,-6.9997,-7.0229,-7.0229,-7.0428,-7.0759,-7.1223,-7.1355,-7.1223,-7.0792,-7.0659,-7.0792,-7.1223,-7.1355,-7.1455,-7.1918,-7.225,-7.2448,-7.2448,-7.268,-7.3011,-7.3442,-7.3541,-7.3674,-7.4155,-7.4221,-7.4221,-7.4221,-7.4487,-7.4652,-7.4652,-7.5264,-7.5794,-7.6092,-7.7185,-7.8047,-7.8511,-7.8511,-7.8511,-7.8511,-7.8511,-7.8511,-7.8511,-7.8809,-7.9173,-7.9637,-8.02,-8.0962,-8.179,-8.2088,-8.2486,-8.2883,-8.2883,-8.2883,-8.2883,-8.2883,-8.2883,-8.2883,-8.2883,-8.2883,-8.2883,-8.2883,-8.2883,-8.2883,-6.9798,-6.9798,-6.9798,-6.9798,-6.9798,-6.9798,-6.9798,-6.9798,-6.9798,-6.9798,-6.9798,-6.9798,-6.9798,-6.9798,-6.9798,-6.9798,-6.9798,-6.9798,-6.9798,-6.9798,-6.9798,-6.9798,-6.9798,-6.9798,-6.9798,-6.9798,-6.9798,-6.9798,-6.9798,-6.9798,-6.9798,-6.9798,-6.9798,-6.9798,-6.9798,-6.9798,-6.9798,-6.9798,-6.9798,-6.9798,-6.9798,-6.9798,-6.9798,-6.9798,-6.9798,-6.9798,-6.9798,-6.9798,-6.9798,-6.9798,-6.9831,-6.9898,-6.9898,-7.0394,-7.0991,-7.0991,-7.1488,-7.2018,-7.2084,-7.2117,-7.2117,-7.2183,-7.2216,-7.2183,-7.2117,-7.2117,-7.2117,-7.2183,-7.2746,-7.321,-7.321,-7.374,-7.4221,-7.4221,-7.4221,-7.4221,-7.4221,-7.4221,-7.4255,-7.4321,-7.4867,-7.5297,-7.5363,-7.5993,-7.6722,-7.745,-7.8146,-7.8511,-7.8511,-7.8511,-7.8511,-7.8511,-7.8511,-7.8544,-7.861,-7.9339,-7.9736,-7.9736,-8.1128,-8.1823,-8.1923,-8.2585,-8.2883,-8.2883,-8.2883,-8.2883,-8.2883,-8.2883,-8.2883,-8.2883,-8.2883,-8.2883,-8.2883,-8.2883,-8.2883,-8.2883,-6.9798,-6.9798,-6.9798,-6.9798,-6.9798,-6.9798,-6.9798,-6.9798,-6.9798,-6.9798,-6.9798,-6.9798,-6.9798,-6.9798,-6.9798,-6.9798,-6.9798,-6.9798,-6.9798,-6.9798,-6.9798,-6.9798,-6.9798,-6.9798,-6.9798,-6.9798,-6.9798,-6.9798,-6.9798,-6.9798,-6.9798,-6.9798,-6.9798,-6.9798,-6.9798,-6.9798,-6.9798,-6.9798,-6.9798,-6.9798,-6.9798,-6.9798,-6.9798,-6.9798,-6.9798,-6.9798,-6.9798,-6.9798,-6.9798,-6.9798,-7.0163,-7.0659,-7.0659,-7.1156,-7.1753,-7.1753,-7.1885,-7.2117,-7.2713,-7.2879,-7.3011,-7.3575,-7.3707,-7.3541,-7.2978,-7.2879,-7.3045,-7.3575,-7.384,-7.3939,-7.3939,-7.4122,-7.4221,-7.4221,-7.4221,-7.4221,-7.4221,-7.4221,-7.442,-7.5017,-7.5165,-7.5496,-7.6026,-7.6755,-7.7484,-7.8212,-7.8444,-7.8511,-7.8511,-7.8511,-7.8511,-7.8511,-7.8511,-7.8809,-7.9372,-8.0101,-8.0465,-8.0465,-8.1359,-8.2088,-8.2651,-8.2817,-8.2883,-8.2883,-8.2883,-8.2883,-8.2883,-8.2883,-8.2883,-8.2883,-8.2883,-8.2883,-8.2883,-8.2883,-8.2883,-8.2883,-6.9798,-6.9798,-6.9798,-6.9798,-6.9798,-6.9798,-6.9798,-6.9798,-6.9798,-6.9798,-6.9798,-6.9798,-6.9798,-6.9798,-6.9798,-6.9798,-6.9798,-6.9798,-6.9798,-6.9798,-6.9798,-6.9798,-6.9798,-6.9798,-6.9798,-6.9798,-6.9798,-6.9798,-6.9798,-6.9798,-6.9798,-6.9798,-6.9798,-6.9798,-6.9798,-6.9798,-6.9798,-6.9798,-6.9798,-6.9798,-6.9798,-6.9798,-6.9798,-6.9798,-6.9798,-6.9798,-6.9798,-7.003,-7.0328,-7.0328,-7.0825,-7.1421,-7.1421,-7.1951,-7.2515,-7.2515,-7.278,-7.3111,-7.3508,-7.3608,-7.3707,-7.4072,-7.4221,-7.4122,-7.3707,-7.3608,-7.3707,-7.4105,-7.4221,-7.4221,-7.4221,-7.4221,-7.4221,-7.4221,-7.4221,-7.4354,-7.4686,-7.4752,-7.4966,-7.5695,-7.6092,-7.6589,-7.7285,-7.7715,-7.8113,-7.8477,-7.8511,-7.8511,-7.8511,-7.8511,-7.8511,-7.8511,-7.8875,-7.9239,-7.9637,-8.0697,-8.1194,-8.1227,-8.1956,-8.2519,-8.2883,-8.2883,-8.2883,-8.2883,-8.2883,-8.2883,-8.2883,-8.2883,-8.2883,-8.2883,-8.2883,-8.2883,-8.2883,-8.2883,-8.2883,-8.2883,-6.9798,-6.9798,-6.9798,-6.9798,-6.9798,-6.9798,-6.9798,-6.9798,-6.9798,-6.9798,-6.9798,-6.9798,-6.9798,-6.9798,-6.9798,-6.9798,-6.9798,-6.9798,-6.9798,-6.9798,-6.9798,-6.9798,-6.9798,-6.9798,-6.9798,-6.9798,-6.9798,-6.9798,-6.9798,-6.9798,-6.9798,-6.9798,-6.9798,-6.9798,-6.9798,-6.9798,-6.9798,-6.9798,-6.9798,-6.9798,-6.9798,-6.9798,-6.9798,-6.9798,-6.9798,-6.9798,-6.9931,-7.0461,-7.109,-7.109,-7.1587,-7.2183,-7.2183,-7.268,-7.3276,-7.3276,-7.3707,-7.4221,-7.4221,-7.4221,-7.4221,-7.4221,-7.4221,-7.4221,-7.4221,-7.4221,-7.4221,-7.4221,-7.4221,-7.4221,-7.4221,-7.4321,-7.442,-7.442,-7.4469,-7.4767,-7.5363,-7.5463,-7.5695,-7.6424,-7.7152,-7.7848,-7.8444,-7.8511,-7.8511,-7.8511,-7.8511,-7.8511,-7.8511,-7.8511,-7.8577,-7.8709,-7.9251,-7.9736,-8.0001,-8.1194,-8.1856,-8.1989,-8.2618,-8.2883,-8.2883,-8.2883,-8.2883,-8.2883,-8.2883,-8.2883,-8.2883,-8.2883,-8.2883,-8.2883,-8.2883,-8.2883,-8.2883,-8.2883,-8.2883,-8.2883,-6.9798,-6.9798,-6.9798,-6.9798,-6.9798,-6.9798,-6.9798,-6.9798,-6.9798,-6.9798,-6.9798,-6.9798,-6.9798,-6.9798,-6.9798,-6.9798,-6.9798,-6.9798,-6.9798,-6.9798,-6.9798,-6.9798,-6.9798,-6.9798,-6.9798,-6.9798,-6.9798,-6.9798,-6.9798,-6.9798,-6.9798,-6.9798,-6.9798,-6.9798,-6.9798,-6.9798,-6.9798,-6.9798,-6.9798,-6.9798,-6.9798,-6.9798,-6.9798,-6.9798,-6.9798,-6.9864,-7.0527,-7.1223,-7.1852,-7.1852,-7.2349,-7.2945,-7.2945,-7.3442,-7.4038,-7.4038,-7.4105,-7.4221,-7.4221,-7.4221,-7.4221,-7.4221,-7.4221,-7.4221,-7.4221,-7.4221,-7.4221,-7.4221,-7.4221,-7.4221,-7.4221,-7.4752,-7.5132,-7.5132,-7.5628,-7.6059,-7.6159,-7.6159,-7.6457,-7.7185,-7.7914,-7.8411,-7.8511,-7.8511,-7.8511,-7.8511,-7.8511,-7.8511,-7.8511,-7.8511,-7.8809,-7.9471,-7.9516,-8.0233,-8.1492,-8.1691,-8.2121,-8.2751,-8.285,-8.2883,-8.2883,-8.2883,-8.2883,-8.2883,-8.2883,-8.2883,-8.2883,-8.2883,-8.2883,-8.2883,-8.2883,-8.2883,-8.2883,-8.2883,-8.2883,-8.2883,-6.9798,-6.9798,-6.9798,-6.9798,-6.9798,-6.9798,-6.9798,-6.9798,-6.9798,-6.9798,-6.9798,-6.9798,-6.9798,-6.9798,-6.9798,-6.9798,-6.9798,-6.9798,-6.9798,-6.9798,-6.9798,-6.9798,-6.9798,-6.9798,-6.9798,-6.9798,-6.9798,-6.9798,-6.9798,-6.9798,-6.9798,-6.9798,-6.9798,-6.9798,-6.9798,-6.9798,-6.9798,-6.9798,-6.9798,-6.9798,-6.9798,-6.9798,-6.9831,-7.0262,-7.0394,-7.0494,-7.1256,-7.1985,-7.2614,-7.2614,-7.3111,-7.3707,-7.3707,-7.3906,-7.4221,-7.4221,-7.4221,-7.4221,-7.4221,-7.4221,-7.4221,-7.4221,-7.4221,-7.4321,-7.4752,-7.48,-7.4719,-7.4288,-7.4553,-7.48,-7.48,-7.5363,-7.586,-7.586,-7.6125,-7.6457,-7.6854,-7.692,-7.7219,-7.7947,-7.8312,-7.8511,-7.8511,-7.8511,-7.8511,-7.8511,-7.8511,-7.8511,-7.8511,-7.8908,-7.9218,-7.9604,-8.0399,-8.1128,-8.179,-8.2221,-8.2585,-8.2883,-8.2883,-8.2883,-8.2883,-8.2883,-8.2883,-8.2883,-8.2883,-8.2883,-8.2883,-8.2883,-8.2883,-8.2883,-8.2883,-8.2883,-8.2883,-8.2883,-8.2883,-8.2883]}]]